﻿<?xml version="1.0" encoding="utf-8"?><gpx creator="Garmin Desktop App" version="1.1" xsi:schemaLocation="http://www.topografix.com/GPX/1/1 http://www.topografix.com/GPX/1/1/gpx.xsd http://www.garmin.com/xmlschemas/WaypointExtension/v1 http://www8.garmin.com/xmlschemas/WaypointExtensionv1.xsd http://www.garmin.com/xmlschemas/TrackPointExtension/v1 http://www.garmin.com/xmlschemas/TrackPointExtensionv1.xsd http://www.garmin.com/xmlschemas/GpxExtensions/v3 http://www8.garmin.com/xmlschemas/GpxExtensionsv3.xsd http://www.garmin.com/xmlschemas/ActivityExtension/v1 http://www8.garmin.com/xmlschemas/ActivityExtensionv1.xsd http://www.garmin.com/xmlschemas/AdventuresExtensions/v1 http://www8.garmin.com/xmlschemas/AdventuresExtensionv1.xsd http://www.garmin.com/xmlschemas/PressureExtension/v1 http://www.garmin.com/xmlschemas/PressureExtensionv1.xsd http://www.garmin.com/xmlschemas/TripExtensions/v1 http://www.garmin.com/xmlschemas/TripExtensionsv1.xsd http://www.garmin.com/xmlschemas/TripMetaDataExtensions/v1 http://www.garmin.com/xmlschemas/TripMetaDataExtensionsv1.xsd http://www.garmin.com/xmlschemas/ViaPointTransportationModeExtensions/v1 http://www.garmin.com/xmlschemas/ViaPointTransportationModeExtensionsv1.xsd http://www.garmin.com/xmlschemas/CreationTimeExtension/v1 http://www.garmin.com/xmlschemas/CreationTimeExtensionsv1.xsd http://www.garmin.com/xmlschemas/AccelerationExtension/v1 http://www.garmin.com/xmlschemas/AccelerationExtensionv1.xsd http://www.garmin.com/xmlschemas/PowerExtension/v1 http://www.garmin.com/xmlschemas/PowerExtensionv1.xsd http://www.garmin.com/xmlschemas/VideoExtension/v1 http://www.garmin.com/xmlschemas/VideoExtensionv1.xsd" xmlns="http://www.topografix.com/GPX/1/1" xmlns:xsi="http://www.w3.org/2001/XMLSchema-instance" xmlns:wptx1="http://www.garmin.com/xmlschemas/WaypointExtension/v1" xmlns:gpxtrx="http://www.garmin.com/xmlschemas/GpxExtensions/v3" xmlns:gpxtpx="http://www.garmin.com/xmlschemas/TrackPointExtension/v1" xmlns:gpxx="http://www.garmin.com/xmlschemas/GpxExtensions/v3" xmlns:trp="http://www.garmin.com/xmlschemas/TripExtensions/v1" xmlns:adv="http://www.garmin.com/xmlschemas/AdventuresExtensions/v1" xmlns:prs="http://www.garmin.com/xmlschemas/PressureExtension/v1" xmlns:tmd="http://www.garmin.com/xmlschemas/TripMetaDataExtensions/v1" xmlns:vptm="http://www.garmin.com/xmlschemas/ViaPointTransportationModeExtensions/v1" xmlns:ctx="http://www.garmin.com/xmlschemas/CreationTimeExtension/v1" xmlns:gpxacc="http://www.garmin.com/xmlschemas/AccelerationExtension/v1" xmlns:gpxpx="http://www.garmin.com/xmlschemas/PowerExtension/v1" xmlns:vidx1="http://www.garmin.com/xmlschemas/VideoExtension/v1">

  <metadata>
    <link href="http://www.garmin.com">
      <text>Garmin International</text>
    </link>
    <time>2021-02-15T10:02:45Z</time>
    <bounds maxlat="46.042690649628639" maxlon="9.427865948528051" minlat="46.011144770309329" minlon="9.40266533754766" />
  </metadata>

  <trk>
    <name>cima-di-olino2021-02-14</name>
    <extensions>
      <gpxx:TrackExtension>
        <gpxx:DisplayColor>Yellow</gpxx:DisplayColor>
      </gpxx:TrackExtension>
      <gpxtrkx:TrackStatsExtension xmlns:gpxtrkx="http://www.garmin.com/xmlschemas/TrackStatsExtension/v1">
        <gpxtrkx:Distance>10395</gpxtrkx:Distance>
        <gpxtrkx:TotalElapsedTime>21394</gpxtrkx:TotalElapsedTime>
        <gpxtrkx:MovingTime>11486</gpxtrkx:MovingTime>
        <gpxtrkx:StoppedTime>9898</gpxtrkx:StoppedTime>
        <gpxtrkx:MovingSpeed>0.905</gpxtrkx:MovingSpeed>
        <gpxtrkx:MaxSpeed>3.079</gpxtrkx:MaxSpeed>
        <gpxtrkx:MaxElevation>1786.988</gpxtrkx:MaxElevation>
        <gpxtrkx:MinElevation>1352.61</gpxtrkx:MinElevation>
        <gpxtrkx:Ascent>521</gpxtrkx:Ascent>
        <gpxtrkx:Descent>515.821</gpxtrkx:Descent>
        <gpxtrkx:AvgAscentRate>0.039</gpxtrkx:AvgAscentRate>
        <gpxtrkx:MaxAscentRate>0.223</gpxtrkx:MaxAscentRate>
        <gpxtrkx:AvgDescentRate>0.063</gpxtrkx:AvgDescentRate>
        <gpxtrkx:MaxDescentRate>-0.326</gpxtrkx:MaxDescentRate>
      </gpxtrkx:TrackStatsExtension>
    </extensions>
    <trkseg>
      <trkpt lat="46.042660810053349" lon="9.402861976996064">
        <ele>1358.6800000000001</ele>
        <time>2021-02-14T07:26:14Z</time>
      </trkpt>
      <trkpt lat="46.042660642415285" lon="9.402862647548318">
        <ele>1358.6800000000001</ele>
        <time>2021-02-14T07:26:15Z</time>
      </trkpt>
      <trkpt lat="46.042659636586905" lon="9.402868011966348">
        <ele>1355.8099999999999</ele>
        <time>2021-02-14T07:26:20Z</time>
      </trkpt>
      <trkpt lat="46.042657205834985" lon="9.402872370555997">
        <ele>1354.3800000000001</ele>
        <time>2021-02-14T07:26:27Z</time>
      </trkpt>
      <trkpt lat="46.042641028761864" lon="9.402877986431122">
        <ele>1355.1199999999999</ele>
        <time>2021-02-14T07:26:37Z</time>
      </trkpt>
      <trkpt lat="46.042644968256354" lon="9.402884524315596">
        <ele>1355.1600000000001</ele>
        <time>2021-02-14T07:26:53Z</time>
      </trkpt>
      <trkpt lat="46.042638011276722" lon="9.40287496894598">
        <ele>1355.22</ele>
        <time>2021-02-14T07:27:06Z</time>
      </trkpt>
      <trkpt lat="46.042602472007275" lon="9.402879159897566">
        <ele>1355.1199999999999</ele>
        <time>2021-02-14T07:27:15Z</time>
      </trkpt>
      <trkpt lat="46.042461907491088" lon="9.403004385530949">
        <ele>1355.6700000000001</ele>
        <time>2021-02-14T07:27:33Z</time>
      </trkpt>
      <trkpt lat="46.042471379041672" lon="9.40300296060741">
        <ele>1355.3399999999999</ele>
        <time>2021-02-14T07:27:50Z</time>
      </trkpt>
      <trkpt lat="46.042473390698433" lon="9.403010839596391">
        <ele>1356.28</ele>
        <time>2021-02-14T07:28:11Z</time>
      </trkpt>
      <trkpt lat="46.042473893612623" lon="9.403010923415422">
        <ele>1355.6300000000001</ele>
        <time>2021-02-14T07:28:13Z</time>
      </trkpt>
      <trkpt lat="46.042465846985579" lon="9.403013354167342">
        <ele>1355.2</ele>
        <time>2021-02-14T07:28:26Z</time>
      </trkpt>
      <trkpt lat="46.042463667690754" lon="9.403012599796057">
        <ele>1355.9000000000001</ele>
        <time>2021-02-14T07:28:42Z</time>
      </trkpt>
      <trkpt lat="46.042438354343176" lon="9.403006816282868">
        <ele>1355.5699999999999</ele>
        <time>2021-02-14T07:28:47Z</time>
      </trkpt>
      <trkpt lat="46.042358642444015" lon="9.402939425781369">
        <ele>1355.47</ele>
        <time>2021-02-14T07:28:55Z</time>
      </trkpt>
      <trkpt lat="46.042266525328159" lon="9.402724681422114">
        <ele>1354.79</ele>
        <time>2021-02-14T07:29:10Z</time>
      </trkpt>
      <trkpt lat="46.04227582924068" lon="9.402687633410096">
        <ele>1354.6300000000001</ele>
        <time>2021-02-14T07:29:20Z</time>
      </trkpt>
      <trkpt lat="46.042279684916139" lon="9.402716383337975">
        <ele>1354.79</ele>
        <time>2021-02-14T07:29:30Z</time>
      </trkpt>
      <trkpt lat="46.042273230850697" lon="9.402702385559678">
        <ele>1354.4300000000001</ele>
        <time>2021-02-14T07:29:44Z</time>
      </trkpt>
      <trkpt lat="46.042280606925488" lon="9.402679251506925">
        <ele>1354.3599999999999</ele>
        <time>2021-02-14T07:29:54Z</time>
      </trkpt>
      <trkpt lat="46.042287396267056" lon="9.402681263163686">
        <ele>1354.5599999999999</ele>
        <time>2021-02-14T07:30:16Z</time>
      </trkpt>
      <trkpt lat="46.042283540591598" lon="9.4026805087924">
        <ele>1354.6600000000001</ele>
        <time>2021-02-14T07:30:28Z</time>
      </trkpt>
      <trkpt lat="46.042286977171898" lon="9.40266533754766">
        <ele>1354.6300000000001</ele>
        <time>2021-02-14T07:30:38Z</time>
      </trkpt>
      <trkpt lat="46.042286558076739" lon="9.402683861553669">
        <ele>1354.3900000000001</ele>
        <time>2021-02-14T07:30:54Z</time>
      </trkpt>
      <trkpt lat="46.042286641895771" lon="9.402685537934303">
        <ele>1355.3599999999999</ele>
        <time>2021-02-14T07:31:07Z</time>
      </trkpt>
      <trkpt lat="46.042286306619644" lon="9.402685286477208">
        <ele>1355.55</ele>
        <time>2021-02-14T07:31:08Z</time>
      </trkpt>
      <trkpt lat="46.042288234457374" lon="9.402686795219779">
        <ele>1354.5</ele>
        <time>2021-02-14T07:31:29Z</time>
      </trkpt>
      <trkpt lat="46.042287899181247" lon="9.40268830396235">
        <ele>1354.5699999999999</ele>
        <time>2021-02-14T07:31:44Z</time>
      </trkpt>
      <trkpt lat="46.042290246114135" lon="9.402692411094904">
        <ele>1354.6700000000001</ele>
        <time>2021-02-14T07:32:02Z</time>
      </trkpt>
      <trkpt lat="46.042292593047023" lon="9.402690902352333">
        <ele>1355.03</ele>
        <time>2021-02-14T07:32:15Z</time>
      </trkpt>
      <trkpt lat="46.042287899181247" lon="9.402691908180714">
        <ele>1355.0999999999999</ele>
        <time>2021-02-14T07:32:27Z</time>
      </trkpt>
      <trkpt lat="46.04229292832315" lon="9.402693500742316">
        <ele>1354.9400000000001</ele>
        <time>2021-02-14T07:32:41Z</time>
      </trkpt>
      <trkpt lat="46.042290413752198" lon="9.402697775512934">
        <ele>1355.05</ele>
        <time>2021-02-14T07:32:54Z</time>
      </trkpt>
      <trkpt lat="46.042291503399611" lon="9.402695931494236">
        <ele>1354.9200000000001</ele>
        <time>2021-02-14T07:33:07Z</time>
      </trkpt>
      <trkpt lat="46.042289659380913" lon="9.402697943150997">
        <ele>1355.1099999999999</ele>
        <time>2021-02-14T07:33:21Z</time>
      </trkpt>
      <trkpt lat="46.042289910838008" lon="9.402697691693902">
        <ele>1355.1900000000001</ele>
        <time>2021-02-14T07:33:36Z</time>
      </trkpt>
      <trkpt lat="46.042289491742849" lon="9.402682520449162">
        <ele>1355.1800000000001</ele>
        <time>2021-02-14T07:33:47Z</time>
      </trkpt>
      <trkpt lat="46.042292090132833" lon="9.402684615924954">
        <ele>1355.21</ele>
        <time>2021-02-14T07:34:01Z</time>
      </trkpt>
      <trkpt lat="46.04229586198926" lon="9.402687717229128">
        <ele>1354.4200000000001</ele>
        <time>2021-02-14T07:34:15Z</time>
      </trkpt>
      <trkpt lat="46.042296448722482" lon="9.402688471600413">
        <ele>1355.6600000000001</ele>
        <time>2021-02-14T07:34:27Z</time>
      </trkpt>
      <trkpt lat="46.04230223223567" lon="9.402688220143318">
        <ele>1355.01</ele>
        <time>2021-02-14T07:34:41Z</time>
      </trkpt>
      <trkpt lat="46.042303154245019" lon="9.402689477428794">
        <ele>1355.0899999999999</ele>
        <time>2021-02-14T07:34:53Z</time>
      </trkpt>
      <trkpt lat="46.042307261377573" lon="9.402684951201081">
        <ele>1355.1500000000001</ele>
        <time>2021-02-14T07:35:15Z</time>
      </trkpt>
      <trkpt lat="46.042303740978241" lon="9.40268637612462">
        <ele>1355.25</ele>
        <time>2021-02-14T07:35:27Z</time>
      </trkpt>
      <trkpt lat="46.042301058769226" lon="9.402686711400747">
        <ele>1355.25</ele>
        <time>2021-02-14T07:35:41Z</time>
      </trkpt>
      <trkpt lat="46.042298125103116" lon="9.402685621753335">
        <ele>1355.3199999999999</ele>
        <time>2021-02-14T07:35:52Z</time>
      </trkpt>
      <trkpt lat="46.042298963293433" lon="9.402688555419445">
        <ele>1355.2</ele>
        <time>2021-02-14T07:36:09Z</time>
      </trkpt>
      <trkpt lat="46.042298376560211" lon="9.402682352811098">
        <ele>1355.3099999999999</ele>
        <time>2021-02-14T07:36:31Z</time>
      </trkpt>
      <trkpt lat="46.042294939979911" lon="9.402681095525622">
        <ele>1355.1600000000001</ele>
        <time>2021-02-14T07:36:53Z</time>
      </trkpt>
      <trkpt lat="46.042294856160879" lon="9.402685537934303">
        <ele>1356.47</ele>
        <time>2021-02-14T07:37:02Z</time>
      </trkpt>
      <trkpt lat="46.042295694351196" lon="9.402689896523953">
        <ele>1355.3199999999999</ele>
        <time>2021-02-14T07:37:16Z</time>
      </trkpt>
      <trkpt lat="46.042295191437006" lon="9.402688890695572">
        <ele>1355.6199999999999</ele>
        <time>2021-02-14T07:37:20Z</time>
      </trkpt>
      <trkpt lat="46.042293515056372" lon="9.402693500742316">
        <ele>1355.3800000000001</ele>
        <time>2021-02-14T07:37:33Z</time>
      </trkpt>
      <trkpt lat="46.042292173951864" lon="9.402695931494236">
        <ele>1355</ele>
        <time>2021-02-14T07:37:48Z</time>
      </trkpt>
      <trkpt lat="46.042294437065721" lon="9.402695009484887">
        <ele>1355.23</ele>
        <time>2021-02-14T07:38:04Z</time>
      </trkpt>
      <trkpt lat="46.042297957465053" lon="9.402691991999745">
        <ele>1355.3199999999999</ele>
        <time>2021-02-14T07:38:25Z</time>
      </trkpt>
      <trkpt lat="46.042297538369894" lon="9.402686292305589">
        <ele>1355.3199999999999</ele>
        <time>2021-02-14T07:38:41Z</time>
      </trkpt>
      <trkpt lat="46.042291335761547" lon="9.402686292305589">
        <ele>1355.29</ele>
        <time>2021-02-14T07:39:00Z</time>
      </trkpt>
      <trkpt lat="46.042290665209293" lon="9.402685621753335">
        <ele>1355.1800000000001</ele>
        <time>2021-02-14T07:39:19Z</time>
      </trkpt>
      <trkpt lat="46.042293095961213" lon="9.402686208486557">
        <ele>1355.3699999999999</ele>
        <time>2021-02-14T07:39:38Z</time>
      </trkpt>
      <trkpt lat="46.042300807312131" lon="9.4026805087924">
        <ele>1355.27</ele>
        <time>2021-02-14T07:40:02Z</time>
      </trkpt>
      <trkpt lat="46.042294772341847" lon="9.402680592611432">
        <ele>1355.53</ele>
        <time>2021-02-14T07:40:25Z</time>
      </trkpt>
      <trkpt lat="46.042303238064051" lon="9.402681346982718">
        <ele>1355.53</ele>
        <time>2021-02-14T07:40:44Z</time>
      </trkpt>
      <trkpt lat="46.042304579168558" lon="9.402677910402417">
        <ele>1355.5</ele>
        <time>2021-02-14T07:41:03Z</time>
      </trkpt>
      <trkpt lat="46.04230172932148" lon="9.402683610096574">
        <ele>1355.4000000000001</ele>
        <time>2021-02-14T07:41:22Z</time>
      </trkpt>
      <trkpt lat="46.042311871424317" lon="9.402714623138309">
        <ele>1355.52</ele>
        <time>2021-02-14T07:41:37Z</time>
      </trkpt>
      <trkpt lat="46.042314302176237" lon="9.402710599824786">
        <ele>1354.8399999999999</ele>
        <time>2021-02-14T07:42:02Z</time>
      </trkpt>
      <trkpt lat="46.04230809956789" lon="9.402709007263184">
        <ele>1355.4100000000001</ele>
        <time>2021-02-14T07:42:16Z</time>
      </trkpt>
      <trkpt lat="46.042290162295103" lon="9.402691656723619">
        <ele>1355.72</ele>
        <time>2021-02-14T07:42:30Z</time>
      </trkpt>
      <trkpt lat="46.042293179780245" lon="9.402683107182384">
        <ele>1355.71</ele>
        <time>2021-02-14T07:42:39Z</time>
      </trkpt>
      <trkpt lat="46.042296783998609" lon="9.402684448286891">
        <ele>1355.48</ele>
        <time>2021-02-14T07:42:55Z</time>
      </trkpt>
      <trkpt lat="46.042309189215302" lon="9.402714958414435">
        <ele>1355.6800000000001</ele>
        <time>2021-02-14T07:43:04Z</time>
      </trkpt>
      <trkpt lat="46.042326455935836" lon="9.402728453278542">
        <ele>1355.6900000000001</ele>
        <time>2021-02-14T07:43:19Z</time>
      </trkpt>
      <trkpt lat="46.04231589473784" lon="9.402721412479878">
        <ele>1355.9300000000001</ele>
        <time>2021-02-14T07:43:37Z</time>
      </trkpt>
      <trkpt lat="46.042312709614635" lon="9.402723759412766">
        <ele>1355.6800000000001</ele>
        <time>2021-02-14T07:43:48Z</time>
      </trkpt>
      <trkpt lat="46.042312290519476" lon="9.402731889858842">
        <ele>1355.6600000000001</ele>
        <time>2021-02-14T07:43:58Z</time>
      </trkpt>
      <trkpt lat="46.042306423187256" lon="9.402743624523282">
        <ele>1355.6600000000001</ele>
        <time>2021-02-14T07:44:03Z</time>
      </trkpt>
      <trkpt lat="46.042307009920478" lon="9.40274546854198">
        <ele>1355.5699999999999</ele>
        <time>2021-02-14T07:44:10Z</time>
      </trkpt>
      <trkpt lat="46.042313128709793" lon="9.402750162407756">
        <ele>1355.5599999999999</ele>
        <time>2021-02-14T07:44:17Z</time>
      </trkpt>
      <trkpt lat="46.042308015748858" lon="9.402744378894568">
        <ele>1355.52</ele>
        <time>2021-02-14T07:44:37Z</time>
      </trkpt>
      <trkpt lat="46.042308770120144" lon="9.402742786332965">
        <ele>1355.6300000000001</ele>
        <time>2021-02-14T07:44:59Z</time>
      </trkpt>
      <trkpt lat="46.042309692129493" lon="9.40274203196168">
        <ele>1355.55</ele>
        <time>2021-02-14T07:45:02Z</time>
      </trkpt>
      <trkpt lat="46.042330227792263" lon="9.402746725827456">
        <ele>1355.6700000000001</ele>
        <time>2021-02-14T07:45:12Z</time>
      </trkpt>
      <trkpt lat="46.042330311611295" lon="9.402747480198741">
        <ele>1355.8599999999999</ele>
        <time>2021-02-14T07:45:26Z</time>
      </trkpt>
      <trkpt lat="46.042329138144851" lon="9.402744797989726">
        <ele>1355.75</ele>
        <time>2021-02-14T07:45:28Z</time>
      </trkpt>
      <trkpt lat="46.042294520884752" lon="9.402688220143318">
        <ele>1355.4300000000001</ele>
        <time>2021-02-14T07:45:37Z</time>
      </trkpt>
      <trkpt lat="46.042294017970562" lon="9.402693919837475">
        <ele>1355.23</ele>
        <time>2021-02-14T07:45:45Z</time>
      </trkpt>
      <trkpt lat="46.042293179780245" lon="9.402692997828126">
        <ele>1354.99</ele>
        <time>2021-02-14T07:45:50Z</time>
      </trkpt>
      <trkpt lat="46.042232327163219" lon="9.402697188779712">
        <ele>1355.6400000000001</ele>
        <time>2021-02-14T07:45:59Z</time>
      </trkpt>
      <trkpt lat="46.042155213654041" lon="9.402714958414435">
        <ele>1355.8</ele>
        <time>2021-02-14T07:46:10Z</time>
      </trkpt>
      <trkpt lat="46.042145742103457" lon="9.40272250212729">
        <ele>1355.8199999999999</ele>
        <time>2021-02-14T07:46:11Z</time>
      </trkpt>
      <trkpt lat="46.042111627757549" lon="9.402779750525951">
        <ele>1355.7</ele>
        <time>2021-02-14T07:46:16Z</time>
      </trkpt>
      <trkpt lat="46.04208916425705" lon="9.402769524604082">
        <ele>1355.8599999999999</ele>
        <time>2021-02-14T07:46:21Z</time>
      </trkpt>
      <trkpt lat="46.04209260083735" lon="9.402782935649157">
        <ele>1356.1600000000001</ele>
        <time>2021-02-14T07:46:26Z</time>
      </trkpt>
      <trkpt lat="46.042064521461725" lon="9.402759801596403">
        <ele>1355.97</ele>
        <time>2021-02-14T07:46:35Z</time>
      </trkpt>
      <trkpt lat="46.042036442086101" lon="9.402751671150327">
        <ele>1356.25</ele>
        <time>2021-02-14T07:46:47Z</time>
      </trkpt>
      <trkpt lat="46.042002914473414" lon="9.402746642008424">
        <ele>1356.8800000000001</ele>
        <time>2021-02-14T07:46:55Z</time>
      </trkpt>
      <trkpt lat="46.042005512863398" lon="9.402745384722948">
        <ele>1356.8900000000001</ele>
        <time>2021-02-14T07:47:03Z</time>
      </trkpt>
      <trkpt lat="46.042005512863398" lon="9.402745384722948">
        <ele>1356.76</ele>
        <time>2021-02-14T07:47:04Z</time>
      </trkpt>
      <trkpt lat="46.042005009949207" lon="9.402742953971028">
        <ele>1356.76</ele>
        <time>2021-02-14T07:47:10Z</time>
      </trkpt>
      <trkpt lat="46.042009871453047" lon="9.402743205428124">
        <ele>1356.5599999999999</ele>
        <time>2021-02-14T07:47:16Z</time>
      </trkpt>
      <trkpt lat="46.042020348832011" lon="9.402751503512263">
        <ele>1356.98</ele>
        <time>2021-02-14T07:47:24Z</time>
      </trkpt>
      <trkpt lat="46.042017750442028" lon="9.402748821303248">
        <ele>1356.9000000000001</ele>
        <time>2021-02-14T07:47:28Z</time>
      </trkpt>
      <trkpt lat="46.042003752663732" lon="9.402753850445151">
        <ele>1357.0899999999999</ele>
        <time>2021-02-14T07:47:32Z</time>
      </trkpt>
      <trkpt lat="46.042002830654383" lon="9.402752676978707">
        <ele>1357.25</ele>
        <time>2021-02-14T07:47:34Z</time>
      </trkpt>
      <trkpt lat="46.04200073517859" lon="9.402746139094234">
        <ele>1357.3</ele>
        <time>2021-02-14T07:47:36Z</time>
      </trkpt>
      <trkpt lat="46.04201003909111" lon="9.402741445228458">
        <ele>1357.1700000000001</ele>
        <time>2021-02-14T07:47:44Z</time>
      </trkpt>
      <trkpt lat="46.042009619995952" lon="9.402734991163015">
        <ele>1357.27</ele>
        <time>2021-02-14T07:47:50Z</time>
      </trkpt>
      <trkpt lat="46.042031329125166" lon="9.402733817696571">
        <ele>1357.26</ele>
        <time>2021-02-14T07:47:56Z</time>
      </trkpt>
      <trkpt lat="46.04201540350914" lon="9.402732979506254">
        <ele>1357.1900000000001</ele>
        <time>2021-02-14T07:48:01Z</time>
      </trkpt>
      <trkpt lat="46.042023533955216" lon="9.402736416086555">
        <ele>1357.23</ele>
        <time>2021-02-14T07:48:10Z</time>
      </trkpt>
      <trkpt lat="46.042017331346869" lon="9.402729626744986">
        <ele>1357.28</ele>
        <time>2021-02-14T07:48:16Z</time>
      </trkpt>
      <trkpt lat="46.041993107646704" lon="9.402707414701581">
        <ele>1357.1400000000001</ele>
        <time>2021-02-14T07:48:27Z</time>
      </trkpt>
      <trkpt lat="46.041951533406973" lon="9.402704564854503">
        <ele>1357.55</ele>
        <time>2021-02-14T07:48:31Z</time>
      </trkpt>
      <trkpt lat="46.041936529800296" lon="9.402704145759344">
        <ele>1357.6099999999999</ele>
        <time>2021-02-14T07:48:32Z</time>
      </trkpt>
      <trkpt lat="46.041896715760231" lon="9.402705235406756">
        <ele>1357.97</ele>
        <time>2021-02-14T07:48:36Z</time>
      </trkpt>
      <trkpt lat="46.041885986924171" lon="9.402707582339644">
        <ele>1358.3499999999999</ele>
        <time>2021-02-14T07:48:37Z</time>
      </trkpt>
      <trkpt lat="46.04183460585773" lon="9.402742953971028">
        <ele>1359.3399999999999</ele>
        <time>2021-02-14T07:48:44Z</time>
      </trkpt>
      <trkpt lat="46.041760258376598" lon="9.402784109115601">
        <ele>1360.79</ele>
        <time>2021-02-14T07:48:53Z</time>
      </trkpt>
      <trkpt lat="46.041745841503143" lon="9.402799028903246">
        <ele>1361.1300000000001</ele>
        <time>2021-02-14T07:48:55Z</time>
      </trkpt>
      <trkpt lat="46.041736453771591" lon="9.402805315330625">
        <ele>1361.24</ele>
        <time>2021-02-14T07:48:56Z</time>
      </trkpt>
      <trkpt lat="46.041723545640707" lon="9.402801124379039">
        <ele>1361.4000000000001</ele>
        <time>2021-02-14T07:48:57Z</time>
      </trkpt>
      <trkpt lat="46.041663698852062" lon="9.402825012803078">
        <ele>1362.4200000000001</ele>
        <time>2021-02-14T07:49:03Z</time>
      </trkpt>
      <trkpt lat="46.0416513774544" lon="9.402820654213429">
        <ele>1362.4000000000001</ele>
        <time>2021-02-14T07:49:04Z</time>
      </trkpt>
      <trkpt lat="46.041622711345553" lon="9.402838759124279">
        <ele>1362.98</ele>
        <time>2021-02-14T07:49:08Z</time>
      </trkpt>
      <trkpt lat="46.041614413261414" lon="9.40284370444715">
        <ele>1363.1400000000001</ele>
        <time>2021-02-14T07:49:09Z</time>
      </trkpt>
      <trkpt lat="46.04160251095891" lon="9.402836747467518">
        <ele>1363.2</ele>
        <time>2021-02-14T07:49:10Z</time>
      </trkpt>
      <trkpt lat="46.041564038023353" lon="9.402848901227117">
        <ele>1363.95</ele>
        <time>2021-02-14T07:49:15Z</time>
      </trkpt>
      <trkpt lat="46.041509807109833" lon="9.402846721932292">
        <ele>1364.73</ele>
        <time>2021-02-14T07:49:21Z</time>
      </trkpt>
      <trkpt lat="46.041447445750237" lon="9.402865162119269">
        <ele>1365.5899999999999</ele>
        <time>2021-02-14T07:49:29Z</time>
      </trkpt>
      <trkpt lat="46.041443841531873" lon="9.402873124927282">
        <ele>1365.6199999999999</ele>
        <time>2021-02-14T07:49:30Z</time>
      </trkpt>
      <trkpt lat="46.041396064683795" lon="9.402906987816095">
        <ele>1366.1500000000001</ele>
        <time>2021-02-14T07:49:37Z</time>
      </trkpt>
      <trkpt lat="46.041376618668437" lon="9.402920147404075">
        <ele>1366.28</ele>
        <time>2021-02-14T07:49:40Z</time>
      </trkpt>
      <trkpt lat="46.041361195966601" lon="9.402937917038798">
        <ele>1366.55</ele>
        <time>2021-02-14T07:49:42Z</time>
      </trkpt>
      <trkpt lat="46.041350131854415" lon="9.402936743572354">
        <ele>1366.6099999999999</ele>
        <time>2021-02-14T07:49:43Z</time>
      </trkpt>
      <trkpt lat="46.041333619505167" lon="9.402963817119598">
        <ele>1366.9100000000001</ele>
        <time>2021-02-14T07:49:46Z</time>
      </trkpt>
      <trkpt lat="46.04132691398263" lon="9.402974210679531">
        <ele>1367</ele>
        <time>2021-02-14T07:49:47Z</time>
      </trkpt>
      <trkpt lat="46.041317442432046" lon="9.402972115203738">
        <ele>1367.1500000000001</ele>
        <time>2021-02-14T07:49:48Z</time>
      </trkpt>
      <trkpt lat="46.041260445490479" lon="9.403035817667842">
        <ele>1368.01</ele>
        <time>2021-02-14T07:49:56Z</time>
      </trkpt>
      <trkpt lat="46.041245777159929" lon="9.403058784082532">
        <ele>1368.1900000000001</ele>
        <time>2021-02-14T07:49:58Z</time>
      </trkpt>
      <trkpt lat="46.041234713047743" lon="9.403063226491213">
        <ele>1368.3299999999999</ele>
        <time>2021-02-14T07:49:59Z</time>
      </trkpt>
      <trkpt lat="46.041225409135222" lon="9.403084181249142">
        <ele>1368.4000000000001</ele>
        <time>2021-02-14T07:50:01Z</time>
      </trkpt>
      <trkpt lat="46.041209315881133" lon="9.403102705255151">
        <ele>1368.6500000000001</ele>
        <time>2021-02-14T07:50:03Z</time>
      </trkpt>
      <trkpt lat="46.041149385273457" lon="9.403138076886535">
        <ele>1369.4200000000001</ele>
        <time>2021-02-14T07:50:11Z</time>
      </trkpt>
      <trkpt lat="46.041141506284475" lon="9.403157606720924">
        <ele>1369.7</ele>
        <time>2021-02-14T07:50:13Z</time>
      </trkpt>
      <trkpt lat="46.041085096076131" lon="9.403212172910571">
        <ele>1370.6800000000001</ele>
        <time>2021-02-14T07:50:21Z</time>
      </trkpt>
      <trkpt lat="46.041037989780307" lon="9.403256680816412">
        <ele>1371.3399999999999</ele>
        <time>2021-02-14T07:50:28Z</time>
      </trkpt>
      <trkpt lat="46.041016532108188" lon="9.403271516785026">
        <ele>1371.77</ele>
        <time>2021-02-14T07:50:31Z</time>
      </trkpt>
      <trkpt lat="46.040946627035737" lon="9.40328442491591">
        <ele>1372.6400000000001</ele>
        <time>2021-02-14T07:50:38Z</time>
      </trkpt>
      <trkpt lat="46.040904885157943" lon="9.4033073913306">
        <ele>1373.1900000000001</ele>
        <time>2021-02-14T07:50:43Z</time>
      </trkpt>
      <trkpt lat="46.040858197957277" lon="9.403329603374004">
        <ele>1373.73</ele>
        <time>2021-02-14T07:50:49Z</time>
      </trkpt>
      <trkpt lat="46.040814695879817" lon="9.403338069096208">
        <ele>1374.1800000000001</ele>
        <time>2021-02-14T07:50:53Z</time>
      </trkpt>
      <trkpt lat="46.040788209065795" lon="9.403346199542284">
        <ele>1374.6700000000001</ele>
        <time>2021-02-14T07:50:56Z</time>
      </trkpt>
      <trkpt lat="46.04077429510653" lon="9.403349971398711">
        <ele>1374.76</ele>
        <time>2021-02-14T07:50:57Z</time>
      </trkpt>
      <trkpt lat="46.040742108598351" lon="9.403378050774336">
        <ele>1375.0799999999999</ele>
        <time>2021-02-14T07:51:01Z</time>
      </trkpt>
      <trkpt lat="46.040730122476816" lon="9.403393641114235">
        <ele>1375.29</ele>
        <time>2021-02-14T07:51:03Z</time>
      </trkpt>
      <trkpt lat="46.040712101384997" lon="9.403440831229091">
        <ele>1375.96</ele>
        <time>2021-02-14T07:51:08Z</time>
      </trkpt>
      <trkpt lat="46.040692571550608" lon="9.403459019958973">
        <ele>1376.52</ele>
        <time>2021-02-14T07:51:11Z</time>
      </trkpt>
      <trkpt lat="46.04068192653358" lon="9.403461283072829">
        <ele>1376.27</ele>
        <time>2021-02-14T07:51:12Z</time>
      </trkpt>
      <trkpt lat="46.040671030059457" lon="9.40347452647984">
        <ele>1376.8099999999999</ele>
        <time>2021-02-14T07:51:13Z</time>
      </trkpt>
      <trkpt lat="46.040635071694851" lon="9.403511071577668">
        <ele>1377.01</ele>
        <time>2021-02-14T07:51:18Z</time>
      </trkpt>
      <trkpt lat="46.040626857429743" lon="9.40351702272892">
        <ele>1377.23</ele>
        <time>2021-02-14T07:51:19Z</time>
      </trkpt>
      <trkpt lat="46.040597772225738" lon="9.40354635939002">
        <ele>1377.51</ele>
        <time>2021-02-14T07:51:23Z</time>
      </trkpt>
      <trkpt lat="46.040577404201031" lon="9.403559854254127">
        <ele>1378.0899999999999</ele>
        <time>2021-02-14T07:51:25Z</time>
      </trkpt>
      <trkpt lat="46.040549911558628" lon="9.403576953336597">
        <ele>1378.3099999999999</ele>
        <time>2021-02-14T07:51:28Z</time>
      </trkpt>
      <trkpt lat="46.040537757799029" lon="9.403591034933925">
        <ele>1378.5899999999999</ele>
        <time>2021-02-14T07:51:30Z</time>
      </trkpt>
      <trkpt lat="46.040506660938263" lon="9.403618192300201">
        <ele>1379.02</ele>
        <time>2021-02-14T07:51:35Z</time>
      </trkpt>
      <trkpt lat="46.04048939421773" lon="9.403614839538932">
        <ele>1379.1800000000001</ele>
        <time>2021-02-14T07:51:36Z</time>
      </trkpt>
      <trkpt lat="46.040473720058799" lon="9.403620203956962">
        <ele>1379.3499999999999</ele>
        <time>2021-02-14T07:51:37Z</time>
      </trkpt>
      <trkpt lat="46.040449915453792" lon="9.403642751276493">
        <ele>1380.4400000000001</ele>
        <time>2021-02-14T07:51:43Z</time>
      </trkpt>
      <trkpt lat="46.040409514680505" lon="9.4036631193012">
        <ele>1380.8699999999999</ele>
        <time>2021-02-14T07:51:48Z</time>
      </trkpt>
      <trkpt lat="46.040397947654128" lon="9.403665130957961">
        <ele>1381.0899999999999</ele>
        <time>2021-02-14T07:51:49Z</time>
      </trkpt>
      <trkpt lat="46.040388308465481" lon="9.403670746833086">
        <ele>1381.25</ele>
        <time>2021-02-14T07:51:50Z</time>
      </trkpt>
      <trkpt lat="46.040369616821408" lon="9.403700502589345">
        <ele>1381.2</ele>
        <time>2021-02-14T07:51:54Z</time>
      </trkpt>
      <trkpt lat="46.040360983461142" lon="9.40371198579669">
        <ele>1381.1500000000001</ele>
        <time>2021-02-14T07:51:55Z</time>
      </trkpt>
      <trkpt lat="46.040351092815399" lon="9.403719864785671">
        <ele>1381.0599999999999</ele>
        <time>2021-02-14T07:51:56Z</time>
      </trkpt>
      <trkpt lat="46.040329551324248" lon="9.403737550601363">
        <ele>1380.8900000000001</ele>
        <time>2021-02-14T07:51:58Z</time>
      </trkpt>
      <trkpt lat="46.040320079773664" lon="9.403750291094184">
        <ele>1380.8599999999999</ele>
        <time>2021-02-14T07:51:59Z</time>
      </trkpt>
      <trkpt lat="46.040307674556971" lon="9.403755739331245">
        <ele>1380.8399999999999</ele>
        <time>2021-02-14T07:52:00Z</time>
      </trkpt>
      <trkpt lat="46.040195440873504" lon="9.403781052678824">
        <ele>1381</ele>
        <time>2021-02-14T07:52:11Z</time>
      </trkpt>
      <trkpt lat="46.040181526914239" lon="9.403775436803699">
        <ele>1381.21</ele>
        <time>2021-02-14T07:52:12Z</time>
      </trkpt>
      <trkpt lat="46.040163924917579" lon="9.403772167861462">
        <ele>1381.3199999999999</ele>
        <time>2021-02-14T07:52:14Z</time>
      </trkpt>
      <trkpt lat="46.040153196081519" lon="9.403769820928574">
        <ele>1381.3900000000001</ele>
        <time>2021-02-14T07:52:15Z</time>
      </trkpt>
      <trkpt lat="46.040045823901892" lon="9.403713075444102">
        <ele>1383.03</ele>
        <time>2021-02-14T07:52:28Z</time>
      </trkpt>
      <trkpt lat="46.039974745362997" lon="9.403697066009045">
        <ele>1384.6099999999999</ele>
        <time>2021-02-14T07:52:39Z</time>
      </trkpt>
      <trkpt lat="46.039869049564004" lon="9.403725815936923">
        <ele>1385.8</ele>
        <time>2021-02-14T07:52:52Z</time>
      </trkpt>
      <trkpt lat="46.039832253009081" lon="9.403742412105203">
        <ele>1386.22</ele>
        <time>2021-02-14T07:52:58Z</time>
      </trkpt>
      <trkpt lat="46.039758743718266" lon="9.403782980516553">
        <ele>1387.26</ele>
        <time>2021-02-14T07:53:07Z</time>
      </trkpt>
      <trkpt lat="46.0396758466959" lon="9.4038150832057">
        <ele>1388.2</ele>
        <time>2021-02-14T07:53:21Z</time>
      </trkpt>
      <trkpt lat="46.039673835039139" lon="9.403813742101193">
        <ele>1388.3399999999999</ele>
        <time>2021-02-14T07:53:37Z</time>
      </trkpt>
      <trkpt lat="46.039672577753663" lon="9.403816759586334">
        <ele>1388.1700000000001</ele>
        <time>2021-02-14T07:53:48Z</time>
      </trkpt>
      <trkpt lat="46.039678864181042" lon="9.403811311349273">
        <ele>1388.1600000000001</ele>
        <time>2021-02-14T07:54:04Z</time>
      </trkpt>
      <trkpt lat="46.039686910808086" lon="9.403801253065467">
        <ele>1388.24</ele>
        <time>2021-02-14T07:54:20Z</time>
      </trkpt>
      <trkpt lat="46.039685318246484" lon="9.403796559199691">
        <ele>1387.6700000000001</ele>
        <time>2021-02-14T07:54:38Z</time>
      </trkpt>
      <trkpt lat="46.039680289104581" lon="9.403794128447771">
        <ele>1388.8900000000001</ele>
        <time>2021-02-14T07:54:52Z</time>
      </trkpt>
      <trkpt lat="46.039680624380708" lon="9.403794715180993">
        <ele>1388.6099999999999</ele>
        <time>2021-02-14T07:55:03Z</time>
      </trkpt>
      <trkpt lat="46.039684899151325" lon="9.403819274157286">
        <ele>1388.3099999999999</ele>
        <time>2021-02-14T07:55:17Z</time>
      </trkpt>
      <trkpt lat="46.039655646309257" lon="9.403835954144597">
        <ele>1388.5899999999999</ele>
        <time>2021-02-14T07:55:28Z</time>
      </trkpt>
      <trkpt lat="46.039690347388387" lon="9.403814328834415">
        <ele>1388.52</ele>
        <time>2021-02-14T07:55:44Z</time>
      </trkpt>
      <trkpt lat="46.039665788412094" lon="9.403827823698521">
        <ele>1388.76</ele>
        <time>2021-02-14T07:55:59Z</time>
      </trkpt>
      <trkpt lat="46.039661597460508" lon="9.40384048037231">
        <ele>1388.3800000000001</ele>
        <time>2021-02-14T07:56:19Z</time>
      </trkpt>
      <trkpt lat="46.039644749835134" lon="9.403831847012043">
        <ele>1388.27</ele>
        <time>2021-02-14T07:56:31Z</time>
      </trkpt>
      <trkpt lat="46.039646174758673" lon="9.403822459280491">
        <ele>1387.72</ele>
        <time>2021-02-14T07:56:41Z</time>
      </trkpt>
      <trkpt lat="46.039646090939641" lon="9.403829332441092">
        <ele>1388.6600000000001</ele>
        <time>2021-02-14T07:56:59Z</time>
      </trkpt>
      <trkpt lat="46.039633098989725" lon="9.403827488422394">
        <ele>1387.77</ele>
        <time>2021-02-14T07:57:22Z</time>
      </trkpt>
      <trkpt lat="46.039615329355001" lon="9.403825979679823">
        <ele>1388.5</ele>
        <time>2021-02-14T07:57:36Z</time>
      </trkpt>
      <trkpt lat="46.039661932736635" lon="9.403783567249775">
        <ele>1388.3599999999999</ele>
        <time>2021-02-14T07:57:47Z</time>
      </trkpt>
      <trkpt lat="46.039623878896236" lon="9.40382287837565">
        <ele>1388.52</ele>
        <time>2021-02-14T07:57:56Z</time>
      </trkpt>
      <trkpt lat="46.039578784257174" lon="9.40384928137064">
        <ele>1389.28</ele>
        <time>2021-02-14T07:58:05Z</time>
      </trkpt>
      <trkpt lat="46.039552465081215" lon="9.403848526999354">
        <ele>1389.1700000000001</ele>
        <time>2021-02-14T07:58:17Z</time>
      </trkpt>
      <trkpt lat="46.039556404575706" lon="9.403860345482826">
        <ele>1389.6700000000001</ele>
        <time>2021-02-14T07:58:32Z</time>
      </trkpt>
      <trkpt lat="46.039552632719278" lon="9.403869146481156">
        <ele>1389.02</ele>
        <time>2021-02-14T07:58:55Z</time>
      </trkpt>
      <trkpt lat="46.039559924975038" lon="9.403886832296848">
        <ele>1389.4400000000001</ele>
        <time>2021-02-14T07:59:06Z</time>
      </trkpt>
      <trkpt lat="46.039506113156676" lon="9.403896806761622">
        <ele>1389.71</ele>
        <time>2021-02-14T07:59:16Z</time>
      </trkpt>
      <trkpt lat="46.039496976882219" lon="9.403905440121889">
        <ele>1389.9400000000001</ele>
        <time>2021-02-14T07:59:17Z</time>
      </trkpt>
      <trkpt lat="46.039487924426794" lon="9.403912145644426">
        <ele>1389.97</ele>
        <time>2021-02-14T07:59:18Z</time>
      </trkpt>
      <trkpt lat="46.039447272196412" lon="9.403919102624059">
        <ele>1390.6600000000001</ele>
        <time>2021-02-14T07:59:22Z</time>
      </trkpt>
      <trkpt lat="46.039365464821458" lon="9.40396218560636">
        <ele>1391.47</ele>
        <time>2021-02-14T07:59:32Z</time>
      </trkpt>
      <trkpt lat="46.039267061278224" lon="9.404050279408693">
        <ele>1392.0799999999999</ele>
        <time>2021-02-14T07:59:44Z</time>
      </trkpt>
      <trkpt lat="46.039181649684906" lon="9.404110545292497">
        <ele>1392.3499999999999</ele>
        <time>2021-02-14T07:59:53Z</time>
      </trkpt>
      <trkpt lat="46.039169831201434" lon="9.404117669910193">
        <ele>1392.45</ele>
        <time>2021-02-14T07:59:54Z</time>
      </trkpt>
      <trkpt lat="46.039156252518296" lon="9.404122196137905">
        <ele>1392.5</ele>
        <time>2021-02-14T07:59:55Z</time>
      </trkpt>
      <trkpt lat="46.039044186472893" lon="9.404136277735233">
        <ele>1393.52</ele>
        <time>2021-02-14T08:00:05Z</time>
      </trkpt>
      <trkpt lat="46.038955086842179" lon="9.404127644374967">
        <ele>1395.6400000000001</ele>
        <time>2021-02-14T08:00:20Z</time>
      </trkpt>
      <trkpt lat="46.038837907835841" lon="9.40413854084909">
        <ele>1396.9400000000001</ele>
        <time>2021-02-14T08:00:35Z</time>
      </trkpt>
      <trkpt lat="46.038687536492944" lon="9.404195789247751">
        <ele>1398.8399999999999</ele>
        <time>2021-02-14T08:00:55Z</time>
      </trkpt>
      <trkpt lat="46.038564406335354" lon="9.404202913865447">
        <ele>1400.24</ele>
        <time>2021-02-14T08:01:10Z</time>
      </trkpt>
      <trkpt lat="46.038477318361402" lon="9.404076347127557">
        <ele>1402.28</ele>
        <time>2021-02-14T08:01:27Z</time>
      </trkpt>
      <trkpt lat="46.038397355005145" lon="9.40398221835494">
        <ele>1403.3</ele>
        <time>2021-02-14T08:01:38Z</time>
      </trkpt>
      <trkpt lat="46.038313703611493" lon="9.403867973014712">
        <ele>1404.6300000000001</ele>
        <time>2021-02-14T08:01:52Z</time>
      </trkpt>
      <trkpt lat="46.038230806589127" lon="9.403805444017053">
        <ele>1406.0999999999999</ele>
        <time>2021-02-14T08:02:06Z</time>
      </trkpt>
      <trkpt lat="46.038190992549062" lon="9.403801504522562">
        <ele>1406.52</ele>
        <time>2021-02-14T08:02:10Z</time>
      </trkpt>
      <trkpt lat="46.038093930110335" lon="9.40380041487515">
        <ele>1407.5999999999999</ele>
        <time>2021-02-14T08:02:22Z</time>
      </trkpt>
      <trkpt lat="46.037990329787135" lon="9.403805192559958">
        <ele>1409.02</ele>
        <time>2021-02-14T08:02:35Z</time>
      </trkpt>
      <trkpt lat="46.037876000627875" lon="9.403839893639088">
        <ele>1410.8</ele>
        <time>2021-02-14T08:02:48Z</time>
      </trkpt>
      <trkpt lat="46.037777429446578" lon="9.403892867267132">
        <ele>1412.8800000000001</ele>
        <time>2021-02-14T08:03:00Z</time>
      </trkpt>
      <trkpt lat="46.037655891850591" lon="9.403889598324895">
        <ele>1412.3800000000001</ele>
        <time>2021-02-14T08:03:11Z</time>
      </trkpt>
      <trkpt lat="46.037642899900675" lon="9.403888089582324">
        <ele>1412.4300000000001</ele>
        <time>2021-02-14T08:03:12Z</time>
      </trkpt>
      <trkpt lat="46.037545083090663" lon="9.403921198099852">
        <ele>1412.9400000000001</ele>
        <time>2021-02-14T08:03:22Z</time>
      </trkpt>
      <trkpt lat="46.03753418661654" lon="9.403927652165294">
        <ele>1412.8299999999999</ele>
        <time>2021-02-14T08:03:23Z</time>
      </trkpt>
      <trkpt lat="46.037521613761783" lon="9.403930753469467">
        <ele>1412.6199999999999</ele>
        <time>2021-02-14T08:03:24Z</time>
      </trkpt>
      <trkpt lat="46.037353808060288" lon="9.40396654419601">
        <ele>1413.21</ele>
        <time>2021-02-14T08:03:39Z</time>
      </trkpt>
      <trkpt lat="46.037254985421896" lon="9.40398171544075">
        <ele>1413.52</ele>
        <time>2021-02-14T08:03:50Z</time>
      </trkpt>
      <trkpt lat="46.037152139469981" lon="9.403989175334573">
        <ele>1413.5699999999999</ele>
        <time>2021-02-14T08:04:00Z</time>
      </trkpt>
      <trkpt lat="46.036996487528086" lon="9.40402714535594">
        <ele>1413.46</ele>
        <time>2021-02-14T08:04:15Z</time>
      </trkpt>
      <trkpt lat="46.036966061219573" lon="9.404052207246423">
        <ele>1413.78</ele>
        <time>2021-02-14T08:04:20Z</time>
      </trkpt>
      <trkpt lat="46.036984333768487" lon="9.404026726260781">
        <ele>1413.8299999999999</ele>
        <time>2021-02-14T08:04:29Z</time>
      </trkpt>
      <trkpt lat="46.036934712901711" lon="9.40402421168983">
        <ele>1413.6099999999999</ele>
        <time>2021-02-14T08:04:41Z</time>
      </trkpt>
      <trkpt lat="46.036871010437608" lon="9.404033431783319">
        <ele>1413.6600000000001</ele>
        <time>2021-02-14T08:04:47Z</time>
      </trkpt>
      <trkpt lat="46.036773193627596" lon="9.404057236388326">
        <ele>1413.9300000000001</ele>
        <time>2021-02-14T08:04:57Z</time>
      </trkpt>
      <trkpt lat="46.036687279120088" lon="9.404094116762281">
        <ele>1414.76</ele>
        <time>2021-02-14T08:05:06Z</time>
      </trkpt>
      <trkpt lat="46.036650147289038" lon="9.404138624668121">
        <ele>1415.47</ele>
        <time>2021-02-14T08:05:16Z</time>
      </trkpt>
      <trkpt lat="46.036632377654314" lon="9.404166620224714">
        <ele>1416.4300000000001</ele>
        <time>2021-02-14T08:05:26Z</time>
      </trkpt>
      <trkpt lat="46.036601699888706" lon="9.404211547225714">
        <ele>1417.3900000000001</ele>
        <time>2021-02-14T08:05:37Z</time>
      </trkpt>
      <trkpt lat="46.0365882050246" lon="9.404212553054094">
        <ele>1417.8599999999999</ele>
        <time>2021-02-14T08:05:48Z</time>
      </trkpt>
      <trkpt lat="46.036562053486705" lon="9.404247589409351">
        <ele>1418.5899999999999</ele>
        <time>2021-02-14T08:05:58Z</time>
      </trkpt>
      <trkpt lat="46.036573788151145" lon="9.404249684885144">
        <ele>1418.24</ele>
        <time>2021-02-14T08:06:15Z</time>
      </trkpt>
      <trkpt lat="46.036547971889377" lon="9.404288744553924">
        <ele>1418.1800000000001</ele>
        <time>2021-02-14T08:06:20Z</time>
      </trkpt>
      <trkpt lat="46.036502122879028" lon="9.404341802001">
        <ele>1418.6300000000001</ele>
        <time>2021-02-14T08:06:28Z</time>
      </trkpt>
      <trkpt lat="46.036417633295059" lon="9.404446994885802">
        <ele>1419.1600000000001</ele>
        <time>2021-02-14T08:06:39Z</time>
      </trkpt>
      <trkpt lat="46.036385279148817" lon="9.404452610760927">
        <ele>1418.8499999999999</ele>
        <time>2021-02-14T08:06:44Z</time>
      </trkpt>
      <trkpt lat="46.036360468715429" lon="9.404461244121194">
        <ele>1419</ele>
        <time>2021-02-14T08:06:46Z</time>
      </trkpt>
      <trkpt lat="46.036349069327116" lon="9.404464848339558">
        <ele>1418.8</ele>
        <time>2021-02-14T08:06:47Z</time>
      </trkpt>
      <trkpt lat="46.036336747929454" lon="9.404466105625033">
        <ele>1418.78</ele>
        <time>2021-02-14T08:06:48Z</time>
      </trkpt>
      <trkpt lat="46.036325516179204" lon="9.404465267434716">
        <ele>1418.8399999999999</ele>
        <time>2021-02-14T08:06:49Z</time>
      </trkpt>
      <trkpt lat="46.036315960809588" lon="9.404466021806002">
        <ele>1418.6600000000001</ele>
        <time>2021-02-14T08:06:50Z</time>
      </trkpt>
      <trkpt lat="46.036224262788892" lon="9.404468284919858">
        <ele>1418.1800000000001</ele>
        <time>2021-02-14T08:06:59Z</time>
      </trkpt>
      <trkpt lat="46.036132564768195" lon="9.404533496126533">
        <ele>1417.6099999999999</ele>
        <time>2021-02-14T08:07:10Z</time>
      </trkpt>
      <trkpt lat="46.036068527027965" lon="9.404550427570939">
        <ele>1416.9000000000001</ele>
        <time>2021-02-14T08:07:16Z</time>
      </trkpt>
      <trkpt lat="46.035928716883063" lon="9.404510110616684">
        <ele>1418.1900000000001</ele>
        <time>2021-02-14T08:07:29Z</time>
      </trkpt>
      <trkpt lat="46.03583374992013" lon="9.404443977400661">
        <ele>1419.3599999999999</ele>
        <time>2021-02-14T08:07:40Z</time>
      </trkpt>
      <trkpt lat="46.035821679979563" lon="9.404440121725202">
        <ele>1419.7</ele>
        <time>2021-02-14T08:07:41Z</time>
      </trkpt>
      <trkpt lat="46.035775830969214" lon="9.404430650174618">
        <ele>1419.5799999999999</ele>
        <time>2021-02-14T08:07:46Z</time>
      </trkpt>
      <trkpt lat="46.035764934495091" lon="9.40442880615592">
        <ele>1419.72</ele>
        <time>2021-02-14T08:07:47Z</time>
      </trkpt>
      <trkpt lat="46.03568522259593" lon="9.404439032077789">
        <ele>1420.9100000000001</ele>
        <time>2021-02-14T08:07:57Z</time>
      </trkpt>
      <trkpt lat="46.035652449354529" lon="9.404462333768606">
        <ele>1421.1099999999999</ele>
        <time>2021-02-14T08:08:01Z</time>
      </trkpt>
      <trkpt lat="46.035631997510791" lon="9.404472475871444">
        <ele>1421.02</ele>
        <time>2021-02-14T08:08:03Z</time>
      </trkpt>
      <trkpt lat="46.035621436312795" lon="9.404477756470442">
        <ele>1420.99</ele>
        <time>2021-02-14T08:08:04Z</time>
      </trkpt>
      <trkpt lat="46.035529235377908" lon="9.404549086466432">
        <ele>1420.01</ele>
        <time>2021-02-14T08:08:14Z</time>
      </trkpt>
      <trkpt lat="46.035510459914804" lon="9.404558222740889">
        <ele>1419.8199999999999</ele>
        <time>2021-02-14T08:08:16Z</time>
      </trkpt>
      <trkpt lat="46.035380121320486" lon="9.404531316831708">
        <ele>1420.03</ele>
        <time>2021-02-14T08:08:28Z</time>
      </trkpt>
      <trkpt lat="46.035296302288771" lon="9.40438287332654">
        <ele>1421</ele>
        <time>2021-02-14T08:08:42Z</time>
      </trkpt>
      <trkpt lat="46.035201754420996" lon="9.404269633814693">
        <ele>1423.1800000000001</ele>
        <time>2021-02-14T08:08:57Z</time>
      </trkpt>
      <trkpt lat="46.035160096362233" lon="9.404252115637064">
        <ele>1423.52</ele>
        <time>2021-02-14T08:09:02Z</time>
      </trkpt>
      <trkpt lat="46.035068733617663" lon="9.404247002676129">
        <ele>1424.6800000000001</ele>
        <time>2021-02-14T08:09:11Z</time>
      </trkpt>
      <trkpt lat="46.034964546561241" lon="9.40420744009316">
        <ele>1426.51</ele>
        <time>2021-02-14T08:09:25Z</time>
      </trkpt>
      <trkpt lat="46.034903107210994" lon="9.404192855581641">
        <ele>1427.95</ele>
        <time>2021-02-14T08:09:35Z</time>
      </trkpt>
      <trkpt lat="46.034893384203315" lon="9.404191598296166">
        <ele>1428.02</ele>
        <time>2021-02-14T08:09:36Z</time>
      </trkpt>
      <trkpt lat="46.03486186824739" lon="9.404211463406682">
        <ele>1429.5599999999999</ele>
        <time>2021-02-14T08:09:46Z</time>
      </trkpt>
      <trkpt lat="46.034856922924519" lon="9.404211966320872">
        <ele>1429.48</ele>
        <time>2021-02-14T08:09:58Z</time>
      </trkpt>
      <trkpt lat="46.03484426625073" lon="9.404213223606348">
        <ele>1429.02</ele>
        <time>2021-02-14T08:10:12Z</time>
      </trkpt>
      <trkpt lat="46.03483990766108" lon="9.404193861410022">
        <ele>1429.78</ele>
        <time>2021-02-14T08:10:27Z</time>
      </trkpt>
      <trkpt lat="46.03485700674355" lon="9.404193526133895">
        <ele>1429.8699999999999</ele>
        <time>2021-02-14T08:10:42Z</time>
      </trkpt>
      <trkpt lat="46.034854995086789" lon="9.404186401516199">
        <ele>1429.9300000000001</ele>
        <time>2021-02-14T08:10:51Z</time>
      </trkpt>
      <trkpt lat="46.034851977601647" lon="9.404177265241742">
        <ele>1429.77</ele>
        <time>2021-02-14T08:11:01Z</time>
      </trkpt>
      <trkpt lat="46.034849882125854" lon="9.404184054583311">
        <ele>1429.98</ele>
        <time>2021-02-14T08:11:16Z</time>
      </trkpt>
      <trkpt lat="46.034790454432368" lon="9.40418154001236">
        <ele>1430.52</ele>
        <time>2021-02-14T08:11:26Z</time>
      </trkpt>
      <trkpt lat="46.034714430570602" lon="9.404181037098169">
        <ele>1431.9200000000001</ele>
        <time>2021-02-14T08:11:36Z</time>
      </trkpt>
      <trkpt lat="46.034629857167602" lon="9.404158825054765">
        <ele>1433.5599999999999</ele>
        <time>2021-02-14T08:11:47Z</time>
      </trkpt>
      <trkpt lat="46.03451737202704" lon="9.40414784476161">
        <ele>1435.1700000000001</ele>
        <time>2021-02-14T08:12:01Z</time>
      </trkpt>
      <trkpt lat="46.034425171092153" lon="9.404137032106519">
        <ele>1437.6700000000001</ele>
        <time>2021-02-14T08:12:14Z</time>
      </trkpt>
      <trkpt lat="46.034330371767282" lon="9.404127057641745">
        <ele>1439.05</ele>
        <time>2021-02-14T08:12:25Z</time>
      </trkpt>
      <trkpt lat="46.034256778657436" lon="9.404120855033398">
        <ele>1440.9300000000001</ele>
        <time>2021-02-14T08:12:36Z</time>
      </trkpt>
      <trkpt lat="46.034122416749597" lon="9.404109120368958">
        <ele>1441.97</ele>
        <time>2021-02-14T08:12:52Z</time>
      </trkpt>
      <trkpt lat="46.034054774791002" lon="9.404211798682809">
        <ele>1444.3099999999999</ele>
        <time>2021-02-14T08:13:06Z</time>
      </trkpt>
      <trkpt lat="46.033989815041423" lon="9.404307855293155">
        <ele>1446.1700000000001</ele>
        <time>2021-02-14T08:13:20Z</time>
      </trkpt>
      <trkpt lat="46.033935332670808" lon="9.404392093420029">
        <ele>1447.45</ele>
        <time>2021-02-14T08:13:31Z</time>
      </trkpt>
      <trkpt lat="46.03385386057198" lon="9.404483623802662">
        <ele>1449.6300000000001</ele>
        <time>2021-02-14T08:13:46Z</time>
      </trkpt>
      <trkpt lat="46.033756379038095" lon="9.404554199427366">
        <ele>1451.6800000000001</ele>
        <time>2021-02-14T08:14:01Z</time>
      </trkpt>
      <trkpt lat="46.033647581934929" lon="9.404622847214341">
        <ele>1454.45</ele>
        <time>2021-02-14T08:14:17Z</time>
      </trkpt>
      <trkpt lat="46.033557392656803" lon="9.404681017622352">
        <ele>1456.4200000000001</ele>
        <time>2021-02-14T08:14:30Z</time>
      </trkpt>
      <trkpt lat="46.033469885587692" lon="9.404734913259745">
        <ele>1457.6400000000001</ele>
        <time>2021-02-14T08:14:42Z</time>
      </trkpt>
      <trkpt lat="46.033454546704888" lon="9.404744720086455">
        <ele>1457.22</ele>
        <time>2021-02-14T08:14:50Z</time>
      </trkpt>
      <trkpt lat="46.033439794555306" lon="9.404716892167926">
        <ele>1458.28</ele>
        <time>2021-02-14T08:15:03Z</time>
      </trkpt>
      <trkpt lat="46.03343116119504" lon="9.404711527749896">
        <ele>1458.27</ele>
        <time>2021-02-14T08:15:20Z</time>
      </trkpt>
      <trkpt lat="46.033443985506892" lon="9.404715970158577">
        <ele>1458.3699999999999</ele>
        <time>2021-02-14T08:15:36Z</time>
      </trkpt>
      <trkpt lat="46.03343652561307" lon="9.404737763106823">
        <ele>1458.6700000000001</ele>
        <time>2021-02-14T08:15:54Z</time>
      </trkpt>
      <trkpt lat="46.033438369631767" lon="9.404746731743217">
        <ele>1458.27</ele>
        <time>2021-02-14T08:16:12Z</time>
      </trkpt>
      <trkpt lat="46.03346292860806" lon="9.404742121696472">
        <ele>1458.1800000000001</ele>
        <time>2021-02-14T08:16:26Z</time>
      </trkpt>
      <trkpt lat="46.033460162580013" lon="9.404739355668426">
        <ele>1458</ele>
        <time>2021-02-14T08:16:55Z</time>
      </trkpt>
      <trkpt lat="46.033459324389696" lon="9.404732985422015">
        <ele>1458.3199999999999</ele>
        <time>2021-02-14T08:17:21Z</time>
      </trkpt>
      <trkpt lat="46.033493019640446" lon="9.404771542176604">
        <ele>1458.2</ele>
        <time>2021-02-14T08:17:38Z</time>
      </trkpt>
      <trkpt lat="46.033467287197709" lon="9.404746145009995">
        <ele>1458.48</ele>
        <time>2021-02-14T08:17:47Z</time>
      </trkpt>
      <trkpt lat="46.033470472320914" lon="9.404733655974269">
        <ele>1457.6800000000001</ele>
        <time>2021-02-14T08:17:56Z</time>
      </trkpt>
      <trkpt lat="46.033475333824754" lon="9.404735248535872">
        <ele>1458.1800000000001</ele>
        <time>2021-02-14T08:18:11Z</time>
      </trkpt>
      <trkpt lat="46.033479608595371" lon="9.404736841097474">
        <ele>1458.27</ele>
        <time>2021-02-14T08:18:20Z</time>
      </trkpt>
      <trkpt lat="46.033475836738944" lon="9.404740780591965">
        <ele>1458.22</ele>
        <time>2021-02-14T08:18:36Z</time>
      </trkpt>
      <trkpt lat="46.033481871709228" lon="9.404734410345554">
        <ele>1458.3399999999999</ele>
        <time>2021-02-14T08:18:56Z</time>
      </trkpt>
      <trkpt lat="46.033473322167993" lon="9.404739020392299">
        <ele>1458.4400000000001</ele>
        <time>2021-02-14T08:19:09Z</time>
      </trkpt>
      <trkpt lat="46.033471142873168" lon="9.404748827219009">
        <ele>1457.79</ele>
        <time>2021-02-14T08:19:26Z</time>
      </trkpt>
      <trkpt lat="46.03346929885447" lon="9.404747569933534">
        <ele>1458.3099999999999</ele>
        <time>2021-02-14T08:19:40Z</time>
      </trkpt>
      <trkpt lat="46.033469382673502" lon="9.404753772541881">
        <ele>1458.3599999999999</ele>
        <time>2021-02-14T08:19:55Z</time>
      </trkpt>
      <trkpt lat="46.033415654674172" lon="9.404752599075437">
        <ele>1458.21</ele>
        <time>2021-02-14T08:20:07Z</time>
      </trkpt>
      <trkpt lat="46.03325623087585" lon="9.404825773090124">
        <ele>1459.24</ele>
        <time>2021-02-14T08:20:24Z</time>
      </trkpt>
      <trkpt lat="46.033152546733618" lon="9.404873801395297">
        <ele>1460.4000000000001</ele>
        <time>2021-02-14T08:20:36Z</time>
      </trkpt>
      <trkpt lat="46.033022627234459" lon="9.404935743659735">
        <ele>1461.6600000000001</ele>
        <time>2021-02-14T08:20:51Z</time>
      </trkpt>
      <trkpt lat="46.032908800989389" lon="9.404999278485775">
        <ele>1462.8599999999999</ele>
        <time>2021-02-14T08:21:05Z</time>
      </trkpt>
      <trkpt lat="46.032763291150331" lon="9.405075134709477">
        <ele>1464.8599999999999</ele>
        <time>2021-02-14T08:21:24Z</time>
      </trkpt>
      <trkpt lat="46.032636389136314" lon="9.405137915164232">
        <ele>1466.78</ele>
        <time>2021-02-14T08:21:40Z</time>
      </trkpt>
      <trkpt lat="46.032519796863198" lon="9.405194325372577">
        <ele>1468.02</ele>
        <time>2021-02-14T08:21:54Z</time>
      </trkpt>
      <trkpt lat="46.032388787716627" lon="9.405264900997281">
        <ele>1469.8699999999999</ele>
        <time>2021-02-14T08:22:10Z</time>
      </trkpt>
      <trkpt lat="46.032268004491925" lon="9.405316365882754">
        <ele>1471.4200000000001</ele>
        <time>2021-02-14T08:22:25Z</time>
      </trkpt>
      <trkpt lat="46.032163314521313" lon="9.405360957607627">
        <ele>1472.9100000000001</ele>
        <time>2021-02-14T08:22:40Z</time>
      </trkpt>
      <trkpt lat="46.032036663964391" lon="9.405409321188927">
        <ele>1475.0699999999999</ele>
        <time>2021-02-14T08:22:56Z</time>
      </trkpt>
      <trkpt lat="46.031911270692945" lon="9.405404711142182">
        <ele>1476.79</ele>
        <time>2021-02-14T08:23:11Z</time>
      </trkpt>
      <trkpt lat="46.031873300671577" lon="9.405391970649362">
        <ele>1477</ele>
        <time>2021-02-14T08:23:15Z</time>
      </trkpt>
      <trkpt lat="46.031722091138363" lon="9.405314857140183">
        <ele>1477.95</ele>
        <time>2021-02-14T08:23:32Z</time>
      </trkpt>
      <trkpt lat="46.031580353155732" lon="9.405227852985263">
        <ele>1478.74</ele>
        <time>2021-02-14T08:23:48Z</time>
      </trkpt>
      <trkpt lat="46.031419588252902" lon="9.405130706727505">
        <ele>1479.1400000000001</ele>
        <time>2021-02-14T08:24:05Z</time>
      </trkpt>
      <trkpt lat="46.031275670975447" lon="9.405018305405974">
        <ele>1479.77</ele>
        <time>2021-02-14T08:24:21Z</time>
      </trkpt>
      <trkpt lat="46.031123120337725" lon="9.404943790286779">
        <ele>1479.8099999999999</ele>
        <time>2021-02-14T08:24:36Z</time>
      </trkpt>
      <trkpt lat="46.03103787638247" lon="9.404894839972258">
        <ele>1479.6900000000001</ele>
        <time>2021-02-14T08:24:45Z</time>
      </trkpt>
      <trkpt lat="46.031005522236228" lon="9.404889140278101">
        <ele>1479.5799999999999</ele>
        <time>2021-02-14T08:24:48Z</time>
      </trkpt>
      <trkpt lat="46.030994290485978" lon="9.404883021488786">
        <ele>1479.6099999999999</ele>
        <time>2021-02-14T08:24:49Z</time>
      </trkpt>
      <trkpt lat="46.030864119529724" lon="9.404791491106153">
        <ele>1478.9000000000001</ele>
        <time>2021-02-14T08:25:03Z</time>
      </trkpt>
      <trkpt lat="46.030839309096336" lon="9.404773805290461">
        <ele>1478.76</ele>
        <time>2021-02-14T08:25:08Z</time>
      </trkpt>
      <trkpt lat="46.030830089002848" lon="9.404766513034701">
        <ele>1478.6300000000001</ele>
        <time>2021-02-14T08:25:09Z</time>
      </trkpt>
      <trkpt lat="46.030820030719042" lon="9.404756790027022">
        <ele>1478.5599999999999</ele>
        <time>2021-02-14T08:25:10Z</time>
      </trkpt>
      <trkpt lat="46.030739396810532" lon="9.404720915481448">
        <ele>1478.54</ele>
        <time>2021-02-14T08:25:19Z</time>
      </trkpt>
      <trkpt lat="46.030623055994511" lon="9.404684873297811">
        <ele>1478.71</ele>
        <time>2021-02-14T08:25:32Z</time>
      </trkpt>
      <trkpt lat="46.030598832294345" lon="9.404664672911167">
        <ele>1478.74</ele>
        <time>2021-02-14T08:25:35Z</time>
      </trkpt>
      <trkpt lat="46.030576452612877" lon="9.404655955731869">
        <ele>1478.78</ele>
        <time>2021-02-14T08:25:37Z</time>
      </trkpt>
      <trkpt lat="46.030564717948437" lon="9.404650507494807">
        <ele>1478.8099999999999</ele>
        <time>2021-02-14T08:25:38Z</time>
      </trkpt>
      <trkpt lat="46.030470002442598" lon="9.404598120599985">
        <ele>1478.73</ele>
        <time>2021-02-14T08:25:48Z</time>
      </trkpt>
      <trkpt lat="46.0303645581007" lon="9.404547912999988">
        <ele>1478.72</ele>
        <time>2021-02-14T08:25:58Z</time>
      </trkpt>
      <trkpt lat="46.03022139519453" lon="9.404475577175617">
        <ele>1478.97</ele>
        <time>2021-02-14T08:26:11Z</time>
      </trkpt>
      <trkpt lat="46.030068174004555" lon="9.404384382069111">
        <ele>1479.1900000000001</ele>
        <time>2021-02-14T08:26:26Z</time>
      </trkpt>
      <trkpt lat="46.029906487092376" lon="9.404244404286146">
        <ele>1478.49</ele>
        <time>2021-02-14T08:26:43Z</time>
      </trkpt>
      <trkpt lat="46.029797941446304" lon="9.404139295220375">
        <ele>1477.8</ele>
        <time>2021-02-14T08:26:56Z</time>
      </trkpt>
      <trkpt lat="46.029656119644642" lon="9.404070060700178">
        <ele>1478.6700000000001</ele>
        <time>2021-02-14T08:27:12Z</time>
      </trkpt>
      <trkpt lat="46.029530642554164" lon="9.404037036001682">
        <ele>1480.5899999999999</ele>
        <time>2021-02-14T08:27:26Z</time>
      </trkpt>
      <trkpt lat="46.0295201651752" lon="9.404019182547927">
        <ele>1481.23</ele>
        <time>2021-02-14T08:27:35Z</time>
      </trkpt>
      <trkpt lat="46.029536426067352" lon="9.404008537530899">
        <ele>1481.24</ele>
        <time>2021-02-14T08:27:56Z</time>
      </trkpt>
      <trkpt lat="46.029537096619606" lon="9.404021697118878">
        <ele>1480.51</ele>
        <time>2021-02-14T08:28:14Z</time>
      </trkpt>
      <trkpt lat="46.029536342248321" lon="9.404015662148595">
        <ele>1480.9400000000001</ele>
        <time>2021-02-14T08:28:38Z</time>
      </trkpt>
      <trkpt lat="46.029536090791225" lon="9.404005436226726">
        <ele>1480.4100000000001</ele>
        <time>2021-02-14T08:28:48Z</time>
      </trkpt>
      <trkpt lat="46.029535420238972" lon="9.404009375721216">
        <ele>1480.29</ele>
        <time>2021-02-14T08:29:10Z</time>
      </trkpt>
      <trkpt lat="46.029529804363847" lon="9.404005352407694">
        <ele>1480.3199999999999</ele>
        <time>2021-02-14T08:29:31Z</time>
      </trkpt>
      <trkpt lat="46.029528714716434" lon="9.404010633006692">
        <ele>1480.21</ele>
        <time>2021-02-14T08:29:47Z</time>
      </trkpt>
      <trkpt lat="46.029524272307754" lon="9.404012812301517">
        <ele>1480.71</ele>
        <time>2021-02-14T08:30:07Z</time>
      </trkpt>
      <trkpt lat="46.02944347076118" lon="9.403957072645426">
        <ele>1481.0899999999999</ele>
        <time>2021-02-14T08:30:18Z</time>
      </trkpt>
      <trkpt lat="46.029294859617949" lon="9.403872666880488">
        <ele>1482.21</ele>
        <time>2021-02-14T08:30:34Z</time>
      </trkpt>
      <trkpt lat="46.029141135513783" lon="9.403821537271142">
        <ele>1483.6199999999999</ele>
        <time>2021-02-14T08:30:51Z</time>
      </trkpt>
      <trkpt lat="46.029063016176224" lon="9.403836540877819">
        <ele>1484.3099999999999</ele>
        <time>2021-02-14T08:31:00Z</time>
      </trkpt>
      <trkpt lat="46.02895581163466" lon="9.40396755002439">
        <ele>1486.54</ele>
        <time>2021-02-14T08:31:16Z</time>
      </trkpt>
      <trkpt lat="46.028871573507786" lon="9.404101157560945">
        <ele>1488.26</ele>
        <time>2021-02-14T08:31:31Z</time>
      </trkpt>
      <trkpt lat="46.028774511069059" lon="9.404188664630055">
        <ele>1489.1400000000001</ele>
        <time>2021-02-14T08:31:44Z</time>
      </trkpt>
      <trkpt lat="46.028691111132503" lon="9.40429394133389">
        <ele>1490.1800000000001</ele>
        <time>2021-02-14T08:31:57Z</time>
      </trkpt>
      <trkpt lat="46.028582146391273" lon="9.404382118955255">
        <ele>1492.0699999999999</ele>
        <time>2021-02-14T08:32:13Z</time>
      </trkpt>
      <trkpt lat="46.028545936569571" lon="9.404420088976622">
        <ele>1492.1400000000001</ele>
        <time>2021-02-14T08:32:24Z</time>
      </trkpt>
      <trkpt lat="46.028459351509809" lon="9.40450944006443">
        <ele>1493.51</ele>
        <time>2021-02-14T08:32:37Z</time>
      </trkpt>
      <trkpt lat="46.028349129483104" lon="9.404610525816679">
        <ele>1495.6900000000001</ele>
        <time>2021-02-14T08:32:53Z</time>
      </trkpt>
      <trkpt lat="46.028249636292458" lon="9.404736841097474">
        <ele>1497.71</ele>
        <time>2021-02-14T08:33:11Z</time>
      </trkpt>
      <trkpt lat="46.02817059494555" lon="9.40486122854054">
        <ele>1499.77</ele>
        <time>2021-02-14T08:33:28Z</time>
      </trkpt>
      <trkpt lat="46.028096079826355" lon="9.404977150261402">
        <ele>1501.25</ele>
        <time>2021-02-14T08:33:43Z</time>
      </trkpt>
      <trkpt lat="46.028023073449731" lon="9.40507622435689">
        <ele>1502.8199999999999</ele>
        <time>2021-02-14T08:33:57Z</time>
      </trkpt>
      <trkpt lat="46.027945457026362" lon="9.405188541859388">
        <ele>1505.75</ele>
        <time>2021-02-14T08:34:14Z</time>
      </trkpt>
      <trkpt lat="46.027880664914846" lon="9.405291052535176">
        <ele>1507.3499999999999</ele>
        <time>2021-02-14T08:34:28Z</time>
      </trkpt>
      <trkpt lat="46.027806401252747" lon="9.405362382531166">
        <ele>1508.96</ele>
        <time>2021-02-14T08:34:41Z</time>
      </trkpt>
      <trkpt lat="46.027712104842067" lon="9.405453242361546">
        <ele>1510.5599999999999</ele>
        <time>2021-02-14T08:34:55Z</time>
      </trkpt>
      <trkpt lat="46.027592411264777" lon="9.405536642298102">
        <ele>1510.9400000000001</ele>
        <time>2021-02-14T08:35:11Z</time>
      </trkpt>
      <trkpt lat="46.027543628588319" lon="9.40563571639359">
        <ele>1511.7</ele>
        <time>2021-02-14T08:35:22Z</time>
      </trkpt>
      <trkpt lat="46.027526194229722" lon="9.405712829902768">
        <ele>1512.3900000000001</ele>
        <time>2021-02-14T08:35:32Z</time>
      </trkpt>
      <trkpt lat="46.027468275278807" lon="9.405840151011944">
        <ele>1513.73</ele>
        <time>2021-02-14T08:35:45Z</time>
      </trkpt>
      <trkpt lat="46.027397448197007" lon="9.405946433544159">
        <ele>1514.1199999999999</ele>
        <time>2021-02-14T08:35:56Z</time>
      </trkpt>
      <trkpt lat="46.027296865358949" lon="9.406063025817275">
        <ele>1514.05</ele>
        <time>2021-02-14T08:36:09Z</time>
      </trkpt>
      <trkpt lat="46.027196953073144" lon="9.406211385503411">
        <ele>1515.6300000000001</ele>
        <time>2021-02-14T08:36:24Z</time>
      </trkpt>
      <trkpt lat="46.027144817635417" lon="9.406389333307743">
        <ele>1516.25</ele>
        <time>2021-02-14T08:36:38Z</time>
      </trkpt>
      <trkpt lat="46.027085473760962" lon="9.4065504334867">
        <ele>1517.0899999999999</ele>
        <time>2021-02-14T08:36:52Z</time>
      </trkpt>
      <trkpt lat="46.027040546759963" lon="9.406641880050302">
        <ele>1517.6600000000001</ele>
        <time>2021-02-14T08:37:01Z</time>
      </trkpt>
      <trkpt lat="46.026980364695191" lon="9.40672880038619">
        <ele>1519.96</ele>
        <time>2021-02-14T08:37:14Z</time>
      </trkpt>
      <trkpt lat="46.026920601725578" lon="9.406727543100715">
        <ele>1521.98</ele>
        <time>2021-02-14T08:37:27Z</time>
      </trkpt>
      <trkpt lat="46.026855139061809" lon="9.406720167025924">
        <ele>1523.3800000000001</ele>
        <time>2021-02-14T08:37:37Z</time>
      </trkpt>
      <trkpt lat="46.026784731075168" lon="9.406709354370832">
        <ele>1524.5799999999999</ele>
        <time>2021-02-14T08:37:49Z</time>
      </trkpt>
      <trkpt lat="46.026726476848125" lon="9.406703654676676">
        <ele>1525.55</ele>
        <time>2021-02-14T08:37:57Z</time>
      </trkpt>
      <trkpt lat="46.026718430221081" lon="9.406706085428596">
        <ele>1525.99</ele>
        <time>2021-02-14T08:38:02Z</time>
      </trkpt>
      <trkpt lat="46.026633689180017" lon="9.40668286755681">
        <ele>1525.8099999999999</ele>
        <time>2021-02-14T08:38:11Z</time>
      </trkpt>
      <trkpt lat="46.02655909024179" lon="9.406660990789533">
        <ele>1525.74</ele>
        <time>2021-02-14T08:38:19Z</time>
      </trkpt>
      <trkpt lat="46.026482479646802" lon="9.406647915020585">
        <ele>1526.49</ele>
        <time>2021-02-14T08:38:30Z</time>
      </trkpt>
      <trkpt lat="46.02642229758203" lon="9.406663672998548">
        <ele>1528.6900000000001</ele>
        <time>2021-02-14T08:38:41Z</time>
      </trkpt>
      <trkpt lat="46.026355996727943" lon="9.406645065173507">
        <ele>1528.98</ele>
        <time>2021-02-14T08:38:49Z</time>
      </trkpt>
      <trkpt lat="46.026270836591721" lon="9.406613716855645">
        <ele>1529.3499999999999</ele>
        <time>2021-02-14T08:39:01Z</time>
      </trkpt>
      <trkpt lat="46.026202104985714" lon="9.406599467620254">
        <ele>1530.8599999999999</ele>
        <time>2021-02-14T08:39:09Z</time>
      </trkpt>
      <trkpt lat="46.02613253518939" lon="9.406563509255648">
        <ele>1531.8900000000001</ele>
        <time>2021-02-14T08:39:19Z</time>
      </trkpt>
      <trkpt lat="46.02609733119607" lon="9.406550182029605">
        <ele>1533.4200000000001</ele>
        <time>2021-02-14T08:39:29Z</time>
      </trkpt>
      <trkpt lat="46.026005214080215" lon="9.406532412394881">
        <ele>1535.4300000000001</ele>
        <time>2021-02-14T08:39:42Z</time>
      </trkpt>
      <trkpt lat="46.025923322886229" lon="9.40649913623929">
        <ele>1536.9200000000001</ele>
        <time>2021-02-14T08:39:53Z</time>
      </trkpt>
      <trkpt lat="46.025858279317617" lon="9.406473822891712">
        <ele>1537.6099999999999</ele>
        <time>2021-02-14T08:40:04Z</time>
      </trkpt>
      <trkpt lat="46.025853920727968" lon="9.40647809766233">
        <ele>1538.0699999999999</ele>
        <time>2021-02-14T08:40:14Z</time>
      </trkpt>
      <trkpt lat="46.025856519117951" lon="9.406490419059992">
        <ele>1537.95</ele>
        <time>2021-02-14T08:40:27Z</time>
      </trkpt>
      <trkpt lat="46.025831289589405" lon="9.406482288613915">
        <ele>1538.0999999999999</ele>
        <time>2021-02-14T08:40:33Z</time>
      </trkpt>
      <trkpt lat="46.025823159143329" lon="9.406490754336119">
        <ele>1538.53</ele>
        <time>2021-02-14T08:40:43Z</time>
      </trkpt>
      <trkpt lat="46.025823494419456" lon="9.406493185088038">
        <ele>1539.24</ele>
        <time>2021-02-14T08:40:50Z</time>
      </trkpt>
      <trkpt lat="46.025823829695582" lon="9.406473906710744">
        <ele>1538.5899999999999</ele>
        <time>2021-02-14T08:41:16Z</time>
      </trkpt>
      <trkpt lat="46.025824751704931" lon="9.40647516399622">
        <ele>1538.8</ele>
        <time>2021-02-14T08:41:59Z</time>
      </trkpt>
      <trkpt lat="46.025818297639489" lon="9.406465608626604">
        <ele>1539.0599999999999</ele>
        <time>2021-02-14T08:42:25Z</time>
      </trkpt>
      <trkpt lat="46.025820896029472" lon="9.406463177874684">
        <ele>1539.1199999999999</ele>
        <time>2021-02-14T08:42:54Z</time>
      </trkpt>
      <trkpt lat="46.025826595723629" lon="9.406463177874684">
        <ele>1539.1400000000001</ele>
        <time>2021-02-14T08:43:30Z</time>
      </trkpt>
      <trkpt lat="46.025839252397418" lon="9.406481450423598">
        <ele>1539.6199999999999</ele>
        <time>2021-02-14T08:43:59Z</time>
      </trkpt>
      <trkpt lat="46.025845371186733" lon="9.406469212844968">
        <ele>1539.9200000000001</ele>
        <time>2021-02-14T08:44:19Z</time>
      </trkpt>
      <trkpt lat="46.025858111679554" lon="9.406463094055653">
        <ele>1539.8</ele>
        <time>2021-02-14T08:44:46Z</time>
      </trkpt>
      <trkpt lat="46.025863476097584" lon="9.406470386311412">
        <ele>1539.9200000000001</ele>
        <time>2021-02-14T08:45:13Z</time>
      </trkpt>
      <trkpt lat="46.025871522724628" lon="9.406474744901061">
        <ele>1539.79</ele>
        <time>2021-02-14T08:45:30Z</time>
      </trkpt>
      <trkpt lat="46.02583204396069" lon="9.406453957781196">
        <ele>1539.3800000000001</ele>
        <time>2021-02-14T08:45:48Z</time>
      </trkpt>
      <trkpt lat="46.025813100859523" lon="9.406469464302063">
        <ele>1539</ele>
        <time>2021-02-14T08:45:50Z</time>
      </trkpt>
      <trkpt lat="46.025803294032812" lon="9.406482707709074">
        <ele>1539.1600000000001</ele>
        <time>2021-02-14T08:45:51Z</time>
      </trkpt>
      <trkpt lat="46.025794493034482" lon="9.406493604183197">
        <ele>1539.25</ele>
        <time>2021-02-14T08:45:52Z</time>
      </trkpt>
      <trkpt lat="46.025789547711611" lon="9.406531406566501">
        <ele>1539.55</ele>
        <time>2021-02-14T08:45:55Z</time>
      </trkpt>
      <trkpt lat="46.025783261284232" lon="9.406544733792543">
        <ele>1539.4100000000001</ele>
        <time>2021-02-14T08:45:56Z</time>
      </trkpt>
      <trkpt lat="46.025765994563699" lon="9.40655923448503">
        <ele>1539.26</ele>
        <time>2021-02-14T08:45:57Z</time>
      </trkpt>
      <trkpt lat="46.025758786126971" lon="9.40657339990139">
        <ele>1539.1500000000001</ele>
        <time>2021-02-14T08:45:58Z</time>
      </trkpt>
      <trkpt lat="46.025719726458192" lon="9.406645568087697">
        <ele>1539.51</ele>
        <time>2021-02-14T08:46:03Z</time>
      </trkpt>
      <trkpt lat="46.025689719244838" lon="9.406674150377512">
        <ele>1539.54</ele>
        <time>2021-02-14T08:46:06Z</time>
      </trkpt>
      <trkpt lat="46.025670943781734" lon="9.406689908355475">
        <ele>1540.29</ele>
        <time>2021-02-14T08:46:12Z</time>
      </trkpt>
      <trkpt lat="46.025664992630482" lon="9.4066989608109">
        <ele>1540.2</ele>
        <time>2021-02-14T08:46:13Z</time>
      </trkpt>
      <trkpt lat="46.025660298764706" lon="9.406712790951133">
        <ele>1540.2</ele>
        <time>2021-02-14T08:46:14Z</time>
      </trkpt>
      <trkpt lat="46.025655856356025" lon="9.406727207824588">
        <ele>1540.24</ele>
        <time>2021-02-14T08:46:15Z</time>
      </trkpt>
      <trkpt lat="46.025651078671217" lon="9.406741708517075">
        <ele>1540.4200000000001</ele>
        <time>2021-02-14T08:46:16Z</time>
      </trkpt>
      <trkpt lat="46.025645546615124" lon="9.406756963580847">
        <ele>1540.4300000000001</ele>
        <time>2021-02-14T08:46:17Z</time>
      </trkpt>
      <trkpt lat="46.025541443377733" lon="9.406993584707379">
        <ele>1541.8800000000001</ele>
        <time>2021-02-14T08:46:35Z</time>
      </trkpt>
      <trkpt lat="46.025413451716304" lon="9.407095341011882">
        <ele>1542.9300000000001</ele>
        <time>2021-02-14T08:46:50Z</time>
      </trkpt>
      <trkpt lat="46.025352934375405" lon="9.407123755663633">
        <ele>1543.5599999999999</ele>
        <time>2021-02-14T08:46:57Z</time>
      </trkpt>
      <trkpt lat="46.025292668491602" lon="9.407145213335753">
        <ele>1544.4300000000001</ele>
        <time>2021-02-14T08:47:06Z</time>
      </trkpt>
      <trkpt lat="46.025281939655542" lon="9.407145213335753">
        <ele>1544.73</ele>
        <time>2021-02-14T08:47:07Z</time>
      </trkpt>
      <trkpt lat="46.025212956592441" lon="9.407152757048607">
        <ele>1544.5699999999999</ele>
        <time>2021-02-14T08:47:15Z</time>
      </trkpt>
      <trkpt lat="46.025183955207467" lon="9.407159378752112">
        <ele>1544.5</ele>
        <time>2021-02-14T08:47:18Z</time>
      </trkpt>
      <trkpt lat="46.025171801447868" lon="9.407160636037588">
        <ele>1544.3699999999999</ele>
        <time>2021-02-14T08:47:19Z</time>
      </trkpt>
      <trkpt lat="46.025112876668572" lon="9.407162731513381">
        <ele>1544.52</ele>
        <time>2021-02-14T08:47:25Z</time>
      </trkpt>
      <trkpt lat="46.025057472288609" lon="9.407169688493013">
        <ele>1544.95</ele>
        <time>2021-02-14T08:47:31Z</time>
      </trkpt>
      <trkpt lat="46.024992177262902" lon="9.40716122277081">
        <ele>1545.6199999999999</ele>
        <time>2021-02-14T08:47:38Z</time>
      </trkpt>
      <trkpt lat="46.0249197576195" lon="9.407117636874318">
        <ele>1545.3099999999999</ele>
        <time>2021-02-14T08:47:47Z</time>
      </trkpt>
      <trkpt lat="46.024836357682943" lon="9.407063573598862">
        <ele>1546.53</ele>
        <time>2021-02-14T08:47:58Z</time>
      </trkpt>
      <trkpt lat="46.024802243337035" lon="9.407015712931752">
        <ele>1547.0799999999999</ele>
        <time>2021-02-14T08:48:03Z</time>
      </trkpt>
      <trkpt lat="46.024706941097975" lon="9.40689635463059">
        <ele>1547.1400000000001</ele>
        <time>2021-02-14T08:48:16Z</time>
      </trkpt>
      <trkpt lat="46.024633096531034" lon="9.406882608309388">
        <ele>1547.8399999999999</ele>
        <time>2021-02-14T08:48:24Z</time>
      </trkpt>
      <trkpt lat="46.024550953879952" lon="9.406873974949122">
        <ele>1549.01</ele>
        <time>2021-02-14T08:48:34Z</time>
      </trkpt>
      <trkpt lat="46.024469062685966" lon="9.406872969120741">
        <ele>1549.24</ele>
        <time>2021-02-14T08:48:43Z</time>
      </trkpt>
      <trkpt lat="46.024394631385803" lon="9.406922422349453">
        <ele>1548.5</ele>
        <time>2021-02-14T08:48:51Z</time>
      </trkpt>
      <trkpt lat="46.024382896721363" lon="9.406934911385179">
        <ele>1548.3299999999999</ele>
        <time>2021-02-14T08:48:52Z</time>
      </trkpt>
      <trkpt lat="46.02437200024724" lon="9.406945891678333">
        <ele>1548.1199999999999</ele>
        <time>2021-02-14T08:48:53Z</time>
      </trkpt>
      <trkpt lat="46.024361355230212" lon="9.406957542523742">
        <ele>1547.9100000000001</ele>
        <time>2021-02-14T08:48:54Z</time>
      </trkpt>
      <trkpt lat="46.024352386593819" lon="9.406970953568816">
        <ele>1547.76</ele>
        <time>2021-02-14T08:48:55Z</time>
      </trkpt>
      <trkpt lat="46.02422934025526" lon="9.407041864469647">
        <ele>1547.9400000000001</ele>
        <time>2021-02-14T08:49:07Z</time>
      </trkpt>
      <trkpt lat="46.02409740909934" lon="9.40710112452507">
        <ele>1546.78</ele>
        <time>2021-02-14T08:49:21Z</time>
      </trkpt>
      <trkpt lat="46.024071341380477" lon="9.407109590247273">
        <ele>1546.4200000000001</ele>
        <time>2021-02-14T08:49:24Z</time>
      </trkpt>
      <trkpt lat="46.023976122960448" lon="9.407162396237254">
        <ele>1547.6300000000001</ele>
        <time>2021-02-14T08:49:35Z</time>
      </trkpt>
      <trkpt lat="46.023891465738416" lon="9.407202880829573">
        <ele>1548.1900000000001</ele>
        <time>2021-02-14T08:49:45Z</time>
      </trkpt>
      <trkpt lat="46.023790882900357" lon="9.407219141721726">
        <ele>1550.3099999999999</ele>
        <time>2021-02-14T08:49:57Z</time>
      </trkpt>
      <trkpt lat="46.023709326982498" lon="9.407252166420221">
        <ele>1551.6900000000001</ele>
        <time>2021-02-14T08:50:09Z</time>
      </trkpt>
      <trkpt lat="46.023630620911717" lon="9.407234061509371">
        <ele>1552.02</ele>
        <time>2021-02-14T08:50:17Z</time>
      </trkpt>
      <trkpt lat="46.023526517674327" lon="9.407200533896685">
        <ele>1553.28</ele>
        <time>2021-02-14T08:50:27Z</time>
      </trkpt>
      <trkpt lat="46.023409757763147" lon="9.407198606058955">
        <ele>1554.46</ele>
        <time>2021-02-14T08:50:40Z</time>
      </trkpt>
      <trkpt lat="46.023280173540115" lon="9.407164240255952">
        <ele>1555.6300000000001</ele>
        <time>2021-02-14T08:50:54Z</time>
      </trkpt>
      <trkpt lat="46.023202892392874" lon="9.40709232352674">
        <ele>1556.04</ele>
        <time>2021-02-14T08:51:04Z</time>
      </trkpt>
      <trkpt lat="46.023194426670671" lon="9.407084193080664">
        <ele>1556.0799999999999</ele>
        <time>2021-02-14T08:51:05Z</time>
      </trkpt>
      <trkpt lat="46.023078924044967" lon="9.406960057094693">
        <ele>1556.76</ele>
        <time>2021-02-14T08:51:21Z</time>
      </trkpt>
      <trkpt lat="46.022949004545808" lon="9.406939102336764">
        <ele>1558.53</ele>
        <time>2021-02-14T08:51:37Z</time>
      </trkpt>
      <trkpt lat="46.022885469719768" lon="9.406950334087014">
        <ele>1559.9000000000001</ele>
        <time>2021-02-14T08:51:51Z</time>
      </trkpt>
      <trkpt lat="46.0228889901191" lon="9.406946394592524">
        <ele>1559.8900000000001</ele>
        <time>2021-02-14T08:52:03Z</time>
      </trkpt>
      <trkpt lat="46.022879602387547" lon="9.406932145357132">
        <ele>1559.8900000000001</ele>
        <time>2021-02-14T08:52:10Z</time>
      </trkpt>
      <trkpt lat="46.02288412861526" lon="9.4069320615381">
        <ele>1559.8599999999999</ele>
        <time>2021-02-14T08:52:28Z</time>
      </trkpt>
      <trkpt lat="46.022883290424943" lon="9.406935246661305">
        <ele>1559.75</ele>
        <time>2021-02-14T08:52:53Z</time>
      </trkpt>
      <trkpt lat="46.022880524396896" lon="9.406938431784511">
        <ele>1559.9200000000001</ele>
        <time>2021-02-14T08:53:07Z</time>
      </trkpt>
      <trkpt lat="46.022876501083374" lon="9.406932732090354">
        <ele>1559.95</ele>
        <time>2021-02-14T08:53:24Z</time>
      </trkpt>
      <trkpt lat="46.0228699631989" lon="9.406923009082675">
        <ele>1559.9400000000001</ele>
        <time>2021-02-14T08:53:41Z</time>
      </trkpt>
      <trkpt lat="46.022856049239635" lon="9.406913202255964">
        <ele>1560.6400000000001</ele>
        <time>2021-02-14T08:53:52Z</time>
      </trkpt>
      <trkpt lat="46.022861329838634" lon="9.406901132315397">
        <ele>1560.0999999999999</ele>
        <time>2021-02-14T08:54:07Z</time>
      </trkpt>
      <trkpt lat="46.022863760590553" lon="9.406907837837935">
        <ele>1560.5599999999999</ele>
        <time>2021-02-14T08:54:21Z</time>
      </trkpt>
      <trkpt lat="46.022864850237966" lon="9.406903479248285">
        <ele>1560.75</ele>
        <time>2021-02-14T08:54:38Z</time>
      </trkpt>
      <trkpt lat="46.022860910743475" lon="9.406904904171825">
        <ele>1560.6900000000001</ele>
        <time>2021-02-14T08:54:56Z</time>
      </trkpt>
      <trkpt lat="46.022849595174193" lon="9.406916135922074">
        <ele>1560.99</ele>
        <time>2021-02-14T08:55:07Z</time>
      </trkpt>
      <trkpt lat="46.022852109745145" lon="9.406915381550789">
        <ele>1560.79</ele>
        <time>2021-02-14T08:55:24Z</time>
      </trkpt>
      <trkpt lat="46.022854372859001" lon="9.406909681856632">
        <ele>1560.9300000000001</ele>
        <time>2021-02-14T08:55:46Z</time>
      </trkpt>
      <trkpt lat="46.022856552153826" lon="9.406908759847283">
        <ele>1560.9100000000001</ele>
        <time>2021-02-14T08:56:12Z</time>
      </trkpt>
      <trkpt lat="46.022853031754494" lon="9.406904401257634">
        <ele>1560.9400000000001</ele>
        <time>2021-02-14T08:56:39Z</time>
      </trkpt>
      <trkpt lat="46.022852277383208" lon="9.406904652714729">
        <ele>1560.95</ele>
        <time>2021-02-14T08:56:55Z</time>
      </trkpt>
      <trkpt lat="46.022855211049318" lon="9.406921248883009">
        <ele>1560.74</ele>
        <time>2021-02-14T08:57:05Z</time>
      </trkpt>
      <trkpt lat="46.022822605445981" lon="9.406934073194861">
        <ele>1560.6600000000001</ele>
        <time>2021-02-14T08:57:15Z</time>
      </trkpt>
      <trkpt lat="46.022706683725119" lon="9.406914710998535">
        <ele>1563.46</ele>
        <time>2021-02-14T08:57:30Z</time>
      </trkpt>
      <trkpt lat="46.022680196911097" lon="9.406912615522742">
        <ele>1564.3299999999999</ele>
        <time>2021-02-14T08:57:40Z</time>
      </trkpt>
      <trkpt lat="46.022683633491397" lon="9.406906329095364">
        <ele>1564.1400000000001</ele>
        <time>2021-02-14T08:58:01Z</time>
      </trkpt>
      <trkpt lat="46.022680448368192" lon="9.406904149800539">
        <ele>1564.3299999999999</ele>
        <time>2021-02-14T08:58:12Z</time>
      </trkpt>
      <trkpt lat="46.022620098665357" lon="9.406907167285681">
        <ele>1565.0899999999999</ele>
        <time>2021-02-14T08:58:22Z</time>
      </trkpt>
      <trkpt lat="46.022547176107764" lon="9.406907334923744">
        <ele>1566.6500000000001</ele>
        <time>2021-02-14T08:58:32Z</time>
      </trkpt>
      <trkpt lat="46.022404432296753" lon="9.40688076429069">
        <ele>1569.6600000000001</ele>
        <time>2021-02-14T08:58:49Z</time>
      </trkpt>
      <trkpt lat="46.022326145321131" lon="9.406783450394869">
        <ele>1571.3299999999999</ele>
        <time>2021-02-14T08:59:02Z</time>
      </trkpt>
      <trkpt lat="46.022322792559862" lon="9.406773978844285">
        <ele>1570.77</ele>
        <time>2021-02-14T08:59:12Z</time>
      </trkpt>
      <trkpt lat="46.022315584123135" lon="9.406769536435604">
        <ele>1570.76</ele>
        <time>2021-02-14T08:59:26Z</time>
      </trkpt>
      <trkpt lat="46.022294042631984" lon="9.406785545870662">
        <ele>1571.75</ele>
        <time>2021-02-14T08:59:43Z</time>
      </trkpt>
      <trkpt lat="46.022271914407611" lon="9.406795017421246">
        <ele>1571.8099999999999</ele>
        <time>2021-02-14T08:59:55Z</time>
      </trkpt>
      <trkpt lat="46.022272501140833" lon="9.406797531992197">
        <ele>1571.75</ele>
        <time>2021-02-14T09:00:24Z</time>
      </trkpt>
      <trkpt lat="46.022270740941167" lon="9.406803818419576">
        <ele>1572.3</ele>
        <time>2021-02-14T09:00:39Z</time>
      </trkpt>
      <trkpt lat="46.022270740941167" lon="9.406793089583516">
        <ele>1572.1800000000001</ele>
        <time>2021-02-14T09:01:04Z</time>
      </trkpt>
      <trkpt lat="46.022271076217294" lon="9.406796777620912">
        <ele>1572.3</ele>
        <time>2021-02-14T09:01:26Z</time>
      </trkpt>
      <trkpt lat="46.02221223525703" lon="9.406832233071327">
        <ele>1572.95</ele>
        <time>2021-02-14T09:01:39Z</time>
      </trkpt>
      <trkpt lat="46.02219806984067" lon="9.406843632459641">
        <ele>1573.98</ele>
        <time>2021-02-14T09:01:56Z</time>
      </trkpt>
      <trkpt lat="46.022196896374226" lon="9.406844889745116">
        <ele>1574.1300000000001</ele>
        <time>2021-02-14T09:02:14Z</time>
      </trkpt>
      <trkpt lat="46.022155992686749" lon="9.406899036839604">
        <ele>1575.1500000000001</ele>
        <time>2021-02-14T09:02:26Z</time>
      </trkpt>
      <trkpt lat="46.022156327962875" lon="9.406897611916065">
        <ele>1575.46</ele>
        <time>2021-02-14T09:02:36Z</time>
      </trkpt>
      <trkpt lat="46.022161776199937" lon="9.406910436227918">
        <ele>1575.78</ele>
        <time>2021-02-14T09:02:52Z</time>
      </trkpt>
      <trkpt lat="46.022158926352859" lon="9.406908508390188">
        <ele>1576.0599999999999</ele>
        <time>2021-02-14T09:03:03Z</time>
      </trkpt>
      <trkpt lat="46.022145012393594" lon="9.406922170892358">
        <ele>1575.8599999999999</ele>
        <time>2021-02-14T09:03:17Z</time>
      </trkpt>
      <trkpt lat="46.022078292444348" lon="9.407000206410885">
        <ele>1578.0999999999999</ele>
        <time>2021-02-14T09:03:29Z</time>
      </trkpt>
      <trkpt lat="46.022073933854699" lon="9.4070097617805">
        <ele>1578.0799999999999</ele>
        <time>2021-02-14T09:03:30Z</time>
      </trkpt>
      <trkpt lat="46.022048452869058" lon="9.407113194465637">
        <ele>1579.02</ele>
        <time>2021-02-14T09:03:41Z</time>
      </trkpt>
      <trkpt lat="46.022062199190259" lon="9.407241940498352">
        <ele>1581.0599999999999</ele>
        <time>2021-02-14T09:03:53Z</time>
      </trkpt>
      <trkpt lat="46.022092374041677" lon="9.407436484470964">
        <ele>1583.4400000000001</ele>
        <time>2021-02-14T09:04:10Z</time>
      </trkpt>
      <trkpt lat="46.022105533629656" lon="9.407614767551422">
        <ele>1586.05</ele>
        <time>2021-02-14T09:04:26Z</time>
      </trkpt>
      <trkpt lat="46.022105785086751" lon="9.407776203006506">
        <ele>1587.9300000000001</ele>
        <time>2021-02-14T09:04:40Z</time>
      </trkpt>
      <trkpt lat="46.022093631327152" lon="9.407953899353743">
        <ele>1591.05</ele>
        <time>2021-02-14T09:04:57Z</time>
      </trkpt>
      <trkpt lat="46.022080387920141" lon="9.408122459426522">
        <ele>1593.3800000000001</ele>
        <time>2021-02-14T09:05:14Z</time>
      </trkpt>
      <trkpt lat="46.022043088451028" lon="9.408284900709987">
        <ele>1595.3299999999999</ele>
        <time>2021-02-14T09:05:30Z</time>
      </trkpt>
      <trkpt lat="46.021967818960547" lon="9.408470811322331">
        <ele>1597.7</ele>
        <time>2021-02-14T09:05:48Z</time>
      </trkpt>
      <trkpt lat="46.021912079304457" lon="9.408622272312641">
        <ele>1600.4100000000001</ele>
        <time>2021-02-14T09:06:03Z</time>
      </trkpt>
      <trkpt lat="46.021828930824995" lon="9.408766105771065">
        <ele>1602.51</ele>
        <time>2021-02-14T09:06:19Z</time>
      </trkpt>
      <trkpt lat="46.021772436797619" lon="9.408909268677235">
        <ele>1604.03</ele>
        <time>2021-02-14T09:06:33Z</time>
      </trkpt>
      <trkpt lat="46.021737651899457" lon="9.409048827365041">
        <ele>1606.1099999999999</ele>
        <time>2021-02-14T09:06:46Z</time>
      </trkpt>
      <trkpt lat="46.021704208105803" lon="9.409181345254183">
        <ele>1608.29</ele>
        <time>2021-02-14T09:07:00Z</time>
      </trkpt>
      <trkpt lat="46.021640421822667" lon="9.40929458476603">
        <ele>1610.52</ele>
        <time>2021-02-14T09:07:14Z</time>
      </trkpt>
      <trkpt lat="46.021600188687444" lon="9.409308079630137">
        <ele>1611.3099999999999</ele>
        <time>2021-02-14T09:07:24Z</time>
      </trkpt>
      <trkpt lat="46.021478902548552" lon="9.409377733245492">
        <ele>1614.1700000000001</ele>
        <time>2021-02-14T09:07:40Z</time>
      </trkpt>
      <trkpt lat="46.021361136808991" lon="9.409446632489562">
        <ele>1617.3299999999999</ele>
        <time>2021-02-14T09:07:57Z</time>
      </trkpt>
      <trkpt lat="46.021225517615676" lon="9.409516453742981">
        <ele>1619.52</ele>
        <time>2021-02-14T09:08:16Z</time>
      </trkpt>
      <trkpt lat="46.021092412993312" lon="9.409665232524276">
        <ele>1621.9300000000001</ele>
        <time>2021-02-14T09:08:38Z</time>
      </trkpt>
      <trkpt lat="46.021024100482464" lon="9.409816944971681">
        <ele>1623.75</ele>
        <time>2021-02-14T09:08:55Z</time>
      </trkpt>
      <trkpt lat="46.020983615890145" lon="9.409954240545631">
        <ele>1624.8299999999999</ele>
        <time>2021-02-14T09:09:09Z</time>
      </trkpt>
      <trkpt lat="46.020948830991983" lon="9.410083154216409">
        <ele>1626.0999999999999</ele>
        <time>2021-02-14T09:09:22Z</time>
      </trkpt>
      <trkpt lat="46.020901305601001" lon="9.410214414820075">
        <ele>1627.28</ele>
        <time>2021-02-14T09:09:37Z</time>
      </trkpt>
      <trkpt lat="46.020898707211018" lon="9.410208463668823">
        <ele>1627.7</ele>
        <time>2021-02-14T09:09:49Z</time>
      </trkpt>
      <trkpt lat="46.020898036658764" lon="9.410209050402045">
        <ele>1626.3399999999999</ele>
        <time>2021-02-14T09:10:04Z</time>
      </trkpt>
      <trkpt lat="46.02089929394424" lon="9.410209553316236">
        <ele>1626.1400000000001</ele>
        <time>2021-02-14T09:10:05Z</time>
      </trkpt>
      <trkpt lat="46.020897952839732" lon="9.410226233303547">
        <ele>1626.3099999999999</ele>
        <time>2021-02-14T09:10:29Z</time>
      </trkpt>
      <trkpt lat="46.020892336964607" lon="9.410221707075834">
        <ele>1626.5</ele>
        <time>2021-02-14T09:11:06Z</time>
      </trkpt>
      <trkpt lat="46.020888313651085" lon="9.410218689590693">
        <ele>1626.22</ele>
        <time>2021-02-14T09:11:47Z</time>
      </trkpt>
      <trkpt lat="46.020881189033389" lon="9.410217851400375">
        <ele>1626.5</ele>
        <time>2021-02-14T09:12:29Z</time>
      </trkpt>
      <trkpt lat="46.020879931747913" lon="9.410214414820075">
        <ele>1626.6900000000001</ele>
        <time>2021-02-14T09:13:02Z</time>
      </trkpt>
      <trkpt lat="46.020883535966277" lon="9.410211145877838">
        <ele>1626.6700000000001</ele>
        <time>2021-02-14T09:13:43Z</time>
      </trkpt>
      <trkpt lat="46.020887894555926" lon="9.410207122564316">
        <ele>1627.2</ele>
        <time>2021-02-14T09:14:27Z</time>
      </trkpt>
      <trkpt lat="46.020892085507512" lon="9.410206787288189">
        <ele>1627.72</ele>
        <time>2021-02-14T09:15:19Z</time>
      </trkpt>
      <trkpt lat="46.020894264802337" lon="9.410213995724917">
        <ele>1627.1900000000001</ele>
        <time>2021-02-14T09:16:11Z</time>
      </trkpt>
      <trkpt lat="46.020892672240734" lon="9.410212654620409">
        <ele>1627.1900000000001</ele>
        <time>2021-02-14T09:16:53Z</time>
      </trkpt>
      <trkpt lat="46.020895857363939" lon="9.410210810601711">
        <ele>1626.9100000000001</ele>
        <time>2021-02-14T09:17:42Z</time>
      </trkpt>
      <trkpt lat="46.020892420783639" lon="9.410205194726586">
        <ele>1627.4000000000001</ele>
        <time>2021-02-14T09:18:39Z</time>
      </trkpt>
      <trkpt lat="46.020898120477796" lon="9.41019999794662">
        <ele>1627.78</ele>
        <time>2021-02-14T09:19:30Z</time>
      </trkpt>
      <trkpt lat="46.02090566419065" lon="9.410197902470827">
        <ele>1627.9300000000001</ele>
        <time>2021-02-14T09:20:22Z</time>
      </trkpt>
      <trkpt lat="46.020903065800667" lon="9.410205781459808">
        <ele>1628.1700000000001</ele>
        <time>2021-02-14T09:21:14Z</time>
      </trkpt>
      <trkpt lat="46.020900215953588" lon="9.410198153927922">
        <ele>1628.3399999999999</ele>
        <time>2021-02-14T09:22:11Z</time>
      </trkpt>
      <trkpt lat="46.020895605906844" lon="9.410201674327254">
        <ele>1628.3599999999999</ele>
        <time>2021-02-14T09:23:07Z</time>
      </trkpt>
      <trkpt lat="46.020895522087812" lon="9.410189352929592">
        <ele>1628.3399999999999</ele>
        <time>2021-02-14T09:24:08Z</time>
      </trkpt>
      <trkpt lat="46.020898791030049" lon="9.410192454233766">
        <ele>1628.4100000000001</ele>
        <time>2021-02-14T09:25:01Z</time>
      </trkpt>
      <trkpt lat="46.020896611735225" lon="9.410188430920243">
        <ele>1628.25</ele>
        <time>2021-02-14T09:25:57Z</time>
      </trkpt>
      <trkpt lat="46.020897198468447" lon="9.4101941306144">
        <ele>1628.54</ele>
        <time>2021-02-14T09:26:54Z</time>
      </trkpt>
      <trkpt lat="46.020889990031719" lon="9.410201674327254">
        <ele>1628.5899999999999</ele>
        <time>2021-02-14T09:27:53Z</time>
      </trkpt>
      <trkpt lat="46.020887307822704" lon="9.410207960754633">
        <ele>1628.54</ele>
        <time>2021-02-14T09:28:48Z</time>
      </trkpt>
      <trkpt lat="46.020891079679132" lon="9.410204943269491">
        <ele>1628.8699999999999</ele>
        <time>2021-02-14T09:29:39Z</time>
      </trkpt>
      <trkpt lat="46.020894767716527" lon="9.410209637135267">
        <ele>1628.9400000000001</ele>
        <time>2021-02-14T09:30:42Z</time>
      </trkpt>
      <trkpt lat="46.020888900384307" lon="9.410205110907555">
        <ele>1629.04</ele>
        <time>2021-02-14T09:31:37Z</time>
      </trkpt>
      <trkpt lat="46.02089049294591" lon="9.41020293161273">
        <ele>1629.1099999999999</ele>
        <time>2021-02-14T09:32:33Z</time>
      </trkpt>
      <trkpt lat="46.020892839878798" lon="9.41021366044879">
        <ele>1629.22</ele>
        <time>2021-02-14T09:33:27Z</time>
      </trkpt>
      <trkpt lat="46.020892336964607" lon="9.410210307687521">
        <ele>1629.5</ele>
        <time>2021-02-14T09:34:12Z</time>
      </trkpt>
      <trkpt lat="46.020887726917863" lon="9.410215672105551">
        <ele>1629.97</ele>
        <time>2021-02-14T09:35:14Z</time>
      </trkpt>
      <trkpt lat="46.020894767716527" lon="9.410218102857471">
        <ele>1630.0899999999999</ele>
        <time>2021-02-14T09:36:05Z</time>
      </trkpt>
      <trkpt lat="46.020885799080133" lon="9.410223970189691">
        <ele>1630.01</ele>
        <time>2021-02-14T09:36:59Z</time>
      </trkpt>
      <trkpt lat="46.020881775766611" lon="9.410247439518571">
        <ele>1630.4400000000001</ele>
        <time>2021-02-14T09:37:55Z</time>
      </trkpt>
      <trkpt lat="46.020877500995994" lon="9.410238135606051">
        <ele>1631.1500000000001</ele>
        <time>2021-02-14T09:38:14Z</time>
      </trkpt>
      <trkpt lat="46.02087783627212" lon="9.410237548872829">
        <ele>1631.5</ele>
        <time>2021-02-14T09:38:30Z</time>
      </trkpt>
      <trkpt lat="46.020886469632387" lon="9.410238889977336">
        <ele>1631.3099999999999</ele>
        <time>2021-02-14T09:38:45Z</time>
      </trkpt>
      <trkpt lat="46.020881775766611" lon="9.41022782586515">
        <ele>1631.4000000000001</ele>
        <time>2021-02-14T09:38:57Z</time>
      </trkpt>
      <trkpt lat="46.020876998081803" lon="9.410232603549957">
        <ele>1631.03</ele>
        <time>2021-02-14T09:39:25Z</time>
      </trkpt>
      <trkpt lat="46.020871801301837" lon="9.410254647955298">
        <ele>1631.29</ele>
        <time>2021-02-14T09:39:47Z</time>
      </trkpt>
      <trkpt lat="46.020870376378298" lon="9.410263281315565">
        <ele>1631.3199999999999</ele>
        <time>2021-02-14T09:40:08Z</time>
      </trkpt>
      <trkpt lat="46.020884625613689" lon="9.410285828635097">
        <ele>1631.1800000000001</ele>
        <time>2021-02-14T09:40:27Z</time>
      </trkpt>
      <trkpt lat="46.020873310044408" lon="9.410298150032759">
        <ele>1631.5999999999999</ele>
        <time>2021-02-14T09:40:40Z</time>
      </trkpt>
      <trkpt lat="46.020866939797997" lon="9.41029530018568">
        <ele>1631.4400000000001</ele>
        <time>2021-02-14T09:40:59Z</time>
      </trkpt>
      <trkpt lat="46.020864592865109" lon="9.410292450338602">
        <ele>1631.21</ele>
        <time>2021-02-14T09:41:17Z</time>
      </trkpt>
      <trkpt lat="46.020863503217697" lon="9.41029236651957">
        <ele>1631.3399999999999</ele>
        <time>2021-02-14T09:41:48Z</time>
      </trkpt>
      <trkpt lat="46.020864928141236" lon="9.41029530018568">
        <ele>1631.73</ele>
        <time>2021-02-14T09:42:10Z</time>
      </trkpt>
      <trkpt lat="46.020865850150585" lon="9.41029965877533">
        <ele>1631.6199999999999</ele>
        <time>2021-02-14T09:42:25Z</time>
      </trkpt>
      <trkpt lat="46.020853696390986" lon="9.410398816689849">
        <ele>1632.05</ele>
        <time>2021-02-14T09:42:38Z</time>
      </trkpt>
      <trkpt lat="46.020806925371289" lon="9.410609873011708">
        <ele>1634.05</ele>
        <time>2021-02-14T09:42:56Z</time>
      </trkpt>
      <trkpt lat="46.020769206807017" lon="9.410786395892501">
        <ele>1635.99</ele>
        <time>2021-02-14T09:43:12Z</time>
      </trkpt>
      <trkpt lat="46.020705504342914" lon="9.41098278388381">
        <ele>1638.6300000000001</ele>
        <time>2021-02-14T09:43:31Z</time>
      </trkpt>
      <trkpt lat="46.020661666989326" lon="9.411136005073786">
        <ele>1640.1099999999999</ele>
        <time>2021-02-14T09:43:46Z</time>
      </trkpt>
      <trkpt lat="46.020637694746256" lon="9.411231307312846">
        <ele>1641.4000000000001</ele>
        <time>2021-02-14T09:43:55Z</time>
      </trkpt>
      <trkpt lat="46.02060760371387" lon="9.411388551816344">
        <ele>1643.1700000000001</ele>
        <time>2021-02-14T09:44:10Z</time>
      </trkpt>
      <trkpt lat="46.020612213760614" lon="9.411494163796306">
        <ele>1645.5999999999999</ele>
        <time>2021-02-14T09:44:23Z</time>
      </trkpt>
      <trkpt lat="46.020626462996006" lon="9.411502294242382">
        <ele>1645.6300000000001</ele>
        <time>2021-02-14T09:44:31Z</time>
      </trkpt>
      <trkpt lat="46.020644316449761" lon="9.411540431901813">
        <ele>1647.6900000000001</ele>
        <time>2021-02-14T09:44:41Z</time>
      </trkpt>
      <trkpt lat="46.020650016143918" lon="9.411568092182279">
        <ele>1649.1400000000001</ele>
        <time>2021-02-14T09:44:54Z</time>
      </trkpt>
      <trkpt lat="46.020645070821047" lon="9.411569098010659">
        <ele>1649.25</ele>
        <time>2021-02-14T09:45:15Z</time>
      </trkpt>
      <trkpt lat="46.020641382783651" lon="9.411565074697137">
        <ele>1648.8299999999999</ele>
        <time>2021-02-14T09:45:36Z</time>
      </trkpt>
      <trkpt lat="46.020660744979978" lon="9.411621065810323">
        <ele>1650.4200000000001</ele>
        <time>2021-02-14T09:45:47Z</time>
      </trkpt>
      <trkpt lat="46.020683627575636" lon="9.411717625334859">
        <ele>1653.04</ele>
        <time>2021-02-14T09:46:00Z</time>
      </trkpt>
      <trkpt lat="46.020694021135569" lon="9.411790715530515">
        <ele>1654.8399999999999</ele>
        <time>2021-02-14T09:46:12Z</time>
      </trkpt>
      <trkpt lat="46.020712796598673" lon="9.411875791847706">
        <ele>1656.5799999999999</ele>
        <time>2021-02-14T09:46:24Z</time>
      </trkpt>
      <trkpt lat="46.020709527656436" lon="9.411873109638691">
        <ele>1656.8399999999999</ele>
        <time>2021-02-14T09:46:37Z</time>
      </trkpt>
      <trkpt lat="46.020716903731227" lon="9.411869086325169">
        <ele>1656.48</ele>
        <time>2021-02-14T09:46:54Z</time>
      </trkpt>
      <trkpt lat="46.020814385265112" lon="9.41185207106173">
        <ele>1659.27</ele>
        <time>2021-02-14T09:47:10Z</time>
      </trkpt>
      <trkpt lat="46.02089392952621" lon="9.411849975585938">
        <ele>1661.6800000000001</ele>
        <time>2021-02-14T09:47:28Z</time>
      </trkpt>
      <trkpt lat="46.020914884284139" lon="9.411922227591276">
        <ele>1662.8800000000001</ele>
        <time>2021-02-14T09:47:48Z</time>
      </trkpt>
      <trkpt lat="46.020917482674122" lon="9.411965226754546">
        <ele>1663.8900000000001</ele>
        <time>2021-02-14T09:48:05Z</time>
      </trkpt>
      <trkpt lat="46.020912537351251" lon="9.412009231746197">
        <ele>1665.2</ele>
        <time>2021-02-14T09:48:17Z</time>
      </trkpt>
      <trkpt lat="46.020903065800667" lon="9.412007220089436">
        <ele>1664.8900000000001</ele>
        <time>2021-02-14T09:48:39Z</time>
      </trkpt>
      <trkpt lat="46.020907256752253" lon="9.412010069936514">
        <ele>1664.8399999999999</ele>
        <time>2021-02-14T09:48:52Z</time>
      </trkpt>
      <trkpt lat="46.020917315036058" lon="9.41200545988977">
        <ele>1664.8299999999999</ele>
        <time>2021-02-14T09:49:07Z</time>
      </trkpt>
      <trkpt lat="46.02098093368113" lon="9.41199816763401">
        <ele>1665.98</ele>
        <time>2021-02-14T09:49:21Z</time>
      </trkpt>
      <trkpt lat="46.021015718579292" lon="9.411981822922826">
        <ele>1666.96</ele>
        <time>2021-02-14T09:49:34Z</time>
      </trkpt>
      <trkpt lat="46.021033655852079" lon="9.412082992494106">
        <ele>1669.1500000000001</ele>
        <time>2021-02-14T09:49:47Z</time>
      </trkpt>
      <trkpt lat="46.021036254242063" lon="9.412193968892098">
        <ele>1671.23</ele>
        <time>2021-02-14T09:50:00Z</time>
      </trkpt>
      <trkpt lat="46.021041283383965" lon="9.412192041054368">
        <ele>1671.8199999999999</ele>
        <time>2021-02-14T09:50:12Z</time>
      </trkpt>
      <trkpt lat="46.021056873723865" lon="9.412184413522482">
        <ele>1671.77</ele>
        <time>2021-02-14T09:50:24Z</time>
      </trkpt>
      <trkpt lat="46.021075565367937" lon="9.412177205085754">
        <ele>1672.6199999999999</ele>
        <time>2021-02-14T09:50:36Z</time>
      </trkpt>
      <trkpt lat="46.02106835693121" lon="9.412177372723818">
        <ele>1672.4200000000001</ele>
        <time>2021-02-14T09:50:52Z</time>
      </trkpt>
      <trkpt lat="46.021063746884465" lon="9.412179132923484">
        <ele>1672.3299999999999</ele>
        <time>2021-02-14T09:51:13Z</time>
      </trkpt>
      <trkpt lat="46.021076822653413" lon="9.412227580323815">
        <ele>1673.0599999999999</ele>
        <time>2021-02-14T09:51:22Z</time>
      </trkpt>
      <trkpt lat="46.021119235083461" lon="9.412346268072724">
        <ele>1676.21</ele>
        <time>2021-02-14T09:51:38Z</time>
      </trkpt>
      <trkpt lat="46.021163491532207" lon="9.412470404058695">
        <ele>1679.45</ele>
        <time>2021-02-14T09:51:55Z</time>
      </trkpt>
      <trkpt lat="46.021205568686128" lon="9.412593450397253">
        <ele>1681.73</ele>
        <time>2021-02-14T09:52:12Z</time>
      </trkpt>
      <trkpt lat="46.021242365241051" lon="9.41266025416553">
        <ele>1684.01</ele>
        <time>2021-02-14T09:52:25Z</time>
      </trkpt>
      <trkpt lat="46.021271282806993" lon="9.412732589989901">
        <ele>1686</ele>
        <time>2021-02-14T09:52:38Z</time>
      </trkpt>
      <trkpt lat="46.02129902690649" lon="9.412796543911099">
        <ele>1688.1800000000001</ele>
        <time>2021-02-14T09:52:51Z</time>
      </trkpt>
      <trkpt lat="46.021328112110496" lon="9.412868209183216">
        <ele>1690.3800000000001</ele>
        <time>2021-02-14T09:53:05Z</time>
      </trkpt>
      <trkpt lat="46.021364741027355" lon="9.412942640483379">
        <ele>1693.1600000000001</ele>
        <time>2021-02-14T09:53:20Z</time>
      </trkpt>
      <trkpt lat="46.021388294175267" lon="9.412986896932125">
        <ele>1695.1600000000001</ele>
        <time>2021-02-14T09:53:34Z</time>
      </trkpt>
      <trkpt lat="46.021385109052062" lon="9.412984130904079">
        <ele>1695.24</ele>
        <time>2021-02-14T09:53:46Z</time>
      </trkpt>
      <trkpt lat="46.021380750462413" lon="9.412982705980539">
        <ele>1695.1300000000001</ele>
        <time>2021-02-14T09:54:08Z</time>
      </trkpt>
      <trkpt lat="46.021387120708823" lon="9.412983125075698">
        <ele>1695.3499999999999</ele>
        <time>2021-02-14T09:54:26Z</time>
      </trkpt>
      <trkpt lat="46.021383516490459" lon="9.41298077814281">
        <ele>1695.0699999999999</ele>
        <time>2021-02-14T09:54:48Z</time>
      </trkpt>
      <trkpt lat="46.021383432671428" lon="9.412979101762176">
        <ele>1695.02</ele>
        <time>2021-02-14T09:55:07Z</time>
      </trkpt>
      <trkpt lat="46.021379409357905" lon="9.412983627989888">
        <ele>1695.1500000000001</ele>
        <time>2021-02-14T09:55:33Z</time>
      </trkpt>
      <trkpt lat="46.021404806524515" lon="9.412946915253997">
        <ele>1694.8</ele>
        <time>2021-02-14T09:55:49Z</time>
      </trkpt>
      <trkpt lat="46.021413188427687" lon="9.412953201681376">
        <ele>1694.4100000000001</ele>
        <time>2021-02-14T09:56:05Z</time>
      </trkpt>
      <trkpt lat="46.021412936970592" lon="9.412956805899739">
        <ele>1694.6500000000001</ele>
        <time>2021-02-14T09:56:20Z</time>
      </trkpt>
      <trkpt lat="46.02141628973186" lon="9.412955967709422">
        <ele>1694.1400000000001</ele>
        <time>2021-02-14T09:56:44Z</time>
      </trkpt>
      <trkpt lat="46.021422240883112" lon="9.412960913032293">
        <ele>1694.6500000000001</ele>
        <time>2021-02-14T09:57:05Z</time>
      </trkpt>
      <trkpt lat="46.021468508988619" lon="9.412955297157168">
        <ele>1695.6600000000001</ele>
        <time>2021-02-14T09:57:20Z</time>
      </trkpt>
      <trkpt lat="46.02153304964304" lon="9.412919590249658">
        <ele>1698.3599999999999</ele>
        <time>2021-02-14T09:57:33Z</time>
      </trkpt>
      <trkpt lat="46.021598763763905" lon="9.412891762331128">
        <ele>1700.1500000000001</ele>
        <time>2021-02-14T09:57:47Z</time>
      </trkpt>
      <trkpt lat="46.021613767370582" lon="9.412958147004247">
        <ele>1702.1800000000001</ele>
        <time>2021-02-14T09:57:58Z</time>
      </trkpt>
      <trkpt lat="46.02162298746407" lon="9.413046827539802">
        <ele>1704.3299999999999</ele>
        <time>2021-02-14T09:58:12Z</time>
      </trkpt>
      <trkpt lat="46.021622233092785" lon="9.413114301860333">
        <ele>1706.5699999999999</ele>
        <time>2021-02-14T09:58:26Z</time>
      </trkpt>
      <trkpt lat="46.021627765148878" lon="9.413144309073687">
        <ele>1706.9400000000001</ele>
        <time>2021-02-14T09:58:42Z</time>
      </trkpt>
      <trkpt lat="46.021638158708811" lon="9.413211615756154">
        <ele>1708.6300000000001</ele>
        <time>2021-02-14T09:58:53Z</time>
      </trkpt>
      <trkpt lat="46.021657604724169" lon="9.413310857489705">
        <ele>1711.3399999999999</ele>
        <time>2021-02-14T09:59:09Z</time>
      </trkpt>
      <trkpt lat="46.021675877273083" lon="9.413394676521421">
        <ele>1713.6199999999999</ele>
        <time>2021-02-14T09:59:24Z</time>
      </trkpt>
      <trkpt lat="46.021692221984267" lon="9.413471706211567">
        <ele>1715.6900000000001</ele>
        <time>2021-02-14T09:59:37Z</time>
      </trkpt>
      <trkpt lat="46.021701022982597" lon="9.413541443645954">
        <ele>1717.28</ele>
        <time>2021-02-14T09:59:49Z</time>
      </trkpt>
      <trkpt lat="46.021708650514483" lon="9.413552926853299">
        <ele>1717.8699999999999</ele>
        <time>2021-02-14T10:00:00Z</time>
      </trkpt>
      <trkpt lat="46.021713260561228" lon="9.41354907117784">
        <ele>1718.73</ele>
        <time>2021-02-14T10:00:16Z</time>
      </trkpt>
      <trkpt lat="46.021718960255384" lon="9.413546975702047">
        <ele>1718.73</ele>
        <time>2021-02-14T10:00:33Z</time>
      </trkpt>
      <trkpt lat="46.021721810102463" lon="9.413544712588191">
        <ele>1718.5699999999999</ele>
        <time>2021-02-14T10:01:06Z</time>
      </trkpt>
      <trkpt lat="46.021720301359892" lon="9.413542114198208">
        <ele>1718.53</ele>
        <time>2021-02-14T10:01:23Z</time>
      </trkpt>
      <trkpt lat="46.021719546988606" lon="9.413547310978174">
        <ele>1718.5699999999999</ele>
        <time>2021-02-14T10:01:43Z</time>
      </trkpt>
      <trkpt lat="46.021731281653047" lon="9.413542365655303">
        <ele>1718.5799999999999</ele>
        <time>2021-02-14T10:02:00Z</time>
      </trkpt>
      <trkpt lat="46.021813340485096" lon="9.413501210510731">
        <ele>1721.6199999999999</ele>
        <time>2021-02-14T10:02:15Z</time>
      </trkpt>
      <trkpt lat="46.021892046555877" lon="9.413498779758811">
        <ele>1724.1300000000001</ele>
        <time>2021-02-14T10:02:30Z</time>
      </trkpt>
      <trkpt lat="46.02192347869277" lon="9.413568936288357">
        <ele>1727.1700000000001</ele>
        <time>2021-02-14T10:02:43Z</time>
      </trkpt>
      <trkpt lat="46.021928759291768" lon="9.413642613217235">
        <ele>1728.5699999999999</ele>
        <time>2021-02-14T10:02:54Z</time>
      </trkpt>
      <trkpt lat="46.021924903616309" lon="9.413718888536096">
        <ele>1729.71</ele>
        <time>2021-02-14T10:03:05Z</time>
      </trkpt>
      <trkpt lat="46.02192984893918" lon="9.413813436403871">
        <ele>1731.6099999999999</ele>
        <time>2021-02-14T10:03:19Z</time>
      </trkpt>
      <trkpt lat="46.021932531148195" lon="9.413898093625903">
        <ele>1733.3199999999999</ele>
        <time>2021-02-14T10:03:32Z</time>
      </trkpt>
      <trkpt lat="46.021928340196609" lon="9.414005801081657">
        <ele>1735.25</ele>
        <time>2021-02-14T10:03:49Z</time>
      </trkpt>
      <trkpt lat="46.021912833675742" lon="9.414084171876311">
        <ele>1736.52</ele>
        <time>2021-02-14T10:04:03Z</time>
      </trkpt>
      <trkpt lat="46.021907720714808" lon="9.414128763601184">
        <ele>1737.1600000000001</ele>
        <time>2021-02-14T10:04:15Z</time>
      </trkpt>
      <trkpt lat="46.021898919716477" lon="9.414204619824886">
        <ele>1738.79</ele>
        <time>2021-02-14T10:04:29Z</time>
      </trkpt>
      <trkpt lat="46.021885927766562" lon="9.414274441078305">
        <ele>1739.8299999999999</ele>
        <time>2021-02-14T10:04:41Z</time>
      </trkpt>
      <trkpt lat="46.021865643560886" lon="9.414350381121039">
        <ele>1741.0599999999999</ele>
        <time>2021-02-14T10:04:54Z</time>
      </trkpt>
      <trkpt lat="46.021847622469068" lon="9.414421459659934">
        <ele>1741.9000000000001</ele>
        <time>2021-02-14T10:05:06Z</time>
      </trkpt>
      <trkpt lat="46.021856758743525" lon="9.414511732757092">
        <ele>1744.29</ele>
        <time>2021-02-14T10:05:21Z</time>
      </trkpt>
      <trkpt lat="46.021858686581254" lon="9.414543835446239">
        <ele>1745</ele>
        <time>2021-02-14T10:05:36Z</time>
      </trkpt>
      <trkpt lat="46.021868409588933" lon="9.414577446877956">
        <ele>1745.4000000000001</ele>
        <time>2021-02-14T10:05:55Z</time>
      </trkpt>
      <trkpt lat="46.02189221419394" lon="9.414652297273278">
        <ele>1748.0599999999999</ele>
        <time>2021-02-14T10:06:08Z</time>
      </trkpt>
      <trkpt lat="46.021905289962888" lon="9.414695464074612">
        <ele>1749.9100000000001</ele>
        <time>2021-02-14T10:06:19Z</time>
      </trkpt>
      <trkpt lat="46.021909900009632" lon="9.414793197065592">
        <ele>1751.5799999999999</ele>
        <time>2021-02-14T10:06:33Z</time>
      </trkpt>
      <trkpt lat="46.021902775391936" lon="9.414895875379443">
        <ele>1752.5799999999999</ele>
        <time>2021-02-14T10:06:48Z</time>
      </trkpt>
      <trkpt lat="46.021900344640017" lon="9.414885398000479">
        <ele>1751.95</ele>
        <time>2021-02-14T10:07:00Z</time>
      </trkpt>
      <trkpt lat="46.021895986050367" lon="9.414882464334369">
        <ele>1752.3599999999999</ele>
        <time>2021-02-14T10:07:19Z</time>
      </trkpt>
      <trkpt lat="46.021894309669733" lon="9.414888666942716">
        <ele>1752.6400000000001</ele>
        <time>2021-02-14T10:07:32Z</time>
      </trkpt>
      <trkpt lat="46.021890705451369" lon="9.414888247847557">
        <ele>1749.1400000000001</ele>
        <time>2021-02-14T10:07:36Z</time>
      </trkpt>
      <trkpt lat="46.021891543641686" lon="9.414888247847557">
        <ele>1753.8199999999999</ele>
        <time>2021-02-14T10:07:37Z</time>
      </trkpt>
      <trkpt lat="46.021891124546528" lon="9.414887325838208">
        <ele>1752.5599999999999</ele>
        <time>2021-02-14T10:07:40Z</time>
      </trkpt>
      <trkpt lat="46.02189171127975" lon="9.414890594780445">
        <ele>1752.21</ele>
        <time>2021-02-14T10:08:11Z</time>
      </trkpt>
      <trkpt lat="46.021894058212638" lon="9.414888415485621">
        <ele>1752.0799999999999</ele>
        <time>2021-02-14T10:08:31Z</time>
      </trkpt>
      <trkpt lat="46.021887101233006" lon="9.414895037189126">
        <ele>1752.1500000000001</ele>
        <time>2021-02-14T10:08:48Z</time>
      </trkpt>
      <trkpt lat="46.021884670481086" lon="9.414894534274936">
        <ele>1752.04</ele>
        <time>2021-02-14T10:09:00Z</time>
      </trkpt>
      <trkpt lat="46.021884586662054" lon="9.414890091866255">
        <ele>1752.1300000000001</ele>
        <time>2021-02-14T10:09:20Z</time>
      </trkpt>
      <trkpt lat="46.021883999928832" lon="9.414891516789794">
        <ele>1752.27</ele>
        <time>2021-02-14T10:09:35Z</time>
      </trkpt>
      <trkpt lat="46.021874696016312" lon="9.4148981384933">
        <ele>1751.9100000000001</ele>
        <time>2021-02-14T10:09:55Z</time>
      </trkpt>
      <trkpt lat="46.021875785663724" lon="9.414895204827189">
        <ele>1751.8800000000001</ele>
        <time>2021-02-14T10:10:09Z</time>
      </trkpt>
      <trkpt lat="46.021880647167563" lon="9.41489084623754">
        <ele>1751.6700000000001</ele>
        <time>2021-02-14T10:10:41Z</time>
      </trkpt>
      <trkpt lat="46.021877462044358" lon="9.414896965026856">
        <ele>1751.8599999999999</ele>
        <time>2021-02-14T10:11:00Z</time>
      </trkpt>
      <trkpt lat="46.021876204758883" lon="9.414894115179777">
        <ele>1751.8199999999999</ele>
        <time>2021-02-14T10:11:29Z</time>
      </trkpt>
      <trkpt lat="46.021887436509132" lon="9.414969803765416">
        <ele>1752.4100000000001</ele>
        <time>2021-02-14T10:11:42Z</time>
      </trkpt>
      <trkpt lat="46.021900847554207" lon="9.415109865367413">
        <ele>1754.3099999999999</ele>
        <time>2021-02-14T10:11:56Z</time>
      </trkpt>
      <trkpt lat="46.021883245557547" lon="9.415154960006475">
        <ele>1754.45</ele>
        <time>2021-02-14T10:12:07Z</time>
      </trkpt>
      <trkpt lat="46.021886514499784" lon="9.415162587538362">
        <ele>1754.54</ele>
        <time>2021-02-14T10:12:20Z</time>
      </trkpt>
      <trkpt lat="46.021881233900785" lon="9.415149679407477">
        <ele>1754.1600000000001</ele>
        <time>2021-02-14T10:12:32Z</time>
      </trkpt>
      <trkpt lat="46.02188341319561" lon="9.415155546739698">
        <ele>1754.22</ele>
        <time>2021-02-14T10:12:43Z</time>
      </trkpt>
      <trkpt lat="46.021879222244024" lon="9.415157306939364">
        <ele>1754.23</ele>
        <time>2021-02-14T10:13:01Z</time>
      </trkpt>
      <trkpt lat="46.021870840340853" lon="9.415172897279263">
        <ele>1754.1300000000001</ele>
        <time>2021-02-14T10:13:12Z</time>
      </trkpt>
      <trkpt lat="46.021859189495444" lon="9.41516300663352">
        <ele>1754.03</ele>
        <time>2021-02-14T10:13:22Z</time>
      </trkpt>
      <trkpt lat="46.021857680752873" lon="9.415153954178095">
        <ele>1753.9300000000001</ele>
        <time>2021-02-14T10:13:39Z</time>
      </trkpt>
      <trkpt lat="46.021859273314476" lon="9.415156217291951">
        <ele>1753.51</ele>
        <time>2021-02-14T10:13:55Z</time>
      </trkpt>
      <trkpt lat="46.021854244172573" lon="9.415158145129681">
        <ele>1753.75</ele>
        <time>2021-02-14T10:14:14Z</time>
      </trkpt>
      <trkpt lat="46.02184971794486" lon="9.415158480405808">
        <ele>1753.5699999999999</ele>
        <time>2021-02-14T10:14:31Z</time>
      </trkpt>
      <trkpt lat="46.021850723773241" lon="9.415153535082936">
        <ele>1753.4200000000001</ele>
        <time>2021-02-14T10:14:46Z</time>
      </trkpt>
      <trkpt lat="46.021852735430002" lon="9.415154624730349">
        <ele>1753.76</ele>
        <time>2021-02-14T10:15:05Z</time>
      </trkpt>
      <trkpt lat="46.021849634125829" lon="9.415154540911317">
        <ele>1753.9000000000001</ele>
        <time>2021-02-14T10:15:25Z</time>
      </trkpt>
      <trkpt lat="46.021853070706129" lon="9.41515764221549">
        <ele>1753.99</ele>
        <time>2021-02-14T10:15:38Z</time>
      </trkpt>
      <trkpt lat="46.021846113726497" lon="9.415223523974419">
        <ele>1754.03</ele>
        <time>2021-02-14T10:15:49Z</time>
      </trkpt>
      <trkpt lat="46.021834630519152" lon="9.415250094607472">
        <ele>1753.9100000000001</ele>
        <time>2021-02-14T10:15:59Z</time>
      </trkpt>
      <trkpt lat="46.021839994937181" lon="9.415232241153717">
        <ele>1754.3900000000001</ele>
        <time>2021-02-14T10:16:28Z</time>
      </trkpt>
      <trkpt lat="46.021837228909135" lon="9.415230229496956">
        <ele>1754.4300000000001</ele>
        <time>2021-02-14T10:16:39Z</time>
      </trkpt>
      <trkpt lat="46.021854747086763" lon="9.415198713541031">
        <ele>1754.3</ele>
        <time>2021-02-14T10:16:55Z</time>
      </trkpt>
      <trkpt lat="46.021853238344193" lon="9.415181949734688">
        <ele>1754.1500000000001</ele>
        <time>2021-02-14T10:17:07Z</time>
      </trkpt>
      <trkpt lat="46.021851729601622" lon="9.415171891450882">
        <ele>1753.71</ele>
        <time>2021-02-14T10:17:22Z</time>
      </trkpt>
      <trkpt lat="46.021854495629668" lon="9.41517180763185">
        <ele>1753.54</ele>
        <time>2021-02-14T10:17:41Z</time>
      </trkpt>
      <trkpt lat="46.021849885582924" lon="9.415172813460231">
        <ele>1753.79</ele>
        <time>2021-02-14T10:18:04Z</time>
      </trkpt>
      <trkpt lat="46.021847706288099" lon="9.415172059088945">
        <ele>1753.72</ele>
        <time>2021-02-14T10:18:20Z</time>
      </trkpt>
      <trkpt lat="46.021850723773241" lon="9.415185218676925">
        <ele>1753.48</ele>
        <time>2021-02-14T10:18:31Z</time>
      </trkpt>
      <trkpt lat="46.02185407653451" lon="9.415172310546041">
        <ele>1753.9400000000001</ele>
        <time>2021-02-14T10:18:59Z</time>
      </trkpt>
      <trkpt lat="46.021854663267732" lon="9.415176333859563">
        <ele>1753.28</ele>
        <time>2021-02-14T10:19:17Z</time>
      </trkpt>
      <trkpt lat="46.021860195323825" lon="9.415188152343035">
        <ele>1753.5999999999999</ele>
        <time>2021-02-14T10:19:38Z</time>
      </trkpt>
      <trkpt lat="46.021841168403625" lon="9.415218411013484">
        <ele>1753.28</ele>
        <time>2021-02-14T10:19:50Z</time>
      </trkpt>
      <trkpt lat="46.02178568020463" lon="9.415298458188772">
        <ele>1753.1099999999999</ele>
        <time>2021-02-14T10:20:04Z</time>
      </trkpt>
      <trkpt lat="46.021764893084764" lon="9.415327711030841">
        <ele>1753.0999999999999</ele>
        <time>2021-02-14T10:20:19Z</time>
      </trkpt>
      <trkpt lat="46.021735807880759" lon="9.41537749953568">
        <ele>1752.5899999999999</ele>
        <time>2021-02-14T10:20:32Z</time>
      </trkpt>
      <trkpt lat="46.021673362702131" lon="9.415454613044858">
        <ele>1752.6400000000001</ele>
        <time>2021-02-14T10:20:46Z</time>
      </trkpt>
      <trkpt lat="46.02162885479629" lon="9.415566427633166">
        <ele>1751.96</ele>
        <time>2021-02-14T10:20:59Z</time>
      </trkpt>
      <trkpt lat="46.021575294435024" lon="9.415636584162712">
        <ele>1751.04</ele>
        <time>2021-02-14T10:21:06Z</time>
      </trkpt>
      <trkpt lat="46.021536570042372" lon="9.415711434558034">
        <ele>1750.47</ele>
        <time>2021-02-14T10:21:12Z</time>
      </trkpt>
      <trkpt lat="46.021390724927187" lon="9.415959371253848">
        <ele>1748.1900000000001</ele>
        <time>2021-02-14T10:21:32Z</time>
      </trkpt>
      <trkpt lat="46.021271869540215" lon="9.416189873591065">
        <ele>1746.4300000000001</ele>
        <time>2021-02-14T10:21:50Z</time>
      </trkpt>
      <trkpt lat="46.021242281422019" lon="9.416275955736637">
        <ele>1745.24</ele>
        <time>2021-02-14T10:22:04Z</time>
      </trkpt>
      <trkpt lat="46.021240269765258" lon="9.416280733421445">
        <ele>1745.1700000000001</ele>
        <time>2021-02-14T10:22:05Z</time>
      </trkpt>
      <trkpt lat="46.02121789008379" lon="9.416311495006084">
        <ele>1744.8399999999999</ele>
        <time>2021-02-14T10:22:08Z</time>
      </trkpt>
      <trkpt lat="46.021059807389975" lon="9.416503440588713">
        <ele>1741.3</ele>
        <time>2021-02-14T10:22:26Z</time>
      </trkpt>
      <trkpt lat="46.020913375541568" lon="9.416620703414083">
        <ele>1739.9300000000001</ele>
        <time>2021-02-14T10:22:41Z</time>
      </trkpt>
      <trkpt lat="46.020755711942911" lon="9.416794208809733">
        <ele>1738.5999999999999</ele>
        <time>2021-02-14T10:22:58Z</time>
      </trkpt>
      <trkpt lat="46.020575920119882" lon="9.416889678686857">
        <ele>1735.47</ele>
        <time>2021-02-14T10:23:14Z</time>
      </trkpt>
      <trkpt lat="46.020363522693515" lon="9.416972156614065">
        <ele>1732.53</ele>
        <time>2021-02-14T10:23:33Z</time>
      </trkpt>
      <trkpt lat="46.020200829952955" lon="9.417096292600036">
        <ele>1729.51</ele>
        <time>2021-02-14T10:23:49Z</time>
      </trkpt>
      <trkpt lat="46.020056577399373" lon="9.41721179522574">
        <ele>1726.21</ele>
        <time>2021-02-14T10:24:04Z</time>
      </trkpt>
      <trkpt lat="46.019941242411733" lon="9.417260996997356">
        <ele>1723.05</ele>
        <time>2021-02-14T10:24:15Z</time>
      </trkpt>
      <trkpt lat="46.019819201901555" lon="9.417318915948272">
        <ele>1719.73</ele>
        <time>2021-02-14T10:24:27Z</time>
      </trkpt>
      <trkpt lat="46.019696993753314" lon="9.417364681139588">
        <ele>1716.6099999999999</ele>
        <time>2021-02-14T10:24:39Z</time>
      </trkpt>
      <trkpt lat="46.019599931314588" lon="9.417404998093844">
        <ele>1713.47</ele>
        <time>2021-02-14T10:24:49Z</time>
      </trkpt>
      <trkpt lat="46.019518123939633" lon="9.417427545413375">
        <ele>1710.3299999999999</ele>
        <time>2021-02-14T10:24:59Z</time>
      </trkpt>
      <trkpt lat="46.019477806985378" lon="9.417452104389668">
        <ele>1708.72</ele>
        <time>2021-02-14T10:25:04Z</time>
      </trkpt>
      <trkpt lat="46.019379571080208" lon="9.417612031102181">
        <ele>1705.3399999999999</ele>
        <time>2021-02-14T10:25:19Z</time>
      </trkpt>
      <trkpt lat="46.019286531955004" lon="9.417749913409352">
        <ele>1702.27</ele>
        <time>2021-02-14T10:25:32Z</time>
      </trkpt>
      <trkpt lat="46.019267924129963" lon="9.417794169858098">
        <ele>1701.5899999999999</ele>
        <time>2021-02-14T10:25:44Z</time>
      </trkpt>
      <trkpt lat="46.019268175587058" lon="9.417791655287147">
        <ele>1701.3299999999999</ele>
        <time>2021-02-14T10:26:05Z</time>
      </trkpt>
      <trkpt lat="46.019264068454504" lon="9.417788470163941">
        <ele>1701.02</ele>
        <time>2021-02-14T10:26:19Z</time>
      </trkpt>
      <trkpt lat="46.019262978807092" lon="9.417786207050085">
        <ele>1702.5999999999999</ele>
        <time>2021-02-14T10:26:21Z</time>
      </trkpt>
      <trkpt lat="46.019264655187726" lon="9.417787380516529">
        <ele>1698.54</ele>
        <time>2021-02-14T10:26:24Z</time>
      </trkpt>
      <trkpt lat="46.01926582865417" lon="9.417790733277798">
        <ele>1701.7</ele>
        <time>2021-02-14T10:26:25Z</time>
      </trkpt>
      <trkpt lat="46.019266834482551" lon="9.417792996391654">
        <ele>1701.5899999999999</ele>
        <time>2021-02-14T10:26:41Z</time>
      </trkpt>
      <trkpt lat="46.019268343225121" lon="9.417790398001671">
        <ele>1701.6300000000001</ele>
        <time>2021-02-14T10:27:00Z</time>
      </trkpt>
      <trkpt lat="46.019264152273536" lon="9.417788805440068">
        <ele>1701.76</ele>
        <time>2021-02-14T10:27:20Z</time>
      </trkpt>
      <trkpt lat="46.019264403730631" lon="9.417793666943908">
        <ele>1701.5899999999999</ele>
        <time>2021-02-14T10:27:38Z</time>
      </trkpt>
      <trkpt lat="46.019267421215773" lon="9.417788637802005">
        <ele>1701.71</ele>
        <time>2021-02-14T10:27:56Z</time>
      </trkpt>
      <trkpt lat="46.019265241920948" lon="9.417794086039066">
        <ele>1701.8800000000001</ele>
        <time>2021-02-14T10:28:21Z</time>
      </trkpt>
      <trkpt lat="46.019261302426457" lon="9.417790900915861">
        <ele>1701.99</ele>
        <time>2021-02-14T10:28:38Z</time>
      </trkpt>
      <trkpt lat="46.019265996292233" lon="9.417789056897163">
        <ele>1701.74</ele>
        <time>2021-02-14T10:28:57Z</time>
      </trkpt>
      <trkpt lat="46.019228361546993" lon="9.417894249781966">
        <ele>1701.1500000000001</ele>
        <time>2021-02-14T10:29:11Z</time>
      </trkpt>
      <trkpt lat="46.019178908318281" lon="9.418062474578619">
        <ele>1701.45</ele>
        <time>2021-02-14T10:29:25Z</time>
      </trkpt>
      <trkpt lat="46.019093245267868" lon="9.418251235038042">
        <ele>1701.3099999999999</ele>
        <time>2021-02-14T10:29:43Z</time>
      </trkpt>
      <trkpt lat="46.019007079303265" lon="9.418432535603643">
        <ele>1700.8800000000001</ele>
        <time>2021-02-14T10:29:59Z</time>
      </trkpt>
      <trkpt lat="46.018922505900264" lon="9.418640909716487">
        <ele>1701.05</ele>
        <time>2021-02-14T10:30:17Z</time>
      </trkpt>
      <trkpt lat="46.018854109570384" lon="9.418796477839351">
        <ele>1702.6300000000001</ele>
        <time>2021-02-14T10:30:35Z</time>
      </trkpt>
      <trkpt lat="46.018798537552357" lon="9.418933354318142">
        <ele>1704.47</ele>
        <time>2021-02-14T10:30:52Z</time>
      </trkpt>
      <trkpt lat="46.018740031868219" lon="9.419075008481741">
        <ele>1706.4300000000001</ele>
        <time>2021-02-14T10:31:10Z</time>
      </trkpt>
      <trkpt lat="46.018683034926653" lon="9.419192690402269">
        <ele>1707.8800000000001</ele>
        <time>2021-02-14T10:31:26Z</time>
      </trkpt>
      <trkpt lat="46.018653446808457" lon="9.419245580211282">
        <ele>1708.73</ele>
        <time>2021-02-14T10:31:39Z</time>
      </trkpt>
      <trkpt lat="46.018625954166055" lon="9.419264355674386">
        <ele>1709.73</ele>
        <time>2021-02-14T10:31:52Z</time>
      </trkpt>
      <trkpt lat="46.0185925103724" lon="9.41928899846971">
        <ele>1711.02</ele>
        <time>2021-02-14T10:32:05Z</time>
      </trkpt>
      <trkpt lat="46.018586978316307" lon="9.419290255755186">
        <ele>1711.0599999999999</ele>
        <time>2021-02-14T10:32:18Z</time>
      </trkpt>
      <trkpt lat="46.018587900325656" lon="9.419294614344835">
        <ele>1710.9400000000001</ele>
        <time>2021-02-14T10:32:33Z</time>
      </trkpt>
      <trkpt lat="46.018574237823486" lon="9.41929436288774">
        <ele>1711.25</ele>
        <time>2021-02-14T10:32:45Z</time>
      </trkpt>
      <trkpt lat="46.01856267079711" lon="9.419306013733149">
        <ele>1711.6099999999999</ele>
        <time>2021-02-14T10:33:03Z</time>
      </trkpt>
      <trkpt lat="46.018520426005125" lon="9.419381869956851">
        <ele>1713.24</ele>
        <time>2021-02-14T10:33:17Z</time>
      </trkpt>
      <trkpt lat="46.018475415185094" lon="9.419457139447331">
        <ele>1714.99</ele>
        <time>2021-02-14T10:33:30Z</time>
      </trkpt>
      <trkpt lat="46.018441300839186" lon="9.419524613767862">
        <ele>1716.3</ele>
        <time>2021-02-14T10:33:43Z</time>
      </trkpt>
      <trkpt lat="46.018391763791442" lon="9.419570043683052">
        <ele>1717.3199999999999</ele>
        <time>2021-02-14T10:33:56Z</time>
      </trkpt>
      <trkpt lat="46.018317081034184" lon="9.419610444456339">
        <ele>1718.6600000000001</ele>
        <time>2021-02-14T10:34:11Z</time>
      </trkpt>
      <trkpt lat="46.018248433247209" lon="9.419650007039309">
        <ele>1719.6500000000001</ele>
        <time>2021-02-14T10:34:26Z</time>
      </trkpt>
      <trkpt lat="46.018170900642872" lon="9.4196901563555">
        <ele>1721.3399999999999</ele>
        <time>2021-02-14T10:34:42Z</time>
      </trkpt>
      <trkpt lat="46.018093451857567" lon="9.419724605977535">
        <ele>1722.3399999999999</ele>
        <time>2021-02-14T10:34:58Z</time>
      </trkpt>
      <trkpt lat="46.018005777150393" lon="9.419788643717766">
        <ele>1723.3199999999999</ele>
        <time>2021-02-14T10:35:15Z</time>
      </trkpt>
      <trkpt lat="46.01793578825891" lon="9.419875564053655">
        <ele>1723.8699999999999</ele>
        <time>2021-02-14T10:35:30Z</time>
      </trkpt>
      <trkpt lat="46.017870241776109" lon="9.419972291216254">
        <ele>1724.76</ele>
        <time>2021-02-14T10:35:45Z</time>
      </trkpt>
      <trkpt lat="46.017796481028199" lon="9.420077316462994">
        <ele>1725.0599999999999</ele>
        <time>2021-02-14T10:36:00Z</time>
      </trkpt>
      <trkpt lat="46.017736718058586" lon="9.420181335881352">
        <ele>1725.48</ele>
        <time>2021-02-14T10:36:14Z</time>
      </trkpt>
      <trkpt lat="46.017675111070275" lon="9.42032340914011">
        <ele>1725.22</ele>
        <time>2021-02-14T10:36:31Z</time>
      </trkpt>
      <trkpt lat="46.01761375553906" lon="9.420462045818567">
        <ele>1725.5799999999999</ele>
        <time>2021-02-14T10:36:48Z</time>
      </trkpt>
      <trkpt lat="46.017559943720698" lon="9.420583331957459">
        <ele>1725.8800000000001</ele>
        <time>2021-02-14T10:37:03Z</time>
      </trkpt>
      <trkpt lat="46.0175028629601" lon="9.420732278376818">
        <ele>1725.8299999999999</ele>
        <time>2021-02-14T10:37:20Z</time>
      </trkpt>
      <trkpt lat="46.017455002292991" lon="9.420868651941419">
        <ele>1725.1500000000001</ele>
        <time>2021-02-14T10:37:37Z</time>
      </trkpt>
      <trkpt lat="46.017452320083976" lon="9.420852893963456">
        <ele>1725.78</ele>
        <time>2021-02-14T10:38:01Z</time>
      </trkpt>
      <trkpt lat="46.017442680895329" lon="9.420877452939749">
        <ele>1725.4200000000001</ele>
        <time>2021-02-14T10:38:13Z</time>
      </trkpt>
      <trkpt lat="46.017428766936064" lon="9.420916428789496">
        <ele>1725.1400000000001</ele>
        <time>2021-02-14T10:38:26Z</time>
      </trkpt>
      <trkpt lat="46.017394652590156" lon="9.421012066304684">
        <ele>1724.4000000000001</ele>
        <time>2021-02-14T10:38:45Z</time>
      </trkpt>
      <trkpt lat="46.017337823286653" lon="9.421138800680637">
        <ele>1723.9200000000001</ele>
        <time>2021-02-14T10:39:00Z</time>
      </trkpt>
      <trkpt lat="46.017273869365454" lon="9.421282131224871">
        <ele>1723.0899999999999</ele>
        <time>2021-02-14T10:39:17Z</time>
      </trkpt>
      <trkpt lat="46.017204970121384" lon="9.421413894742727">
        <ele>1723.04</ele>
        <time>2021-02-14T10:39:34Z</time>
      </trkpt>
      <trkpt lat="46.017122492194176" lon="9.421542892232537">
        <ele>1721.96</ele>
        <time>2021-02-14T10:39:52Z</time>
      </trkpt>
      <trkpt lat="46.017115535214543" lon="9.421533001586795">
        <ele>1722.1300000000001</ele>
        <time>2021-02-14T10:40:07Z</time>
      </trkpt>
      <trkpt lat="46.017112098634243" lon="9.421527972444892">
        <ele>1722.3499999999999</ele>
        <time>2021-02-14T10:40:20Z</time>
      </trkpt>
      <trkpt lat="46.017106398940086" lon="9.421524703502655">
        <ele>1722.1900000000001</ele>
        <time>2021-02-14T10:40:49Z</time>
      </trkpt>
      <trkpt lat="46.017104554921389" lon="9.421508777886629">
        <ele>1722.4100000000001</ele>
        <time>2021-02-14T10:41:05Z</time>
      </trkpt>
      <trkpt lat="46.017109332606196" lon="9.421506430953741">
        <ele>1722.6800000000001</ele>
        <time>2021-02-14T10:41:41Z</time>
      </trkpt>
      <trkpt lat="46.017110589891672" lon="9.421508107334375">
        <ele>1722.5799999999999</ele>
        <time>2021-02-14T10:41:59Z</time>
      </trkpt>
      <trkpt lat="46.017117127776146" lon="9.421524619683623">
        <ele>1722.96</ele>
        <time>2021-02-14T10:42:13Z</time>
      </trkpt>
      <trkpt lat="46.017105476930737" lon="9.421525709331036">
        <ele>1722.6300000000001</ele>
        <time>2021-02-14T10:42:23Z</time>
      </trkpt>
      <trkpt lat="46.017103884369135" lon="9.421522440388799">
        <ele>1722.1800000000001</ele>
        <time>2021-02-14T10:42:46Z</time>
      </trkpt>
      <trkpt lat="46.017098436132073" lon="9.421510035172105">
        <ele>1722.8900000000001</ele>
        <time>2021-02-14T10:43:02Z</time>
      </trkpt>
      <trkpt lat="46.017093993723392" lon="9.421507939696312">
        <ele>1722.27</ele>
        <time>2021-02-14T10:43:28Z</time>
      </trkpt>
      <trkpt lat="46.017090305685997" lon="9.421513136476278">
        <ele>1721.8099999999999</ele>
        <time>2021-02-14T10:43:52Z</time>
      </trkpt>
      <trkpt lat="46.017089551314712" lon="9.421514896675944">
        <ele>1722.0799999999999</ele>
        <time>2021-02-14T10:44:12Z</time>
      </trkpt>
      <trkpt lat="46.017092987895012" lon="9.421513807028532">
        <ele>1721.72</ele>
        <time>2021-02-14T10:44:31Z</time>
      </trkpt>
      <trkpt lat="46.017095670104027" lon="9.4215102866292">
        <ele>1721.1300000000001</ele>
        <time>2021-02-14T10:44:56Z</time>
      </trkpt>
      <trkpt lat="46.017090138047934" lon="9.421516573056579">
        <ele>1721.04</ele>
        <time>2021-02-14T10:45:15Z</time>
      </trkpt>
      <trkpt lat="46.017091982066631" lon="9.421534929424524">
        <ele>1720.8800000000001</ele>
        <time>2021-02-14T10:45:29Z</time>
      </trkpt>
      <trkpt lat="46.017063148319721" lon="9.421561667695642">
        <ele>1720.3699999999999</ele>
        <time>2021-02-14T10:45:42Z</time>
      </trkpt>
      <trkpt lat="46.017010845243931" lon="9.421596033498645">
        <ele>1718.8699999999999</ele>
        <time>2021-02-14T10:45:48Z</time>
      </trkpt>
      <trkpt lat="46.016855360940099" lon="9.421687396243215">
        <ele>1715.21</ele>
        <time>2021-02-14T10:46:04Z</time>
      </trkpt>
      <trkpt lat="46.016755281016231" lon="9.421761659905314">
        <ele>1712.01</ele>
        <time>2021-02-14T10:46:14Z</time>
      </trkpt>
      <trkpt lat="46.016633408144116" lon="9.421900045126677">
        <ele>1710.03</ele>
        <time>2021-02-14T10:46:28Z</time>
      </trkpt>
      <trkpt lat="46.016461327672005" lon="9.422066258266568">
        <ele>1709.0899999999999</ele>
        <time>2021-02-14T10:46:46Z</time>
      </trkpt>
      <trkpt lat="46.016337443143129" lon="9.422160219401121">
        <ele>1708.5699999999999</ele>
        <time>2021-02-14T10:46:59Z</time>
      </trkpt>
      <trkpt lat="46.016190089285374" lon="9.42225200124085">
        <ele>1708.75</ele>
        <time>2021-02-14T10:47:15Z</time>
      </trkpt>
      <trkpt lat="46.016055727377534" lon="9.422311848029494">
        <ele>1709.46</ele>
        <time>2021-02-14T10:47:30Z</time>
      </trkpt>
      <trkpt lat="46.015950534492731" lon="9.42243380472064">
        <ele>1712.1300000000001</ele>
        <time>2021-02-14T10:47:49Z</time>
      </trkpt>
      <trkpt lat="46.015876103192568" lon="9.422519467771053">
        <ele>1714.05</ele>
        <time>2021-02-14T10:48:03Z</time>
      </trkpt>
      <trkpt lat="46.015792870894074" lon="9.422611501067877">
        <ele>1716.48</ele>
        <time>2021-02-14T10:48:19Z</time>
      </trkpt>
      <trkpt lat="46.015716260299087" lon="9.422688530758023">
        <ele>1718.74</ele>
        <time>2021-02-14T10:48:35Z</time>
      </trkpt>
      <trkpt lat="46.015661610290408" lon="9.42274603061378">
        <ele>1720.54</ele>
        <time>2021-02-14T10:48:48Z</time>
      </trkpt>
      <trkpt lat="46.015590615570545" lon="9.422787604853511">
        <ele>1721.4300000000001</ele>
        <time>2021-02-14T10:49:01Z</time>
      </trkpt>
      <trkpt lat="46.015546107664704" lon="9.422842171043158">
        <ele>1722.6800000000001</ele>
        <time>2021-02-14T10:49:13Z</time>
      </trkpt>
      <trkpt lat="46.015532026067376" lon="9.422855414450169">
        <ele>1722.3800000000001</ele>
        <time>2021-02-14T10:49:23Z</time>
      </trkpt>
      <trkpt lat="46.015520794317126" lon="9.422863963991404">
        <ele>1722.3</ele>
        <time>2021-02-14T10:49:38Z</time>
      </trkpt>
      <trkpt lat="46.015516351908445" lon="9.422867065295577">
        <ele>1722.21</ele>
        <time>2021-02-14T10:49:54Z</time>
      </trkpt>
      <trkpt lat="46.015521381050348" lon="9.422854324802756">
        <ele>1722.3199999999999</ele>
        <time>2021-02-14T10:50:14Z</time>
      </trkpt>
      <trkpt lat="46.01551509462297" lon="9.422852229326963">
        <ele>1722.4200000000001</ele>
        <time>2021-02-14T10:50:32Z</time>
      </trkpt>
      <trkpt lat="46.015516687184572" lon="9.422850133851171">
        <ele>1722.22</ele>
        <time>2021-02-14T10:50:46Z</time>
      </trkpt>
      <trkpt lat="46.015519453212619" lon="9.42285256460309">
        <ele>1722.46</ele>
        <time>2021-02-14T10:51:04Z</time>
      </trkpt>
      <trkpt lat="46.015520626679063" lon="9.422854576259852">
        <ele>1722.5599999999999</ele>
        <time>2021-02-14T10:51:19Z</time>
      </trkpt>
      <trkpt lat="46.015519285574555" lon="9.422851642593741">
        <ele>1722.4000000000001</ele>
        <time>2021-02-14T10:51:32Z</time>
      </trkpt>
      <trkpt lat="46.015515010803938" lon="9.422847870737314">
        <ele>1722.74</ele>
        <time>2021-02-14T10:51:48Z</time>
      </trkpt>
      <trkpt lat="46.015514507889748" lon="9.42284133285284">
        <ele>1722.8499999999999</ele>
        <time>2021-02-14T10:52:05Z</time>
      </trkpt>
      <trkpt lat="46.015512496232986" lon="9.422839153558016">
        <ele>1723.1199999999999</ele>
        <time>2021-02-14T10:52:18Z</time>
      </trkpt>
      <trkpt lat="46.015509814023972" lon="9.422854240983725">
        <ele>1723.1099999999999</ele>
        <time>2021-02-14T10:52:27Z</time>
      </trkpt>
      <trkpt lat="46.015514507889748" lon="9.422850552946329">
        <ele>1723.23</ele>
        <time>2021-02-14T10:52:46Z</time>
      </trkpt>
      <trkpt lat="46.015516854822636" lon="9.422847954556346">
        <ele>1722.97</ele>
        <time>2021-02-14T10:53:04Z</time>
      </trkpt>
      <trkpt lat="46.015518866479397" lon="9.422850133851171">
        <ele>1722.9000000000001</ele>
        <time>2021-02-14T10:53:24Z</time>
      </trkpt>
      <trkpt lat="46.01548139937222" lon="9.422851391136646">
        <ele>1723.46</ele>
        <time>2021-02-14T10:53:39Z</time>
      </trkpt>
      <trkpt lat="46.015446027740836" lon="9.42286916077137">
        <ele>1722.3399999999999</ele>
        <time>2021-02-14T10:53:43Z</time>
      </trkpt>
      <trkpt lat="46.015329519286752" lon="9.422911321744323">
        <ele>1722.4400000000001</ele>
        <time>2021-02-14T10:53:58Z</time>
      </trkpt>
      <trkpt lat="46.015252321958542" lon="9.422942167147994">
        <ele>1722.49</ele>
        <time>2021-02-14T10:54:12Z</time>
      </trkpt>
      <trkpt lat="46.015172274783254" lon="9.422990698367357">
        <ele>1722.3900000000001</ele>
        <time>2021-02-14T10:54:23Z</time>
      </trkpt>
      <trkpt lat="46.01503087207675" lon="9.423093125224114">
        <ele>1722.55</ele>
        <time>2021-02-14T10:54:41Z</time>
      </trkpt>
      <trkpt lat="46.014918889850378" lon="9.423190606757999">
        <ele>1722.5899999999999</ele>
        <time>2021-02-14T10:54:57Z</time>
      </trkpt>
      <trkpt lat="46.014850493520498" lon="9.423262104392052">
        <ele>1723.01</ele>
        <time>2021-02-14T10:55:09Z</time>
      </trkpt>
      <trkpt lat="46.014763657003641" lon="9.423376517370343">
        <ele>1723.8299999999999</ele>
        <time>2021-02-14T10:55:25Z</time>
      </trkpt>
      <trkpt lat="46.014671539887786" lon="9.423511046916246">
        <ele>1724.6600000000001</ele>
        <time>2021-02-14T10:55:42Z</time>
      </trkpt>
      <trkpt lat="46.014604233205318" lon="9.423620263114572">
        <ele>1725.3199999999999</ele>
        <time>2021-02-14T10:55:55Z</time>
      </trkpt>
      <trkpt lat="46.014535166323185" lon="9.42371984012425">
        <ele>1726</ele>
        <time>2021-02-14T10:56:08Z</time>
      </trkpt>
      <trkpt lat="46.014455119147897" lon="9.423811119049788">
        <ele>1727.3099999999999</ele>
        <time>2021-02-14T10:56:22Z</time>
      </trkpt>
      <trkpt lat="46.014394853264093" lon="9.423892172053456">
        <ele>1728.0999999999999</ele>
        <time>2021-02-14T10:56:34Z</time>
      </trkpt>
      <trkpt lat="46.014322936534882" lon="9.42398127168417">
        <ele>1728.99</ele>
        <time>2021-02-14T10:56:47Z</time>
      </trkpt>
      <trkpt lat="46.014270214363933" lon="9.424069784581661">
        <ele>1729.77</ele>
        <time>2021-02-14T10:56:59Z</time>
      </trkpt>
      <trkpt lat="46.014221934601665" lon="9.424164583906531">
        <ele>1730.9200000000001</ele>
        <time>2021-02-14T10:57:13Z</time>
      </trkpt>
      <trkpt lat="46.014187904074788" lon="9.42426030524075">
        <ele>1732.3499999999999</ele>
        <time>2021-02-14T10:57:26Z</time>
      </trkpt>
      <trkpt lat="46.014170469716191" lon="9.424292407929897">
        <ele>1732.53</ele>
        <time>2021-02-14T10:57:38Z</time>
      </trkpt>
      <trkpt lat="46.014152951538563" lon="9.42435460165143">
        <ele>1732.73</ele>
        <time>2021-02-14T10:57:48Z</time>
      </trkpt>
      <trkpt lat="46.01408145390451" lon="9.424496758729219">
        <ele>1735.3800000000001</ele>
        <time>2021-02-14T10:58:06Z</time>
      </trkpt>
      <trkpt lat="46.01403409615159" lon="9.4245944917202">
        <ele>1736.7</ele>
        <time>2021-02-14T10:58:19Z</time>
      </trkpt>
      <trkpt lat="46.014031413942575" lon="9.424589714035392">
        <ele>1736.1300000000001</ele>
        <time>2021-02-14T10:58:32Z</time>
      </trkpt>
      <trkpt lat="46.014011884108186" lon="9.424637323245406">
        <ele>1736.3699999999999</ele>
        <time>2021-02-14T10:58:42Z</time>
      </trkpt>
      <trkpt lat="46.01396419107914" lon="9.424726087599993">
        <ele>1738.3099999999999</ele>
        <time>2021-02-14T10:58:55Z</time>
      </trkpt>
      <trkpt lat="46.013913815841079" lon="9.424821641296148">
        <ele>1739.7</ele>
        <time>2021-02-14T10:59:09Z</time>
      </trkpt>
      <trkpt lat="46.013875175267458" lon="9.424921469762921">
        <ele>1741.3800000000001</ele>
        <time>2021-02-14T10:59:24Z</time>
      </trkpt>
      <trkpt lat="46.013833433389664" lon="9.424994308501482">
        <ele>1742.8699999999999</ele>
        <time>2021-02-14T10:59:36Z</time>
      </trkpt>
      <trkpt lat="46.013798313215375" lon="9.425076870247722">
        <ele>1744.0599999999999</ele>
        <time>2021-02-14T10:59:50Z</time>
      </trkpt>
      <trkpt lat="46.013765791431069" lon="9.425154821947217">
        <ele>1745.7</ele>
        <time>2021-02-14T11:00:04Z</time>
      </trkpt>
      <trkpt lat="46.013764869421721" lon="9.425158761441708">
        <ele>1746.1300000000001</ele>
        <time>2021-02-14T11:00:19Z</time>
      </trkpt>
      <trkpt lat="46.013752548024058" lon="9.425189606845379">
        <ele>1747.0999999999999</ele>
        <time>2021-02-14T11:00:32Z</time>
      </trkpt>
      <trkpt lat="46.013756655156612" lon="9.425202012062073">
        <ele>1746.77</ele>
        <time>2021-02-14T11:00:44Z</time>
      </trkpt>
      <trkpt lat="46.013743244111538" lon="9.425236210227013">
        <ele>1747.01</ele>
        <time>2021-02-14T11:01:05Z</time>
      </trkpt>
      <trkpt lat="46.013717511668801" lon="9.425301756709814">
        <ele>1748.0599999999999</ele>
        <time>2021-02-14T11:01:17Z</time>
      </trkpt>
      <trkpt lat="46.013684570789337" lon="9.425392197445035">
        <ele>1749.5699999999999</ele>
        <time>2021-02-14T11:01:30Z</time>
      </trkpt>
      <trkpt lat="46.013645343482494" lon="9.425463862717152">
        <ele>1752.73</ele>
        <time>2021-02-14T11:01:45Z</time>
      </trkpt>
      <trkpt lat="46.01364417001605" lon="9.425462605431676">
        <ele>1751.3299999999999</ele>
        <time>2021-02-14T11:01:48Z</time>
      </trkpt>
      <trkpt lat="46.013618689030409" lon="9.425541562959552">
        <ele>1752.6099999999999</ele>
        <time>2021-02-14T11:01:59Z</time>
      </trkpt>
      <trkpt lat="46.013595387339592" lon="9.425602750852704">
        <ele>1754.1199999999999</ele>
        <time>2021-02-14T11:02:11Z</time>
      </trkpt>
      <trkpt lat="46.0135777015239" lon="9.425650695338845">
        <ele>1755.3299999999999</ele>
        <time>2021-02-14T11:02:26Z</time>
      </trkpt>
      <trkpt lat="46.013574935495853" lon="9.425659328699112">
        <ele>1755.53</ele>
        <time>2021-02-14T11:02:41Z</time>
      </trkpt>
      <trkpt lat="46.013550125062466" lon="9.425724456086755">
        <ele>1756.95</ele>
        <time>2021-02-14T11:03:01Z</time>
      </trkpt>
      <trkpt lat="46.013520201668143" lon="9.425804670900106">
        <ele>1759.49</ele>
        <time>2021-02-14T11:03:16Z</time>
      </trkpt>
      <trkpt lat="46.013497989624739" lon="9.425876587629318">
        <ele>1761.29</ele>
        <time>2021-02-14T11:03:30Z</time>
      </trkpt>
      <trkpt lat="46.01348047144711" lon="9.425943559035659">
        <ele>1762.96</ele>
        <time>2021-02-14T11:03:44Z</time>
      </trkpt>
      <trkpt lat="46.013475693762302" lon="9.425951270386577">
        <ele>1763.2</ele>
        <time>2021-02-14T11:04:02Z</time>
      </trkpt>
      <trkpt lat="46.013462534174323" lon="9.42601690068841">
        <ele>1764.8</ele>
        <time>2021-02-14T11:04:15Z</time>
      </trkpt>
      <trkpt lat="46.013454236090183" lon="9.426075238734484">
        <ele>1766.5699999999999</ele>
        <time>2021-02-14T11:04:27Z</time>
      </trkpt>
      <trkpt lat="46.013443591073155" lon="9.426126200705767">
        <ele>1768.2</ele>
        <time>2021-02-14T11:04:42Z</time>
      </trkpt>
      <trkpt lat="46.013427916914225" lon="9.426178755238652">
        <ele>1769.3099999999999</ele>
        <time>2021-02-14T11:04:56Z</time>
      </trkpt>
      <trkpt lat="46.013435460627079" lon="9.426269615069032">
        <ele>1770.8299999999999</ele>
        <time>2021-02-14T11:05:08Z</time>
      </trkpt>
      <trkpt lat="46.013393551111221" lon="9.426351673901081">
        <ele>1772.9000000000001</ele>
        <time>2021-02-14T11:05:22Z</time>
      </trkpt>
      <trkpt lat="46.013354323804379" lon="9.426416801288724">
        <ele>1774.51</ele>
        <time>2021-02-14T11:05:35Z</time>
      </trkpt>
      <trkpt lat="46.013304032385349" lon="9.426443707197905">
        <ele>1775.23</ele>
        <time>2021-02-14T11:05:48Z</time>
      </trkpt>
      <trkpt lat="46.0132962372154" lon="9.426448484882712">
        <ele>1775.6800000000001</ele>
        <time>2021-02-14T11:06:04Z</time>
      </trkpt>
      <trkpt lat="46.013307888060808" lon="9.426485281437635">
        <ele>1775.0899999999999</ele>
        <time>2021-02-14T11:06:16Z</time>
      </trkpt>
      <trkpt lat="46.01330746896565" lon="9.426457872614265">
        <ele>1775.05</ele>
        <time>2021-02-14T11:06:31Z</time>
      </trkpt>
      <trkpt lat="46.013297997415066" lon="9.426457537338138">
        <ele>1775.24</ele>
        <time>2021-02-14T11:06:47Z</time>
      </trkpt>
      <trkpt lat="46.013299589976668" lon="9.426456363871694">
        <ele>1775.3399999999999</ele>
        <time>2021-02-14T11:07:04Z</time>
      </trkpt>
      <trkpt lat="46.013307552784681" lon="9.426466673612595">
        <ele>1775.1400000000001</ele>
        <time>2021-02-14T11:07:18Z</time>
      </trkpt>
      <trkpt lat="46.013308810070157" lon="9.426467595621944">
        <ele>1774.98</ele>
        <time>2021-02-14T11:07:36Z</time>
      </trkpt>
      <trkpt lat="46.013310821726918" lon="9.426467763260007">
        <ele>1773.6600000000001</ele>
        <time>2021-02-14T11:07:53Z</time>
      </trkpt>
      <trkpt lat="46.013314006850123" lon="9.426468182355166">
        <ele>1775.23</ele>
        <time>2021-02-14T11:08:09Z</time>
      </trkpt>
      <trkpt lat="46.013316437602043" lon="9.42646935582161">
        <ele>1775.2</ele>
        <time>2021-02-14T11:08:31Z</time>
      </trkpt>
      <trkpt lat="46.013290202245116" lon="9.426487041637301">
        <ele>1774.8499999999999</ele>
        <time>2021-02-14T11:08:41Z</time>
      </trkpt>
      <trkpt lat="46.01328500546515" lon="9.426482515409589">
        <ele>1774.8900000000001</ele>
        <time>2021-02-14T11:08:56Z</time>
      </trkpt>
      <trkpt lat="46.013279724866152" lon="9.426480922847986">
        <ele>1774.78</ele>
        <time>2021-02-14T11:09:24Z</time>
      </trkpt>
      <trkpt lat="46.013277377933264" lon="9.426478827372193">
        <ele>1774.8599999999999</ele>
        <time>2021-02-14T11:09:43Z</time>
      </trkpt>
      <trkpt lat="46.01327863521874" lon="9.426476564258337">
        <ele>1774.99</ele>
        <time>2021-02-14T11:10:07Z</time>
      </trkpt>
      <trkpt lat="46.013280395418406" lon="9.426468266174197">
        <ele>1775.8299999999999</ele>
        <time>2021-02-14T11:10:26Z</time>
      </trkpt>
      <trkpt lat="46.013277880847454" lon="9.426463907584548">
        <ele>1775.3499999999999</ele>
        <time>2021-02-14T11:10:49Z</time>
      </trkpt>
      <trkpt lat="46.013271678239107" lon="9.426469272002578">
        <ele>1775.3099999999999</ele>
        <time>2021-02-14T11:11:07Z</time>
      </trkpt>
      <trkpt lat="46.013269582763314" lon="9.426468266174197">
        <ele>1775.0999999999999</ele>
        <time>2021-02-14T11:11:19Z</time>
      </trkpt>
      <trkpt lat="46.01325960829854" lon="9.426454184576869">
        <ele>1774.96</ele>
        <time>2021-02-14T11:11:43Z</time>
      </trkpt>
      <trkpt lat="46.013249717652798" lon="9.426468685269356">
        <ele>1775.5899999999999</ele>
        <time>2021-02-14T11:11:57Z</time>
      </trkpt>
      <trkpt lat="46.013173945248127" lon="9.426480168476701">
        <ele>1774.98</ele>
        <time>2021-02-14T11:12:06Z</time>
      </trkpt>
      <trkpt lat="46.01299624890089" lon="9.426545631140471">
        <ele>1773.78</ele>
        <time>2021-02-14T11:12:23Z</time>
      </trkpt>
      <trkpt lat="46.012823833152652" lon="9.426633892580867">
        <ele>1774.55</ele>
        <time>2021-02-14T11:12:40Z</time>
      </trkpt>
      <trkpt lat="46.012672623619437" lon="9.426721902564168">
        <ele>1776.5699999999999</ele>
        <time>2021-02-14T11:12:56Z</time>
      </trkpt>
      <trkpt lat="46.01253055036068" lon="9.426822233945131">
        <ele>1778.78</ele>
        <time>2021-02-14T11:13:12Z</time>
      </trkpt>
      <trkpt lat="46.012397613376379" lon="9.426907477900386">
        <ele>1781.77</ele>
        <time>2021-02-14T11:13:30Z</time>
      </trkpt>
      <trkpt lat="46.012266520410776" lon="9.427031949162483">
        <ele>1783.1600000000001</ele>
        <time>2021-02-14T11:13:48Z</time>
      </trkpt>
      <trkpt lat="46.012123273685575" lon="9.427142841741443">
        <ele>1783.0599999999999</ele>
        <time>2021-02-14T11:14:04Z</time>
      </trkpt>
      <trkpt lat="46.011954378336668" lon="9.427236216142774">
        <ele>1782.73</ele>
        <time>2021-02-14T11:14:21Z</time>
      </trkpt>
      <trkpt lat="46.011762600392103" lon="9.427325567230582">
        <ele>1781.21</ele>
        <time>2021-02-14T11:14:38Z</time>
      </trkpt>
      <trkpt lat="46.011577863246202" lon="9.427410056814551">
        <ele>1781.8199999999999</ele>
        <time>2021-02-14T11:14:56Z</time>
      </trkpt>
      <trkpt lat="46.011440651491284" lon="9.427513321861625">
        <ele>1783.0799999999999</ele>
        <time>2021-02-14T11:15:11Z</time>
      </trkpt>
      <trkpt lat="46.011334285140038" lon="9.427610216662288">
        <ele>1784.0899999999999</ele>
        <time>2021-02-14T11:15:24Z</time>
      </trkpt>
      <trkpt lat="46.011233869940042" lon="9.42774030379951">
        <ele>1785.6500000000001</ele>
        <time>2021-02-14T11:15:40Z</time>
      </trkpt>
      <trkpt lat="46.011216184124351" lon="9.427814399823546">
        <ele>1784.4200000000001</ele>
        <time>2021-02-14T11:15:53Z</time>
      </trkpt>
      <trkpt lat="46.011193804442883" lon="9.427832085639238">
        <ele>1783.8699999999999</ele>
        <time>2021-02-14T11:16:05Z</time>
      </trkpt>
      <trkpt lat="46.011188942939043" lon="9.427828481420875">
        <ele>1784.5</ele>
        <time>2021-02-14T11:16:25Z</time>
      </trkpt>
      <trkpt lat="46.011145608499646" lon="9.427865948528051">
        <ele>1785.05</ele>
        <time>2021-02-14T11:16:37Z</time>
      </trkpt>
      <trkpt lat="46.011144770309329" lon="9.42786393687129">
        <ele>1785.2</ele>
        <time>2021-02-14T11:16:58Z</time>
      </trkpt>
      <trkpt lat="46.011158265173435" lon="9.427827810868621">
        <ele>1785.4000000000001</ele>
        <time>2021-02-14T11:17:13Z</time>
      </trkpt>
      <trkpt lat="46.011162288486958" lon="9.427820853888989">
        <ele>1785.04</ele>
        <time>2021-02-14T11:17:31Z</time>
      </trkpt>
      <trkpt lat="46.011162623763084" lon="9.427820770069957">
        <ele>1785.98</ele>
        <time>2021-02-14T11:17:44Z</time>
      </trkpt>
      <trkpt lat="46.011158935725689" lon="9.42781213670969">
        <ele>1785.4100000000001</ele>
        <time>2021-02-14T11:17:58Z</time>
      </trkpt>
      <trkpt lat="46.011158348992467" lon="9.427806856110692">
        <ele>1784.6600000000001</ele>
        <time>2021-02-14T11:18:12Z</time>
      </trkpt>
      <trkpt lat="46.011165305972099" lon="9.427818423137069">
        <ele>1784.53</ele>
        <time>2021-02-14T11:19:11Z</time>
      </trkpt>
      <trkpt lat="46.011163629591465" lon="9.427816076204181">
        <ele>1784.76</ele>
        <time>2021-02-14T11:20:06Z</time>
      </trkpt>
      <trkpt lat="46.011166479438543" lon="9.427817584946752">
        <ele>1784.96</ele>
        <time>2021-02-14T11:20:31Z</time>
      </trkpt>
      <trkpt lat="46.011165976524353" lon="9.427815321832895">
        <ele>1785.0999999999999</ele>
        <time>2021-02-14T11:21:38Z</time>
      </trkpt>
      <trkpt lat="46.011163797229528" lon="9.427818339318037">
        <ele>1785.3399999999999</ele>
        <time>2021-02-14T11:22:47Z</time>
      </trkpt>
      <trkpt lat="46.011163461953402" lon="9.427818087860942">
        <ele>1784.8199999999999</ele>
        <time>2021-02-14T11:23:47Z</time>
      </trkpt>
      <trkpt lat="46.011162456125021" lon="9.427833594381809">
        <ele>1785.6800000000001</ele>
        <time>2021-02-14T11:24:22Z</time>
      </trkpt>
      <trkpt lat="46.011155163869262" lon="9.427831247448921">
        <ele>1786.23</ele>
        <time>2021-02-14T11:24:43Z</time>
      </trkpt>
      <trkpt lat="46.011161282658577" lon="9.427826134487987">
        <ele>1785.6700000000001</ele>
        <time>2021-02-14T11:24:59Z</time>
      </trkpt>
      <trkpt lat="46.011162959039211" lon="9.427826218307018">
        <ele>1785.71</ele>
        <time>2021-02-14T11:25:13Z</time>
      </trkpt>
      <trkpt lat="46.011158265173435" lon="9.4278116337955">
        <ele>1785.8299999999999</ele>
        <time>2021-02-14T11:25:25Z</time>
      </trkpt>
      <trkpt lat="46.011156756430864" lon="9.427810208871961">
        <ele>1786.3</ele>
        <time>2021-02-14T11:25:40Z</time>
      </trkpt>
      <trkpt lat="46.011160109192133" lon="9.427800988778472">
        <ele>1785.51</ele>
        <time>2021-02-14T11:25:57Z</time>
      </trkpt>
      <trkpt lat="46.011215765029192" lon="9.427711218595505">
        <ele>1786.48</ele>
        <time>2021-02-14T11:26:12Z</time>
      </trkpt>
      <trkpt lat="46.011214256286621" lon="9.427715828642249">
        <ele>1786.21</ele>
        <time>2021-02-14T11:26:26Z</time>
      </trkpt>
      <trkpt lat="46.011223308742046" lon="9.427724713459611">
        <ele>1786.6400000000001</ele>
        <time>2021-02-14T11:26:41Z</time>
      </trkpt>
      <trkpt lat="46.011236384510994" lon="9.427708452567458">
        <ele>1786.9000000000001</ele>
        <time>2021-02-14T11:26:58Z</time>
      </trkpt>
      <trkpt lat="46.011229511350393" lon="9.427702920511365">
        <ele>1785.8199999999999</ele>
        <time>2021-02-14T11:27:13Z</time>
      </trkpt>
      <trkpt lat="46.011226242408156" lon="9.427703004330397">
        <ele>1786.3199999999999</ele>
        <time>2021-02-14T11:27:28Z</time>
      </trkpt>
      <trkpt lat="46.011211825534701" lon="9.427671069279313">
        <ele>1786.27</ele>
        <time>2021-02-14T11:27:38Z</time>
      </trkpt>
      <trkpt lat="46.011243090033531" lon="9.427646929398179">
        <ele>1786.3499999999999</ele>
        <time>2021-02-14T11:27:57Z</time>
      </trkpt>
      <trkpt lat="46.011293716728687" lon="9.427618850022554">
        <ele>1785.78</ele>
        <time>2021-02-14T11:28:03Z</time>
      </trkpt>
      <trkpt lat="46.011477112770081" lon="9.42746127024293">
        <ele>1783.99</ele>
        <time>2021-02-14T11:28:23Z</time>
      </trkpt>
      <trkpt lat="46.011647852137685" lon="9.427363034337759">
        <ele>1782.76</ele>
        <time>2021-02-14T11:28:40Z</time>
      </trkpt>
      <trkpt lat="46.0118024982512" lon="9.427294973284006">
        <ele>1783.1500000000001</ele>
        <time>2021-02-14T11:28:56Z</time>
      </trkpt>
      <trkpt lat="46.011856896802783" lon="9.427263122051954">
        <ele>1783.6700000000001</ele>
        <time>2021-02-14T11:29:07Z</time>
      </trkpt>
      <trkpt lat="46.011961922049522" lon="9.427211321890354">
        <ele>1784.24</ele>
        <time>2021-02-14T11:29:21Z</time>
      </trkpt>
      <trkpt lat="46.012083040550351" lon="9.427143009379506">
        <ele>1784.48</ele>
        <time>2021-02-14T11:29:36Z</time>
      </trkpt>
      <trkpt lat="46.012207176536322" lon="9.427054831758142">
        <ele>1784.75</ele>
        <time>2021-02-14T11:29:51Z</time>
      </trkpt>
      <trkpt lat="46.012305999174714" lon="9.426951231434941">
        <ele>1785.45</ele>
        <time>2021-02-14T11:30:05Z</time>
      </trkpt>
      <trkpt lat="46.012391410768032" lon="9.426870262250304">
        <ele>1783.24</ele>
        <time>2021-02-14T11:30:17Z</time>
      </trkpt>
      <trkpt lat="46.012549996376038" lon="9.426767164841294">
        <ele>1780.6700000000001</ele>
        <time>2021-02-14T11:30:34Z</time>
      </trkpt>
      <trkpt lat="46.012652004137635" lon="9.426694493740797">
        <ele>1777.6099999999999</ele>
        <time>2021-02-14T11:30:45Z</time>
      </trkpt>
      <trkpt lat="46.012813691049814" lon="9.426607405766845">
        <ele>1775.22</ele>
        <time>2021-02-14T11:31:03Z</time>
      </trkpt>
      <trkpt lat="46.012944281101227" lon="9.426540266722441">
        <ele>1774.0899999999999</ele>
        <time>2021-02-14T11:31:17Z</time>
      </trkpt>
      <trkpt lat="46.013116361573339" lon="9.426478911191225">
        <ele>1774.5</ele>
        <time>2021-02-14T11:31:35Z</time>
      </trkpt>
      <trkpt lat="46.013250136747956" lon="9.426431721076369">
        <ele>1775.02</ele>
        <time>2021-02-14T11:31:51Z</time>
      </trkpt>
      <trkpt lat="46.013316940516233" lon="9.426382016390562">
        <ele>1774.8299999999999</ele>
        <time>2021-02-14T11:32:06Z</time>
      </trkpt>
      <trkpt lat="46.013356922194362" lon="9.426255449652672">
        <ele>1771.79</ele>
        <time>2021-02-14T11:32:18Z</time>
      </trkpt>
      <trkpt lat="46.013372763991356" lon="9.42613516934216">
        <ele>1768.9200000000001</ele>
        <time>2021-02-14T11:32:30Z</time>
      </trkpt>
      <trkpt lat="46.013373853638768" lon="9.426024779677391">
        <ele>1765.8800000000001</ele>
        <time>2021-02-14T11:32:42Z</time>
      </trkpt>
      <trkpt lat="46.013407297432423" lon="9.425899805501103">
        <ele>1762.8900000000001</ele>
        <time>2021-02-14T11:32:55Z</time>
      </trkpt>
      <trkpt lat="46.013439819216728" lon="9.425803162157536">
        <ele>1760.4200000000001</ele>
        <time>2021-02-14T11:33:05Z</time>
      </trkpt>
      <trkpt lat="46.013495475053787" lon="9.425693107768893">
        <ele>1757.27</ele>
        <time>2021-02-14T11:33:17Z</time>
      </trkpt>
      <trkpt lat="46.013529757037759" lon="9.425664693117142">
        <ele>1755.8699999999999</ele>
        <time>2021-02-14T11:33:29Z</time>
      </trkpt>
      <trkpt lat="46.013537971302867" lon="9.425647258758545">
        <ele>1755.3299999999999</ele>
        <time>2021-02-14T11:33:42Z</time>
      </trkpt>
      <trkpt lat="46.013562697917223" lon="9.425551872700453">
        <ele>1753.3199999999999</ele>
        <time>2021-02-14T11:33:54Z</time>
      </trkpt>
      <trkpt lat="46.013620030134916" lon="9.425418768078089">
        <ele>1750.52</ele>
        <time>2021-02-14T11:34:08Z</time>
      </trkpt>
      <trkpt lat="46.013666884973645" lon="9.425289854407311">
        <ele>1747.46</ele>
        <time>2021-02-14T11:34:21Z</time>
      </trkpt>
      <trkpt lat="46.013727653771639" lon="9.425134286284447">
        <ele>1744.8199999999999</ele>
        <time>2021-02-14T11:34:36Z</time>
      </trkpt>
      <trkpt lat="46.01379512809217" lon="9.424972599372268">
        <ele>1741.54</ele>
        <time>2021-02-14T11:34:51Z</time>
      </trkpt>
      <trkpt lat="46.013850029557943" lon="9.424843518063426">
        <ele>1739.3599999999999</ele>
        <time>2021-02-14T11:35:04Z</time>
      </trkpt>
      <trkpt lat="46.013922700658441" lon="9.42471225745976">
        <ele>1737.54</ele>
        <time>2021-02-14T11:35:17Z</time>
      </trkpt>
      <trkpt lat="46.014004591852427" lon="9.424569848924875">
        <ele>1735.4300000000001</ele>
        <time>2021-02-14T11:35:31Z</time>
      </trkpt>
      <trkpt lat="46.014079945161939" lon="9.424412520602346">
        <ele>1733.26</ele>
        <time>2021-02-14T11:35:46Z</time>
      </trkpt>
      <trkpt lat="46.014148760586977" lon="9.42425150424242">
        <ele>1731.0899999999999</ele>
        <time>2021-02-14T11:36:01Z</time>
      </trkpt>
      <trkpt lat="46.01425395347178" lon="9.424019828438759">
        <ele>1728.1600000000001</ele>
        <time>2021-02-14T11:36:21Z</time>
      </trkpt>
      <trkpt lat="46.0143599845469" lon="9.423876665532589">
        <ele>1726.4300000000001</ele>
        <time>2021-02-14T11:36:36Z</time>
      </trkpt>
      <trkpt lat="46.0144635848701" lon="9.42376141436398">
        <ele>1725.48</ele>
        <time>2021-02-14T11:36:50Z</time>
      </trkpt>
      <trkpt lat="46.014574896544218" lon="9.42362361587584">
        <ele>1723.8399999999999</ele>
        <time>2021-02-14T11:37:05Z</time>
      </trkpt>
      <trkpt lat="46.014675982296467" lon="9.423463186249137">
        <ele>1722.6500000000001</ele>
        <time>2021-02-14T11:37:20Z</time>
      </trkpt>
      <trkpt lat="46.014787293970585" lon="9.423300493508577">
        <ele>1721.5799999999999</ele>
        <time>2021-02-14T11:37:36Z</time>
      </trkpt>
      <trkpt lat="46.014917884021997" lon="9.423159342259169">
        <ele>1720.6400000000001</ele>
        <time>2021-02-14T11:37:52Z</time>
      </trkpt>
      <trkpt lat="46.015041097998619" lon="9.423058424144983">
        <ele>1721.0899999999999</ele>
        <time>2021-02-14T11:38:06Z</time>
      </trkpt>
      <trkpt lat="46.015165485441685" lon="9.422979634255171">
        <ele>1720.76</ele>
        <time>2021-02-14T11:38:20Z</time>
      </trkpt>
      <trkpt lat="46.015292638912797" lon="9.422902269288898">
        <ele>1719.73</ele>
        <time>2021-02-14T11:38:34Z</time>
      </trkpt>
      <trkpt lat="46.015416020527482" lon="9.422861533239484">
        <ele>1719.71</ele>
        <time>2021-02-14T11:38:47Z</time>
      </trkpt>
      <trkpt lat="46.015521883964539" lon="9.422787521034479">
        <ele>1720</ele>
        <time>2021-02-14T11:39:01Z</time>
      </trkpt>
      <trkpt lat="46.015639482066035" lon="9.422726836055517">
        <ele>1718.95</ele>
        <time>2021-02-14T11:39:15Z</time>
      </trkpt>
      <trkpt lat="46.015725396573544" lon="9.422630192711949">
        <ele>1715.7</ele>
        <time>2021-02-14T11:39:28Z</time>
      </trkpt>
      <trkpt lat="46.015782644972205" lon="9.422574117779732">
        <ele>1713.9300000000001</ele>
        <time>2021-02-14T11:39:36Z</time>
      </trkpt>
      <trkpt lat="46.015884652733803" lon="9.422479821369052">
        <ele>1711.5599999999999</ele>
        <time>2021-02-14T11:39:51Z</time>
      </trkpt>
      <trkpt lat="46.015912313014269" lon="9.422447048127651">
        <ele>1710.8099999999999</ele>
        <time>2021-02-14T11:39:58Z</time>
      </trkpt>
      <trkpt lat="46.015999233350158" lon="9.422341687604785">
        <ele>1708.49</ele>
        <time>2021-02-14T11:40:10Z</time>
      </trkpt>
      <trkpt lat="46.016144575551152" lon="9.422257114201784">
        <ele>1707.4100000000001</ele>
        <time>2021-02-14T11:40:26Z</time>
      </trkpt>
      <trkpt lat="46.016207188367844" lon="9.422205900773406">
        <ele>1706.9100000000001</ele>
        <time>2021-02-14T11:40:37Z</time>
      </trkpt>
      <trkpt lat="46.016297629103065" lon="9.422143874689937">
        <ele>1707.1500000000001</ele>
        <time>2021-02-14T11:40:49Z</time>
      </trkpt>
      <trkpt lat="46.01630475372076" lon="9.422120489180088">
        <ele>1706.97</ele>
        <time>2021-02-14T11:40:51Z</time>
      </trkpt>
      <trkpt lat="46.016372479498386" lon="9.421978583559394">
        <ele>1705.8399999999999</ele>
        <time>2021-02-14T11:41:06Z</time>
      </trkpt>
      <trkpt lat="46.016403743997216" lon="9.421953270211816">
        <ele>1706.3299999999999</ele>
        <time>2021-02-14T11:41:20Z</time>
      </trkpt>
      <trkpt lat="46.016405252739787" lon="9.421955952420831">
        <ele>1706.24</ele>
        <time>2021-02-14T11:41:39Z</time>
      </trkpt>
      <trkpt lat="46.016404498368502" lon="9.421961903572083">
        <ele>1706.29</ele>
        <time>2021-02-14T11:42:01Z</time>
      </trkpt>
      <trkpt lat="46.016405252739787" lon="9.421962322667241">
        <ele>1706.1600000000001</ele>
        <time>2021-02-14T11:42:16Z</time>
      </trkpt>
      <trkpt lat="46.016396535560489" lon="9.421945894137025">
        <ele>1705.1900000000001</ele>
        <time>2021-02-14T11:42:33Z</time>
      </trkpt>
      <trkpt lat="46.016397289931774" lon="9.421955952420831">
        <ele>1705.79</ele>
        <time>2021-02-14T11:42:49Z</time>
      </trkpt>
      <trkpt lat="46.016399972140789" lon="9.421957796439529">
        <ele>1705.51</ele>
        <time>2021-02-14T11:43:05Z</time>
      </trkpt>
      <trkpt lat="46.016407515853643" lon="9.421950923278928">
        <ele>1705.8900000000001</ele>
        <time>2021-02-14T11:43:22Z</time>
      </trkpt>
      <trkpt lat="46.016413047909737" lon="9.421947821974754">
        <ele>1706.3499999999999</ele>
        <time>2021-02-14T11:43:42Z</time>
      </trkpt>
      <trkpt lat="46.016415730118752" lon="9.42194907926023">
        <ele>1706.29</ele>
        <time>2021-02-14T11:44:00Z</time>
      </trkpt>
      <trkpt lat="46.016414472833276" lon="9.421951761469245">
        <ele>1705.78</ele>
        <time>2021-02-14T11:44:13Z</time>
      </trkpt>
      <trkpt lat="46.016431739553809" lon="9.421925861388445">
        <ele>1706.05</ele>
        <time>2021-02-14T11:44:26Z</time>
      </trkpt>
      <trkpt lat="46.016457471996546" lon="9.421937176957727">
        <ele>1706.8299999999999</ele>
        <time>2021-02-14T11:44:37Z</time>
      </trkpt>
      <trkpt lat="46.016459818929434" lon="9.421943882480264">
        <ele>1706.8900000000001</ele>
        <time>2021-02-14T11:44:50Z</time>
      </trkpt>
      <trkpt lat="46.016477672383189" lon="9.421825110912323">
        <ele>1706.02</ele>
        <time>2021-02-14T11:45:04Z</time>
      </trkpt>
      <trkpt lat="46.01648697629571" lon="9.421752104535699">
        <ele>1705.0699999999999</ele>
        <time>2021-02-14T11:45:17Z</time>
      </trkpt>
      <trkpt lat="46.016471134498715" lon="9.421673314645886">
        <ele>1703.8399999999999</ele>
        <time>2021-02-14T11:45:27Z</time>
      </trkpt>
      <trkpt lat="46.016468703746796" lon="9.42160994745791">
        <ele>1702.1400000000001</ele>
        <time>2021-02-14T11:45:36Z</time>
      </trkpt>
      <trkpt lat="46.016480438411236" lon="9.421645905822516">
        <ele>1702.8299999999999</ele>
        <time>2021-02-14T11:45:51Z</time>
      </trkpt>
      <trkpt lat="46.016504410654306" lon="9.42171161994338">
        <ele>1704.8099999999999</ele>
        <time>2021-02-14T11:46:03Z</time>
      </trkpt>
      <trkpt lat="46.016513714566827" lon="9.421718074008822">
        <ele>1704.75</ele>
        <time>2021-02-14T11:46:17Z</time>
      </trkpt>
      <trkpt lat="46.016523689031601" lon="9.421731820330024">
        <ele>1704.4100000000001</ele>
        <time>2021-02-14T11:46:28Z</time>
      </trkpt>
      <trkpt lat="46.016518827527761" lon="9.42174581810832">
        <ele>1704.6700000000001</ele>
        <time>2021-02-14T11:47:11Z</time>
      </trkpt>
      <trkpt lat="46.016517989337444" lon="9.421737603843212">
        <ele>1705.26</ele>
        <time>2021-02-14T11:47:34Z</time>
      </trkpt>
      <trkpt lat="46.016522515565157" lon="9.421728299930692">
        <ele>1705.6500000000001</ele>
        <time>2021-02-14T11:47:47Z</time>
      </trkpt>
      <trkpt lat="46.016526455059648" lon="9.421732574701309">
        <ele>1705.8399999999999</ele>
        <time>2021-02-14T11:48:02Z</time>
      </trkpt>
      <trkpt lat="46.016528634354472" lon="9.421728635206819">
        <ele>1705.74</ele>
        <time>2021-02-14T11:48:19Z</time>
      </trkpt>
      <trkpt lat="46.01652804762125" lon="9.421734334900975">
        <ele>1705.9100000000001</ele>
        <time>2021-02-14T11:48:40Z</time>
      </trkpt>
      <trkpt lat="46.016524191945791" lon="9.421732993796468">
        <ele>1705.9300000000001</ele>
        <time>2021-02-14T11:49:06Z</time>
      </trkpt>
      <trkpt lat="46.01652410812676" lon="9.421729724854231">
        <ele>1705.9000000000001</ele>
        <time>2021-02-14T11:49:34Z</time>
      </trkpt>
      <trkpt lat="46.016515474766493" lon="9.421727545559406">
        <ele>1706.1400000000001</ele>
        <time>2021-02-14T11:49:56Z</time>
      </trkpt>
      <trkpt lat="46.016517905518413" lon="9.421726120635867">
        <ele>1706.3499999999999</ele>
        <time>2021-02-14T11:50:18Z</time>
      </trkpt>
      <trkpt lat="46.016520252451301" lon="9.421728886663914">
        <ele>1706.4400000000001</ele>
        <time>2021-02-14T11:50:38Z</time>
      </trkpt>
      <trkpt lat="46.016521174460649" lon="9.421731401234865">
        <ele>1706.6800000000001</ele>
        <time>2021-02-14T11:51:00Z</time>
      </trkpt>
      <trkpt lat="46.016523689031601" lon="9.421730311587453">
        <ele>1706.3399999999999</ele>
        <time>2021-02-14T11:51:19Z</time>
      </trkpt>
      <trkpt lat="46.016506925225258" lon="9.421789906919003">
        <ele>1706.54</ele>
        <time>2021-02-14T11:51:31Z</time>
      </trkpt>
      <trkpt lat="46.016477756202221" lon="9.421915048733354">
        <ele>1707.7</ele>
        <time>2021-02-14T11:51:45Z</time>
      </trkpt>
      <trkpt lat="46.016469122841954" lon="9.421959472820163">
        <ele>1708.22</ele>
        <time>2021-02-14T11:51:57Z</time>
      </trkpt>
      <trkpt lat="46.0164615791291" lon="9.421960562467575">
        <ele>1707.9100000000001</ele>
        <time>2021-02-14T11:52:13Z</time>
      </trkpt>
      <trkpt lat="46.016461746767163" lon="9.421957209706307">
        <ele>1708.2</ele>
        <time>2021-02-14T11:52:29Z</time>
      </trkpt>
      <trkpt lat="46.016458813101053" lon="9.421963077038527">
        <ele>1708.3599999999999</ele>
        <time>2021-02-14T11:52:46Z</time>
      </trkpt>
      <trkpt lat="46.016460321843624" lon="9.421957125887275">
        <ele>1707.6600000000001</ele>
        <time>2021-02-14T11:53:04Z</time>
      </trkpt>
      <trkpt lat="46.016454957425594" lon="9.421950085088611">
        <ele>1708.1300000000001</ele>
        <time>2021-02-14T11:53:21Z</time>
      </trkpt>
      <trkpt lat="46.016456382349133" lon="9.421962490305305">
        <ele>1708.0999999999999</ele>
        <time>2021-02-14T11:53:37Z</time>
      </trkpt>
      <trkpt lat="46.016457052901387" lon="9.421960227191448">
        <ele>1708.0599999999999</ele>
        <time>2021-02-14T11:53:54Z</time>
      </trkpt>
      <trkpt lat="46.016457136720419" lon="9.421959472820163">
        <ele>1708.1900000000001</ele>
        <time>2021-02-14T11:54:11Z</time>
      </trkpt>
      <trkpt lat="46.016456298530102" lon="9.421958634629846">
        <ele>1708.1300000000001</ele>
        <time>2021-02-14T11:54:28Z</time>
      </trkpt>
      <trkpt lat="46.016457807272673" lon="9.421951090916991">
        <ele>1708.24</ele>
        <time>2021-02-14T11:54:51Z</time>
      </trkpt>
      <trkpt lat="46.016458310186863" lon="9.421954862773418">
        <ele>1708.1099999999999</ele>
        <time>2021-02-14T11:55:06Z</time>
      </trkpt>
      <trkpt lat="46.01646107621491" lon="9.421960227191448">
        <ele>1708.8199999999999</ele>
        <time>2021-02-14T11:55:21Z</time>
      </trkpt>
      <trkpt lat="46.016457639634609" lon="9.421962993219495">
        <ele>1708.54</ele>
        <time>2021-02-14T11:55:33Z</time>
      </trkpt>
      <trkpt lat="46.01645965129137" lon="9.421966765075922">
        <ele>1708.29</ele>
        <time>2021-02-14T11:55:51Z</time>
      </trkpt>
      <trkpt lat="46.016457555815578" lon="9.421968441456556">
        <ele>1708.4100000000001</ele>
        <time>2021-02-14T11:56:12Z</time>
      </trkpt>
      <trkpt lat="46.016460070386529" lon="9.421964501962066">
        <ele>1708.6400000000001</ele>
        <time>2021-02-14T11:56:28Z</time>
      </trkpt>
      <trkpt lat="46.01645965129137" lon="9.421962574124336">
        <ele>1708.74</ele>
        <time>2021-02-14T11:56:43Z</time>
      </trkpt>
      <trkpt lat="46.016457304358482" lon="9.421962155029178">
        <ele>1708.5</ele>
        <time>2021-02-14T11:57:00Z</time>
      </trkpt>
      <trkpt lat="46.016458226367831" lon="9.421966345980763">
        <ele>1708.5899999999999</ele>
        <time>2021-02-14T11:57:22Z</time>
      </trkpt>
      <trkpt lat="46.016457807272673" lon="9.421967184171081">
        <ele>1708.3900000000001</ele>
        <time>2021-02-14T11:57:38Z</time>
      </trkpt>
      <trkpt lat="46.016462417319417" lon="9.421964334324002">
        <ele>1708.4100000000001</ele>
        <time>2021-02-14T11:57:55Z</time>
      </trkpt>
      <trkpt lat="46.016458729282022" lon="9.421966429799795">
        <ele>1708.45</ele>
        <time>2021-02-14T11:58:17Z</time>
      </trkpt>
      <trkpt lat="46.016458477824926" lon="9.421962825581431">
        <ele>1708.0899999999999</ele>
        <time>2021-02-14T11:58:42Z</time>
      </trkpt>
      <trkpt lat="46.016453616321087" lon="9.421960227191448">
        <ele>1708.1199999999999</ele>
        <time>2021-02-14T11:58:59Z</time>
      </trkpt>
      <trkpt lat="46.016456047073007" lon="9.4219661783427">
        <ele>1707.55</ele>
        <time>2021-02-14T11:59:15Z</time>
      </trkpt>
      <trkpt lat="46.016454789787531" lon="9.421973302960396">
        <ele>1708.3299999999999</ele>
        <time>2021-02-14T11:59:46Z</time>
      </trkpt>
      <trkpt lat="46.016454873606563" lon="9.421974308788776">
        <ele>1708.5999999999999</ele>
        <time>2021-02-14T12:00:11Z</time>
      </trkpt>
      <trkpt lat="46.01645277813077" lon="9.421970034018159">
        <ele>1708.3499999999999</ele>
        <time>2021-02-14T12:00:29Z</time>
      </trkpt>
      <trkpt lat="46.016453113406897" lon="9.421955700963736">
        <ele>1709.1199999999999</ele>
        <time>2021-02-14T12:00:47Z</time>
      </trkpt>
      <trkpt lat="46.016453951597214" lon="9.421948492527008">
        <ele>1708.4300000000001</ele>
        <time>2021-02-14T12:01:02Z</time>
      </trkpt>
      <trkpt lat="46.016455795615911" lon="9.421947235241532">
        <ele>1708.28</ele>
        <time>2021-02-14T12:01:17Z</time>
      </trkpt>
      <trkpt lat="46.016453700140119" lon="9.421942960470915">
        <ele>1708.53</ele>
        <time>2021-02-14T12:01:33Z</time>
      </trkpt>
      <trkpt lat="46.016454873606563" lon="9.421941032633185">
        <ele>1709.0899999999999</ele>
        <time>2021-02-14T12:01:46Z</time>
      </trkpt>
      <trkpt lat="46.016455460339785" lon="9.421947570517659">
        <ele>1708.6400000000001</ele>
        <time>2021-02-14T12:02:04Z</time>
      </trkpt>
      <trkpt lat="46.016452945768833" lon="9.421944469213486">
        <ele>1709.3699999999999</ele>
        <time>2021-02-14T12:02:23Z</time>
      </trkpt>
      <trkpt lat="46.016453867778182" lon="9.421945810317993">
        <ele>1709.2</ele>
        <time>2021-02-14T12:02:43Z</time>
      </trkpt>
      <trkpt lat="46.01645328104496" lon="9.421944553032517">
        <ele>1709.0799999999999</ele>
        <time>2021-02-14T12:02:55Z</time>
      </trkpt>
      <trkpt lat="46.016451520845294" lon="9.42194857634604">
        <ele>1709.0699999999999</ele>
        <time>2021-02-14T12:03:10Z</time>
      </trkpt>
      <trkpt lat="46.016453700140119" lon="9.421943631023169">
        <ele>1709.0599999999999</ele>
        <time>2021-02-14T12:03:32Z</time>
      </trkpt>
      <trkpt lat="46.016450431197882" lon="9.421943379566073">
        <ele>1707.98</ele>
        <time>2021-02-14T12:03:47Z</time>
      </trkpt>
      <trkpt lat="46.016459986567497" lon="9.421944972127676">
        <ele>1708.9400000000001</ele>
        <time>2021-02-14T12:03:59Z</time>
      </trkpt>
      <trkpt lat="46.016437271609902" lon="9.421946061775088">
        <ele>1708.5999999999999</ele>
        <time>2021-02-14T12:04:09Z</time>
      </trkpt>
      <trkpt lat="46.016436265781522" lon="9.421932315453887">
        <ele>1708.0799999999999</ele>
        <time>2021-02-14T12:04:17Z</time>
      </trkpt>
      <trkpt lat="46.016436265781522" lon="9.42189141176641">
        <ele>1707.6300000000001</ele>
        <time>2021-02-14T12:04:28Z</time>
      </trkpt>
      <trkpt lat="46.016505667939782" lon="9.42174187861383">
        <ele>1707.4200000000001</ele>
        <time>2021-02-14T12:04:44Z</time>
      </trkpt>
      <trkpt lat="46.016548499464989" lon="9.421649593859911">
        <ele>1707.04</ele>
        <time>2021-02-14T12:04:57Z</time>
      </trkpt>
      <trkpt lat="46.016545817255974" lon="9.421643307432532">
        <ele>1707.1800000000001</ele>
        <time>2021-02-14T12:05:11Z</time>
      </trkpt>
      <trkpt lat="46.016534082591534" lon="9.42160751670599">
        <ele>1705.9200000000001</ele>
        <time>2021-02-14T12:05:21Z</time>
      </trkpt>
      <trkpt lat="46.016531400382519" lon="9.421613635495305">
        <ele>1705.45</ele>
        <time>2021-02-14T12:05:35Z</time>
      </trkpt>
      <trkpt lat="46.016528131440282" lon="9.421615060418844">
        <ele>1705.23</ele>
        <time>2021-02-14T12:06:11Z</time>
      </trkpt>
      <trkpt lat="46.016528382897377" lon="9.421615144237876">
        <ele>1705.47</ele>
        <time>2021-02-14T12:07:10Z</time>
      </trkpt>
      <trkpt lat="46.016533328220248" lon="9.421621849760413">
        <ele>1705.51</ele>
        <time>2021-02-14T12:07:22Z</time>
      </trkpt>
      <trkpt lat="46.016543051227927" lon="9.421620341017842">
        <ele>1707.0699999999999</ele>
        <time>2021-02-14T12:07:39Z</time>
      </trkpt>
      <trkpt lat="46.016536429524422" lon="9.421621263027191">
        <ele>1706.72</ele>
        <time>2021-02-14T12:07:55Z</time>
      </trkpt>
      <trkpt lat="46.016538525000215" lon="9.42162218503654">
        <ele>1707.04</ele>
        <time>2021-02-14T12:08:15Z</time>
      </trkpt>
      <trkpt lat="46.016536429524422" lon="9.42162168212235">
        <ele>1706.97</ele>
        <time>2021-02-14T12:08:31Z</time>
      </trkpt>
      <trkpt lat="46.016533747315407" lon="9.421623023226857">
        <ele>1706.8900000000001</ele>
        <time>2021-02-14T12:08:48Z</time>
      </trkpt>
      <trkpt lat="46.01653391495347" lon="9.421618664637208">
        <ele>1706.96</ele>
        <time>2021-02-14T12:09:07Z</time>
      </trkpt>
      <trkpt lat="46.016529807820916" lon="9.421620760113001">
        <ele>1706.8699999999999</ele>
        <time>2021-02-14T12:09:20Z</time>
      </trkpt>
      <trkpt lat="46.016532657667994" lon="9.421621263027191">
        <ele>1707.0699999999999</ele>
        <time>2021-02-14T12:09:32Z</time>
      </trkpt>
      <trkpt lat="46.016535172238946" lon="9.421628890559077">
        <ele>1706.8</ele>
        <time>2021-02-14T12:09:49Z</time>
      </trkpt>
      <trkpt lat="46.016533747315407" lon="9.421632410958409">
        <ele>1706.76</ele>
        <time>2021-02-14T12:10:03Z</time>
      </trkpt>
      <trkpt lat="46.016530813649297" lon="9.421637021005154">
        <ele>1705.0999999999999</ele>
        <time>2021-02-14T12:10:13Z</time>
      </trkpt>
      <trkpt lat="46.016531148925424" lon="9.421637356281281">
        <ele>1709.29</ele>
        <time>2021-02-14T12:10:15Z</time>
      </trkpt>
      <trkpt lat="46.016531232744455" lon="9.421637943014503">
        <ele>1708.21</ele>
        <time>2021-02-14T12:10:16Z</time>
      </trkpt>
      <trkpt lat="46.01653098128736" lon="9.4216363504529">
        <ele>1707.21</ele>
        <time>2021-02-14T12:10:36Z</time>
      </trkpt>
      <trkpt lat="46.016532070934772" lon="9.421633668243885">
        <ele>1707.01</ele>
        <time>2021-02-14T12:10:55Z</time>
      </trkpt>
      <trkpt lat="46.016512960195541" lon="9.421620424836874">
        <ele>1706.0799999999999</ele>
        <time>2021-02-14T12:11:13Z</time>
      </trkpt>
      <trkpt lat="46.016469961032271" lon="9.42150785587728">
        <ele>1703.3099999999999</ele>
        <time>2021-02-14T12:11:25Z</time>
      </trkpt>
      <trkpt lat="46.016456969082355" lon="9.421434681862593">
        <ele>1700.8900000000001</ele>
        <time>2021-02-14T12:11:35Z</time>
      </trkpt>
      <trkpt lat="46.016455879434943" lon="9.421406602486968">
        <ele>1701.22</ele>
        <time>2021-02-14T12:11:44Z</time>
      </trkpt>
      <trkpt lat="46.01645914837718" lon="9.421407021582127">
        <ele>1700.6400000000001</ele>
        <time>2021-02-14T12:12:00Z</time>
      </trkpt>
      <trkpt lat="46.016464261338115" lon="9.421410877257586">
        <ele>1700.6700000000001</ele>
        <time>2021-02-14T12:12:36Z</time>
      </trkpt>
      <trkpt lat="46.016469374299049" lon="9.421370895579457">
        <ele>1700.29</ele>
        <time>2021-02-14T12:12:50Z</time>
      </trkpt>
      <trkpt lat="46.016533579677343" lon="9.421212142333388">
        <ele>1697.5599999999999</ele>
        <time>2021-02-14T12:13:03Z</time>
      </trkpt>
      <trkpt lat="46.016651261597872" lon="9.42099086008966">
        <ele>1695.0599999999999</ele>
        <time>2021-02-14T12:13:20Z</time>
      </trkpt>
      <trkpt lat="46.016721501946449" lon="9.420759603381157">
        <ele>1694.3800000000001</ele>
        <time>2021-02-14T12:13:35Z</time>
      </trkpt>
      <trkpt lat="46.016743127256632" lon="9.420520132407546">
        <ele>1694.28</ele>
        <time>2021-02-14T12:13:50Z</time>
      </trkpt>
      <trkpt lat="46.016780342906713" lon="9.420258114114404">
        <ele>1693.8900000000001</ele>
        <time>2021-02-14T12:14:07Z</time>
      </trkpt>
      <trkpt lat="46.016811691224575" lon="9.420000202953816">
        <ele>1693.5999999999999</ele>
        <time>2021-02-14T12:14:24Z</time>
      </trkpt>
      <trkpt lat="46.01688276976347" lon="9.419808760285378">
        <ele>1693.5599999999999</ele>
        <time>2021-02-14T12:14:38Z</time>
      </trkpt>
      <trkpt lat="46.016974383965135" lon="9.419630225747824">
        <ele>1693.0999999999999</ele>
        <time>2021-02-14T12:14:53Z</time>
      </trkpt>
      <trkpt lat="46.017091395333409" lon="9.419484045356512">
        <ele>1693.23</ele>
        <time>2021-02-14T12:15:09Z</time>
      </trkpt>
      <trkpt lat="46.017228942364454" lon="9.419336440041661">
        <ele>1692.55</ele>
        <time>2021-02-14T12:15:26Z</time>
      </trkpt>
      <trkpt lat="46.017389120534062" lon="9.419233594089747">
        <ele>1691.9300000000001</ele>
        <time>2021-02-14T12:15:43Z</time>
      </trkpt>
      <trkpt lat="46.017551394179463" lon="9.419209370389581">
        <ele>1692.3099999999999</ele>
        <time>2021-02-14T12:15:59Z</time>
      </trkpt>
      <trkpt lat="46.017731605097651" lon="9.419148433953524">
        <ele>1691.2</ele>
        <time>2021-02-14T12:16:16Z</time>
      </trkpt>
      <trkpt lat="46.017904607579112" lon="9.419054137542844">
        <ele>1690.1900000000001</ele>
        <time>2021-02-14T12:16:33Z</time>
      </trkpt>
      <trkpt lat="46.018050285056233" lon="9.418976521119475">
        <ele>1688.48</ele>
        <time>2021-02-14T12:16:48Z</time>
      </trkpt>
      <trkpt lat="46.018216162919998" lon="9.418870825320482">
        <ele>1686.96</ele>
        <time>2021-02-14T12:17:05Z</time>
      </trkpt>
      <trkpt lat="46.018352033570409" lon="9.418696062639356">
        <ele>1686.76</ele>
        <time>2021-02-14T12:17:22Z</time>
      </trkpt>
      <trkpt lat="46.018471475690603" lon="9.418517360463738">
        <ele>1685.96</ele>
        <time>2021-02-14T12:17:38Z</time>
      </trkpt>
      <trkpt lat="46.018562838435173" lon="9.418400600552559">
        <ele>1685.74</ele>
        <time>2021-02-14T12:17:50Z</time>
      </trkpt>
      <trkpt lat="46.018651267513633" lon="9.418200775980949">
        <ele>1685.04</ele>
        <time>2021-02-14T12:18:06Z</time>
      </trkpt>
      <trkpt lat="46.018682951107621" lon="9.418059708550572">
        <ele>1683.99</ele>
        <time>2021-02-14T12:18:19Z</time>
      </trkpt>
      <trkpt lat="46.018739696592093" lon="9.417847478762269">
        <ele>1682.8</ele>
        <time>2021-02-14T12:18:34Z</time>
      </trkpt>
      <trkpt lat="46.018821755424142" lon="9.41760465502739">
        <ele>1682.1900000000001</ele>
        <time>2021-02-14T12:18:51Z</time>
      </trkpt>
      <trkpt lat="46.018903227522969" lon="9.417378259822726">
        <ele>1680.48</ele>
        <time>2021-02-14T12:19:07Z</time>
      </trkpt>
      <trkpt lat="46.018969444558024" lon="9.417128562927246">
        <ele>1680.3900000000001</ele>
        <time>2021-02-14T12:19:24Z</time>
      </trkpt>
      <trkpt lat="46.019030129536986" lon="9.416872914880514">
        <ele>1677.6800000000001</ele>
        <time>2021-02-14T12:19:41Z</time>
      </trkpt>
      <trkpt lat="46.019084025174379" lon="9.416623469442129">
        <ele>1675.9000000000001</ele>
        <time>2021-02-14T12:19:57Z</time>
      </trkpt>
      <trkpt lat="46.019152505323291" lon="9.416354577988386">
        <ele>1674.6400000000001</ele>
        <time>2021-02-14T12:20:15Z</time>
      </trkpt>
      <trkpt lat="46.019225344061852" lon="9.416092978790402">
        <ele>1673.0899999999999</ele>
        <time>2021-02-14T12:20:33Z</time>
      </trkpt>
      <trkpt lat="46.019267924129963" lon="9.415870606899262">
        <ele>1670.98</ele>
        <time>2021-02-14T12:20:48Z</time>
      </trkpt>
      <trkpt lat="46.019304720684886" lon="9.415634572505951">
        <ele>1669.6099999999999</ele>
        <time>2021-02-14T12:21:04Z</time>
      </trkpt>
      <trkpt lat="46.019369764253497" lon="9.415405746549368">
        <ele>1669.26</ele>
        <time>2021-02-14T12:21:20Z</time>
      </trkpt>
      <trkpt lat="46.01947546005249" lon="9.415249172598124">
        <ele>1667.5799999999999</ele>
        <time>2021-02-14T12:21:34Z</time>
      </trkpt>
      <trkpt lat="46.019569672644138" lon="9.415069380775094">
        <ele>1666.5999999999999</ele>
        <time>2021-02-14T12:21:49Z</time>
      </trkpt>
      <trkpt lat="46.019645780324936" lon="9.414904676377773">
        <ele>1665.4400000000001</ele>
        <time>2021-02-14T12:22:02Z</time>
      </trkpt>
      <trkpt lat="46.019758433103561" lon="9.414676353335381">
        <ele>1664.0699999999999</ele>
        <time>2021-02-14T12:22:20Z</time>
      </trkpt>
      <trkpt lat="46.019838061183691" lon="9.414469990879297">
        <ele>1662.98</ele>
        <time>2021-02-14T12:22:35Z</time>
      </trkpt>
      <trkpt lat="46.019894806668162" lon="9.414226664230228">
        <ele>1662.6600000000001</ele>
        <time>2021-02-14T12:22:52Z</time>
      </trkpt>
      <trkpt lat="46.01996311917901" lon="9.414025917649269">
        <ele>1660.0699999999999</ele>
        <time>2021-02-14T12:23:06Z</time>
      </trkpt>
      <trkpt lat="46.019995557144284" lon="9.413795415312052">
        <ele>1657.53</ele>
        <time>2021-02-14T12:23:21Z</time>
      </trkpt>
      <trkpt lat="46.020038053393364" lon="9.413604140281677">
        <ele>1656.3599999999999</ele>
        <time>2021-02-14T12:23:35Z</time>
      </trkpt>
      <trkpt lat="46.020100247114897" lon="9.413394425064325">
        <ele>1654.5999999999999</ele>
        <time>2021-02-14T12:23:50Z</time>
      </trkpt>
      <trkpt lat="46.020189011469483" lon="9.413216644898057">
        <ele>1652.3499999999999</ele>
        <time>2021-02-14T12:24:04Z</time>
      </trkpt>
      <trkpt lat="46.020261347293854" lon="9.412988657131791">
        <ele>1649.99</ele>
        <time>2021-02-14T12:24:20Z</time>
      </trkpt>
      <trkpt lat="46.020324714481831" lon="9.412758992984891">
        <ele>1647.23</ele>
        <time>2021-02-14T12:24:36Z</time>
      </trkpt>
      <trkpt lat="46.020371066406369" lon="9.412559419870377">
        <ele>1644.9100000000001</ele>
        <time>2021-02-14T12:24:50Z</time>
      </trkpt>
      <trkpt lat="46.020378107205033" lon="9.412518348544836">
        <ele>1644.3099999999999</ele>
        <time>2021-02-14T12:25:01Z</time>
      </trkpt>
      <trkpt lat="46.02038187906146" lon="9.412521366029978">
        <ele>1644.29</ele>
        <time>2021-02-14T12:25:23Z</time>
      </trkpt>
      <trkpt lat="46.020386572927237" lon="9.4125219527632">
        <ele>1644.27</ele>
        <time>2021-02-14T12:25:45Z</time>
      </trkpt>
      <trkpt lat="46.020402414724231" lon="9.412457747384906">
        <ele>1643.3900000000001</ele>
        <time>2021-02-14T12:26:07Z</time>
      </trkpt>
      <trkpt lat="46.020426470786333" lon="9.412252893671393">
        <ele>1641.6800000000001</ele>
        <time>2021-02-14T12:26:21Z</time>
      </trkpt>
      <trkpt lat="46.020462512969971" lon="9.412030521780253">
        <ele>1639.24</ele>
        <time>2021-02-14T12:26:36Z</time>
      </trkpt>
      <trkpt lat="46.020501405000687" lon="9.41179046407342">
        <ele>1636.98</ele>
        <time>2021-02-14T12:26:52Z</time>
      </trkpt>
      <trkpt lat="46.020549517124891" lon="9.41150120459497">
        <ele>1633.8900000000001</ele>
        <time>2021-02-14T12:27:11Z</time>
      </trkpt>
      <trkpt lat="46.020602742210031" lon="9.411251088604331">
        <ele>1630.8</ele>
        <time>2021-02-14T12:27:28Z</time>
      </trkpt>
      <trkpt lat="46.020670384168625" lon="9.410984879359603">
        <ele>1628.02</ele>
        <time>2021-02-14T12:27:46Z</time>
      </trkpt>
      <trkpt lat="46.020735679194331" lon="9.410791425034404">
        <ele>1624.9100000000001</ele>
        <time>2021-02-14T12:28:00Z</time>
      </trkpt>
      <trkpt lat="46.020775744691491" lon="9.410547092556953">
        <ele>1622.76</ele>
        <time>2021-02-14T12:28:16Z</time>
      </trkpt>
      <trkpt lat="46.020843302831054" lon="9.410341735929251">
        <ele>1620.8699999999999</ele>
        <time>2021-02-14T12:28:30Z</time>
      </trkpt>
      <trkpt lat="46.020858976989985" lon="9.410276105627418">
        <ele>1619.99</ele>
        <time>2021-02-14T12:28:35Z</time>
      </trkpt>
      <trkpt lat="46.020920583978295" lon="9.410076029598713">
        <ele>1618.5</ele>
        <time>2021-02-14T12:28:50Z</time>
      </trkpt>
      <trkpt lat="46.020984370261431" lon="9.409860279411078">
        <ele>1616.79</ele>
        <time>2021-02-14T12:29:06Z</time>
      </trkpt>
      <trkpt lat="46.021065842360258" lon="9.409688953310251">
        <ele>1614.6199999999999</ele>
        <time>2021-02-14T12:29:20Z</time>
      </trkpt>
      <trkpt lat="46.021209508180618" lon="9.409541096538305">
        <ele>1612.1800000000001</ele>
        <time>2021-02-14T12:29:37Z</time>
      </trkpt>
      <trkpt lat="46.021385528147221" lon="9.409451829269528">
        <ele>1609.0799999999999</ele>
        <time>2021-02-14T12:29:55Z</time>
      </trkpt>
      <trkpt lat="46.021495666354895" lon="9.409382091835141">
        <ele>1606.03</ele>
        <time>2021-02-14T12:30:06Z</time>
      </trkpt>
      <trkpt lat="46.021628770977259" lon="9.409315288066864">
        <ele>1602.99</ele>
        <time>2021-02-14T12:30:20Z</time>
      </trkpt>
      <trkpt lat="46.021687611937523" lon="9.409168856218457">
        <ele>1601</ele>
        <time>2021-02-14T12:30:32Z</time>
      </trkpt>
      <trkpt lat="46.021729856729507" lon="9.409014545381069">
        <ele>1597.99</ele>
        <time>2021-02-14T12:30:43Z</time>
      </trkpt>
      <trkpt lat="46.021818118169904" lon="9.408772643655539">
        <ele>1595.1700000000001</ele>
        <time>2021-02-14T12:31:01Z</time>
      </trkpt>
      <trkpt lat="46.021914258599281" lon="9.40858606249094">
        <ele>1592.4400000000001</ele>
        <time>2021-02-14T12:31:16Z</time>
      </trkpt>
      <trkpt lat="46.021989528089762" lon="9.408375760540366">
        <ele>1589.6400000000001</ele>
        <time>2021-02-14T12:31:31Z</time>
      </trkpt>
      <trkpt lat="46.022050883620977" lon="9.408137127757072">
        <ele>1586.8900000000001</ele>
        <time>2021-02-14T12:31:48Z</time>
      </trkpt>
      <trkpt lat="46.022059433162212" lon="9.407942248508334">
        <ele>1583.76</ele>
        <time>2021-02-14T12:32:01Z</time>
      </trkpt>
      <trkpt lat="46.022069742903113" lon="9.40771727822721">
        <ele>1580.5799999999999</ele>
        <time>2021-02-14T12:32:16Z</time>
      </trkpt>
      <trkpt lat="46.022052895277739" lon="9.407493146136403">
        <ele>1577.52</ele>
        <time>2021-02-14T12:32:32Z</time>
      </trkpt>
      <trkpt lat="46.022039987146854" lon="9.407349731773138">
        <ele>1576</ele>
        <time>2021-02-14T12:32:48Z</time>
      </trkpt>
      <trkpt lat="46.022040406242013" lon="9.407349480316043">
        <ele>1575.5799999999999</ele>
        <time>2021-02-14T12:33:03Z</time>
      </trkpt>
      <trkpt lat="46.022037640213966" lon="9.407334895804524">
        <ele>1575.4100000000001</ele>
        <time>2021-02-14T12:33:21Z</time>
      </trkpt>
      <trkpt lat="46.022037724032998" lon="9.40733514726162">
        <ele>1575.21</ele>
        <time>2021-02-14T12:33:34Z</time>
      </trkpt>
      <trkpt lat="46.02204074151814" lon="9.407342188060284">
        <ele>1575.1600000000001</ele>
        <time>2021-02-14T12:33:56Z</time>
      </trkpt>
      <trkpt lat="46.022045603021979" lon="9.407348977401853">
        <ele>1575.3299999999999</ele>
        <time>2021-02-14T12:34:13Z</time>
      </trkpt>
      <trkpt lat="46.022047027945518" lon="9.407351659610868">
        <ele>1575.2</ele>
        <time>2021-02-14T12:34:32Z</time>
      </trkpt>
      <trkpt lat="46.022044848650694" lon="9.407354425638914">
        <ele>1575.05</ele>
        <time>2021-02-14T12:34:49Z</time>
      </trkpt>
      <trkpt lat="46.022036885842681" lon="9.407313857227564">
        <ele>1574.4200000000001</ele>
        <time>2021-02-14T12:34:53Z</time>
      </trkpt>
      <trkpt lat="46.022071251645684" lon="9.407055526971817">
        <ele>1571.5</ele>
        <time>2021-02-14T12:35:11Z</time>
      </trkpt>
      <trkpt lat="46.02223226800561" lon="9.406953351572156">
        <ele>1568.3800000000001</ele>
        <time>2021-02-14T12:35:26Z</time>
      </trkpt>
      <trkpt lat="46.022369060665369" lon="9.406927367672324">
        <ele>1565.3800000000001</ele>
        <time>2021-02-14T12:35:38Z</time>
      </trkpt>
      <trkpt lat="46.02252303622663" lon="9.406954273581505">
        <ele>1562.45</ele>
        <time>2021-02-14T12:35:53Z</time>
      </trkpt>
      <trkpt lat="46.022670138627291" lon="9.406956285238266">
        <ele>1559.22</ele>
        <time>2021-02-14T12:36:06Z</time>
      </trkpt>
      <trkpt lat="46.022829646244645" lon="9.406993919983506">
        <ele>1556.03</ele>
        <time>2021-02-14T12:36:20Z</time>
      </trkpt>
      <trkpt lat="46.022988231852651" lon="9.406974809244275">
        <ele>1553.3299999999999</ele>
        <time>2021-02-14T12:36:34Z</time>
      </trkpt>
      <trkpt lat="46.023069871589541" lon="9.406993165612221">
        <ele>1552.28</ele>
        <time>2021-02-14T12:36:47Z</time>
      </trkpt>
      <trkpt lat="46.023092838004231" lon="9.407005487009883">
        <ele>1551.8699999999999</ele>
        <time>2021-02-14T12:37:02Z</time>
      </trkpt>
      <trkpt lat="46.02310256101191" lon="9.407006576657295">
        <ele>1551.72</ele>
        <time>2021-02-14T12:37:03Z</time>
      </trkpt>
      <trkpt lat="46.02320222184062" lon="9.407109338790178">
        <ele>1550.8599999999999</ele>
        <time>2021-02-14T12:37:18Z</time>
      </trkpt>
      <trkpt lat="46.023290986195207" lon="9.407191481441259">
        <ele>1550.8499999999999</ele>
        <time>2021-02-14T12:37:31Z</time>
      </trkpt>
      <trkpt lat="46.023384779691696" lon="9.407227355986834">
        <ele>1549.8699999999999</ele>
        <time>2021-02-14T12:37:42Z</time>
      </trkpt>
      <trkpt lat="46.023500030860305" lon="9.4072291161865">
        <ele>1548.9300000000001</ele>
        <time>2021-02-14T12:37:55Z</time>
      </trkpt>
      <trkpt lat="46.02356675080955" lon="9.407245125621557">
        <ele>1547.73</ele>
        <time>2021-02-14T12:38:08Z</time>
      </trkpt>
      <trkpt lat="46.023624585941434" lon="9.407267421483994">
        <ele>1546.9000000000001</ele>
        <time>2021-02-14T12:38:17Z</time>
      </trkpt>
      <trkpt lat="46.023712260648608" lon="9.407285861670971">
        <ele>1545.97</ele>
        <time>2021-02-14T12:38:31Z</time>
      </trkpt>
      <trkpt lat="46.023773783817887" lon="9.407260129228234">
        <ele>1545.03</ele>
        <time>2021-02-14T12:38:46Z</time>
      </trkpt>
      <trkpt lat="46.023807059973478" lon="9.407240767031908">
        <ele>1544</ele>
        <time>2021-02-14T12:38:50Z</time>
      </trkpt>
      <trkpt lat="46.023943182080984" lon="9.40718469209969">
        <ele>1542.5999999999999</ele>
        <time>2021-02-14T12:39:03Z</time>
      </trkpt>
      <trkpt lat="46.024028342217207" lon="9.407148817554116">
        <ele>1541.0999999999999</ele>
        <time>2021-02-14T12:39:12Z</time>
      </trkpt>
      <trkpt lat="46.024116184562445" lon="9.40711528994143">
        <ele>1541.6600000000001</ele>
        <time>2021-02-14T12:39:22Z</time>
      </trkpt>
      <trkpt lat="46.024211151525378" lon="9.407066255807877">
        <ele>1542.0799999999999</ele>
        <time>2021-02-14T12:39:33Z</time>
      </trkpt>
      <trkpt lat="46.024226825684309" lon="9.407050749287009">
        <ele>1542.21</ele>
        <time>2021-02-14T12:39:44Z</time>
      </trkpt>
      <trkpt lat="46.024224059656262" lon="9.407049911096692">
        <ele>1542.1300000000001</ele>
        <time>2021-02-14T12:40:01Z</time>
      </trkpt>
      <trkpt lat="46.024254821240902" lon="9.407035075128079">
        <ele>1542.0999999999999</ele>
        <time>2021-02-14T12:40:06Z</time>
      </trkpt>
      <trkpt lat="46.024342998862267" lon="9.406963996589184">
        <ele>1542.0999999999999</ele>
        <time>2021-02-14T12:40:19Z</time>
      </trkpt>
      <trkpt lat="46.024376107379794" lon="9.406948573887348">
        <ele>1542.72</ele>
        <time>2021-02-14T12:40:25Z</time>
      </trkpt>
      <trkpt lat="46.024439977481961" lon="9.406927702948451">
        <ele>1543.0999999999999</ele>
        <time>2021-02-14T12:40:32Z</time>
      </trkpt>
      <trkpt lat="46.024459507316351" lon="9.406927954405546">
        <ele>1543.1300000000001</ele>
        <time>2021-02-14T12:40:34Z</time>
      </trkpt>
      <trkpt lat="46.024595545604825" lon="9.40693742595613">
        <ele>1542.05</ele>
        <time>2021-02-14T12:40:47Z</time>
      </trkpt>
      <trkpt lat="46.024659415706992" lon="9.406955949962139">
        <ele>1541.5699999999999</ele>
        <time>2021-02-14T12:40:53Z</time>
      </trkpt>
      <trkpt lat="46.024788832291961" lon="9.407076900824904">
        <ele>1541.3</ele>
        <time>2021-02-14T12:41:07Z</time>
      </trkpt>
      <trkpt lat="46.024849014356732" lon="9.407130712643266">
        <ele>1540.5699999999999</ele>
        <time>2021-02-14T12:41:14Z</time>
      </trkpt>
      <trkpt lat="46.02495638653636" lon="9.407194163650274">
        <ele>1539.6900000000001</ele>
        <time>2021-02-14T12:41:25Z</time>
      </trkpt>
      <trkpt lat="46.025040289387107" lon="9.407206736505032">
        <ele>1539.4300000000001</ele>
        <time>2021-02-14T12:41:35Z</time>
      </trkpt>
      <trkpt lat="46.025130562484264" lon="9.407213777303696">
        <ele>1538.23</ele>
        <time>2021-02-14T12:41:47Z</time>
      </trkpt>
      <trkpt lat="46.02519677951932" lon="9.407204976305366">
        <ele>1538</ele>
        <time>2021-02-14T12:41:59Z</time>
      </trkpt>
      <trkpt lat="46.025275317952037" lon="9.407198270782828">
        <ele>1538.05</ele>
        <time>2021-02-14T12:42:09Z</time>
      </trkpt>
      <trkpt lat="46.025372799485922" lon="9.407182764261961">
        <ele>1537.22</ele>
        <time>2021-02-14T12:42:22Z</time>
      </trkpt>
      <trkpt lat="46.025430802255869" lon="9.407161138951778">
        <ele>1536.8499999999999</ele>
        <time>2021-02-14T12:42:29Z</time>
      </trkpt>
      <trkpt lat="46.025565164163709" lon="9.407034404575825">
        <ele>1535.27</ele>
        <time>2021-02-14T12:42:44Z</time>
      </trkpt>
      <trkpt lat="46.025604642927647" lon="9.406926026567817">
        <ele>1534.28</ele>
        <time>2021-02-14T12:42:55Z</time>
      </trkpt>
      <trkpt lat="46.025635069236159" lon="9.406861653551459">
        <ele>1534.29</ele>
        <time>2021-02-14T12:43:05Z</time>
      </trkpt>
      <trkpt lat="46.025654263794422" lon="9.406806165352464">
        <ele>1533.9300000000001</ele>
        <time>2021-02-14T12:43:09Z</time>
      </trkpt>
      <trkpt lat="46.025700615718961" lon="9.406685717403889">
        <ele>1532.75</ele>
        <time>2021-02-14T12:43:21Z</time>
      </trkpt>
      <trkpt lat="46.025734394788742" lon="9.406596953049302">
        <ele>1532.75</ele>
        <time>2021-02-14T12:43:29Z</time>
      </trkpt>
      <trkpt lat="46.02581636980176" lon="9.406520342454314">
        <ele>1532.3199999999999</ele>
        <time>2021-02-14T12:43:40Z</time>
      </trkpt>
      <trkpt lat="46.02586766704917" lon="9.406551606953144">
        <ele>1531.7</ele>
        <time>2021-02-14T12:43:54Z</time>
      </trkpt>
      <trkpt lat="46.025910750031471" lon="9.406567364931107">
        <ele>1531.22</ele>
        <time>2021-02-14T12:44:01Z</time>
      </trkpt>
      <trkpt lat="46.025946792215109" lon="9.406573818996549">
        <ele>1530.4000000000001</ele>
        <time>2021-02-14T12:44:04Z</time>
      </trkpt>
      <trkpt lat="46.026088781654835" lon="9.406603239476681">
        <ele>1526.8699999999999</ele>
        <time>2021-02-14T12:44:17Z</time>
      </trkpt>
      <trkpt lat="46.026132199913263" lon="9.406615728512406">
        <ele>1525.5</ele>
        <time>2021-02-14T12:44:22Z</time>
      </trkpt>
      <trkpt lat="46.02620730176568" lon="9.4066471606493">
        <ele>1523.8399999999999</ele>
        <time>2021-02-14T12:44:30Z</time>
      </trkpt>
      <trkpt lat="46.026331437751651" lon="9.406681023538113">
        <ele>1522.78</ele>
        <time>2021-02-14T12:44:40Z</time>
      </trkpt>
      <trkpt lat="46.02643545717001" lon="9.406692255288363">
        <ele>1521.97</ele>
        <time>2021-02-14T12:44:51Z</time>
      </trkpt>
      <trkpt lat="46.026463201269507" lon="9.406692422926426">
        <ele>1520.8399999999999</ele>
        <time>2021-02-14T12:44:54Z</time>
      </trkpt>
      <trkpt lat="46.026598149910569" lon="9.406709773465991">
        <ele>1519.6600000000001</ele>
        <time>2021-02-14T12:45:08Z</time>
      </trkpt>
      <trkpt lat="46.026635700836778" lon="9.406711282208562">
        <ele>1519.6500000000001</ele>
        <time>2021-02-14T12:45:12Z</time>
      </trkpt>
      <trkpt lat="46.026753969490528" lon="9.406708180904388">
        <ele>1518.78</ele>
        <time>2021-02-14T12:45:25Z</time>
      </trkpt>
      <trkpt lat="46.026860671117902" lon="9.406736930832267">
        <ele>1517.02</ele>
        <time>2021-02-14T12:45:37Z</time>
      </trkpt>
      <trkpt lat="46.026980364695191" lon="9.406740870326757">
        <ele>1513.8199999999999</ele>
        <time>2021-02-14T12:45:52Z</time>
      </trkpt>
      <trkpt lat="46.026988998055458" lon="9.406734667718411">
        <ele>1513.71</ele>
        <time>2021-02-14T12:45:53Z</time>
      </trkpt>
      <trkpt lat="46.027043983340263" lon="9.40665889531374">
        <ele>1511.0699999999999</ele>
        <time>2021-02-14T12:46:02Z</time>
      </trkpt>
      <trkpt lat="46.027048677206039" lon="9.406634420156479">
        <ele>1513.1400000000001</ele>
        <time>2021-02-14T12:46:04Z</time>
      </trkpt>
      <trkpt lat="46.027076505124569" lon="9.406584883108735">
        <ele>1510.97</ele>
        <time>2021-02-14T12:46:08Z</time>
      </trkpt>
      <trkpt lat="46.027143308892846" lon="9.406423112377524">
        <ele>1510.3099999999999</ele>
        <time>2021-02-14T12:46:22Z</time>
      </trkpt>
      <trkpt lat="46.027156133204699" lon="9.406289085745812">
        <ele>1509.6800000000001</ele>
        <time>2021-02-14T12:46:36Z</time>
      </trkpt>
      <trkpt lat="46.027201898396015" lon="9.406174840405583">
        <ele>1509.4300000000001</ele>
        <time>2021-02-14T12:46:48Z</time>
      </trkpt>
      <trkpt lat="46.027213633060455" lon="9.406152628362179">
        <ele>1508.6099999999999</ele>
        <time>2021-02-14T12:46:50Z</time>
      </trkpt>
      <trkpt lat="46.027291920036077" lon="9.406063864007592">
        <ele>1507.78</ele>
        <time>2021-02-14T12:47:00Z</time>
      </trkpt>
      <trkpt lat="46.027368362993002" lon="9.405986499041319">
        <ele>1507.8</ele>
        <time>2021-02-14T12:47:13Z</time>
      </trkpt>
      <trkpt lat="46.027432065457106" lon="9.405892873182893">
        <ele>1507.1700000000001</ele>
        <time>2021-02-14T12:47:27Z</time>
      </trkpt>
      <trkpt lat="46.027499120682478" lon="9.405774772167206">
        <ele>1506.03</ele>
        <time>2021-02-14T12:47:41Z</time>
      </trkpt>
      <trkpt lat="46.027561901137233" lon="9.405629513785243">
        <ele>1504.6099999999999</ele>
        <time>2021-02-14T12:47:54Z</time>
      </trkpt>
      <trkpt lat="46.027605906128883" lon="9.405523147433996">
        <ele>1504.8199999999999</ele>
        <time>2021-02-14T12:48:05Z</time>
      </trkpt>
      <trkpt lat="46.027649324387312" lon="9.405429605394602">
        <ele>1503.8399999999999</ele>
        <time>2021-02-14T12:48:19Z</time>
      </trkpt>
      <trkpt lat="46.027650078758597" lon="9.40544075332582">
        <ele>1504.0999999999999</ele>
        <time>2021-02-14T12:48:35Z</time>
      </trkpt>
      <trkpt lat="46.027646474540234" lon="9.405436813831329">
        <ele>1504.1400000000001</ele>
        <time>2021-02-14T12:48:55Z</time>
      </trkpt>
      <trkpt lat="46.027649072930217" lon="9.405437400564551">
        <ele>1504.3499999999999</ele>
        <time>2021-02-14T12:49:16Z</time>
      </trkpt>
      <trkpt lat="46.027668183669448" lon="9.405440669506788">
        <ele>1504.28</ele>
        <time>2021-02-14T12:49:26Z</time>
      </trkpt>
      <trkpt lat="46.027667764574289" lon="9.405437400564551">
        <ele>1504.22</ele>
        <time>2021-02-14T12:49:45Z</time>
      </trkpt>
      <trkpt lat="46.027667848393321" lon="9.405435472726822">
        <ele>1504.4000000000001</ele>
        <time>2021-02-14T12:49:56Z</time>
      </trkpt>
      <trkpt lat="46.027667513117194" lon="9.405430946499109">
        <ele>1504.6300000000001</ele>
        <time>2021-02-14T12:50:12Z</time>
      </trkpt>
      <trkpt lat="46.027696263045073" lon="9.405413093045354">
        <ele>1504.54</ele>
        <time>2021-02-14T12:50:25Z</time>
      </trkpt>
      <trkpt lat="46.027749823406339" lon="9.405358107760549">
        <ele>1503.5899999999999</ele>
        <time>2021-02-14T12:50:34Z</time>
      </trkpt>
      <trkpt lat="46.02788720279932" lon="9.405295411124826">
        <ele>1502.01</ele>
        <time>2021-02-14T12:50:48Z</time>
      </trkpt>
      <trkpt lat="46.027993485331535" lon="9.405140848830342">
        <ele>1498.6800000000001</ele>
        <time>2021-02-14T12:51:02Z</time>
      </trkpt>
      <trkpt lat="46.028006477281451" lon="9.405137915164232">
        <ele>1498.48</ele>
        <time>2021-02-14T12:51:04Z</time>
      </trkpt>
      <trkpt lat="46.028027851134539" lon="9.405144536867738">
        <ele>1498.3199999999999</ele>
        <time>2021-02-14T12:51:06Z</time>
      </trkpt>
      <trkpt lat="46.028072526678443" lon="9.405130790546536">
        <ele>1497.72</ele>
        <time>2021-02-14T12:51:10Z</time>
      </trkpt>
      <trkpt lat="46.028237566351891" lon="9.405103465542197">
        <ele>1497.29</ele>
        <time>2021-02-14T12:51:25Z</time>
      </trkpt>
      <trkpt lat="46.028426913544536" lon="9.405089132487774">
        <ele>1496.79</ele>
        <time>2021-02-14T12:51:42Z</time>
      </trkpt>
      <trkpt lat="46.028609303757548" lon="9.405066920444369">
        <ele>1495.52</ele>
        <time>2021-02-14T12:51:58Z</time>
      </trkpt>
      <trkpt lat="46.028818683698773" lon="9.405055604875088">
        <ele>1494.3399999999999</ele>
        <time>2021-02-14T12:52:17Z</time>
      </trkpt>
      <trkpt lat="46.029022028669715" lon="9.405066501349211">
        <ele>1492.47</ele>
        <time>2021-02-14T12:52:34Z</time>
      </trkpt>
      <trkpt lat="46.029039546847343" lon="9.405072536319494">
        <ele>1492.6500000000001</ele>
        <time>2021-02-14T12:52:36Z</time>
      </trkpt>
      <trkpt lat="46.029071817174554" lon="9.405078319832683">
        <ele>1492.6900000000001</ele>
        <time>2021-02-14T12:52:39Z</time>
      </trkpt>
      <trkpt lat="46.02923777885735" lon="9.405125342309475">
        <ele>1492.76</ele>
        <time>2021-02-14T12:52:55Z</time>
      </trkpt>
      <trkpt lat="46.029414888471365" lon="9.405169766396284">
        <ele>1492.71</ele>
        <time>2021-02-14T12:53:12Z</time>
      </trkpt>
      <trkpt lat="46.029606834053993" lon="9.405203461647034">
        <ele>1491.8399999999999</ele>
        <time>2021-02-14T12:53:30Z</time>
      </trkpt>
      <trkpt lat="46.029804144054651" lon="9.405228607356548">
        <ele>1490.25</ele>
        <time>2021-02-14T12:53:48Z</time>
      </trkpt>
      <trkpt lat="46.029943535104394" lon="9.405239503830671">
        <ele>1489</ele>
        <time>2021-02-14T12:54:05Z</time>
      </trkpt>
      <trkpt lat="46.029993575066328" lon="9.405252914875746">
        <ele>1488.49</ele>
        <time>2021-02-14T12:54:10Z</time>
      </trkpt>
      <trkpt lat="46.030187364667654" lon="9.405261548236013">
        <ele>1487.24</ele>
        <time>2021-02-14T12:54:28Z</time>
      </trkpt>
      <trkpt lat="46.030348967760801" lon="9.405217962339521">
        <ele>1484.8199999999999</ele>
        <time>2021-02-14T12:54:43Z</time>
      </trkpt>
      <trkpt lat="46.030504703521729" lon="9.40516758710146">
        <ele>1483.0899999999999</ele>
        <time>2021-02-14T12:54:57Z</time>
      </trkpt>
      <trkpt lat="46.030656918883324" lon="9.40509382635355">
        <ele>1481.0899999999999</ele>
        <time>2021-02-14T12:55:12Z</time>
      </trkpt>
      <trkpt lat="46.030719112604856" lon="9.40506792627275">
        <ele>1479.8599999999999</ele>
        <time>2021-02-14T12:55:19Z</time>
      </trkpt>
      <trkpt lat="46.03082874789834" lon="9.404999781399965">
        <ele>1477.8299999999999</ele>
        <time>2021-02-14T12:55:30Z</time>
      </trkpt>
      <trkpt lat="46.030974173918366" lon="9.4049530941993">
        <ele>1475.78</ele>
        <time>2021-02-14T12:55:44Z</time>
      </trkpt>
      <trkpt lat="46.031087581068277" lon="9.404961979016662">
        <ele>1475.22</ele>
        <time>2021-02-14T12:55:55Z</time>
      </trkpt>
      <trkpt lat="46.031218841671944" lon="9.405015790835023">
        <ele>1475.21</ele>
        <time>2021-02-14T12:56:06Z</time>
      </trkpt>
      <trkpt lat="46.031375834718347" lon="9.405115954577923">
        <ele>1475.1600000000001</ele>
        <time>2021-02-14T12:56:22Z</time>
      </trkpt>
      <trkpt lat="46.031516818329692" lon="9.405207233503461">
        <ele>1474.98</ele>
        <time>2021-02-14T12:56:36Z</time>
      </trkpt>
      <trkpt lat="46.03166182525456" lon="9.405287196859717">
        <ele>1475.01</ele>
        <time>2021-02-14T12:56:50Z</time>
      </trkpt>
      <trkpt lat="46.031753774732351" lon="9.405352994799614">
        <ele>1473.99</ele>
        <time>2021-02-14T12:57:04Z</time>
      </trkpt>
      <trkpt lat="46.031744638457894" lon="9.405349055305123">
        <ele>1473.96</ele>
        <time>2021-02-14T12:57:18Z</time>
      </trkpt>
      <trkpt lat="46.031733574345708" lon="9.405368752777576">
        <ele>1474.5899999999999</ele>
        <time>2021-02-14T12:57:28Z</time>
      </trkpt>
      <trkpt lat="46.031735753640532" lon="9.405388869345188">
        <ele>1474.1500000000001</ele>
        <time>2021-02-14T12:57:45Z</time>
      </trkpt>
      <trkpt lat="46.031730975955725" lon="9.405383840203285">
        <ele>1473.74</ele>
        <time>2021-02-14T12:57:58Z</time>
      </trkpt>
      <trkpt lat="46.03171949274838" lon="9.405383253470063">
        <ele>1474.01</ele>
        <time>2021-02-14T12:58:20Z</time>
      </trkpt>
      <trkpt lat="46.03174933232367" lon="9.405395742505789">
        <ele>1473.9000000000001</ele>
        <time>2021-02-14T12:58:23Z</time>
      </trkpt>
      <trkpt lat="46.031916635110974" lon="9.405448045581579">
        <ele>1473.1199999999999</ele>
        <time>2021-02-14T12:58:38Z</time>
      </trkpt>
      <trkpt lat="46.031997436657548" lon="9.405463552102447">
        <ele>1472.5</ele>
        <time>2021-02-14T12:58:46Z</time>
      </trkpt>
      <trkpt lat="46.032140515744686" lon="9.405397921800613">
        <ele>1470.5999999999999</ele>
        <time>2021-02-14T12:59:00Z</time>
      </trkpt>
      <trkpt lat="46.032204637303948" lon="9.40537428483367">
        <ele>1469.8099999999999</ele>
        <time>2021-02-14T12:59:12Z</time>
      </trkpt>
      <trkpt lat="46.032317876815796" lon="9.405330615118146">
        <ele>1468.05</ele>
        <time>2021-02-14T12:59:25Z</time>
      </trkpt>
      <trkpt lat="46.032409910112619" lon="9.405283005908132">
        <ele>1464.4200000000001</ele>
        <time>2021-02-14T12:59:34Z</time>
      </trkpt>
      <trkpt lat="46.032429188489914" lon="9.405269091948867">
        <ele>1469.6199999999999</ele>
        <time>2021-02-14T12:59:36Z</time>
      </trkpt>
      <trkpt lat="46.032439582049847" lon="9.405262134969235">
        <ele>1467.8399999999999</ele>
        <time>2021-02-14T12:59:37Z</time>
      </trkpt>
      <trkpt lat="46.032637059688568" lon="9.405159121379256">
        <ele>1464.7</ele>
        <time>2021-02-14T12:59:54Z</time>
      </trkpt>
      <trkpt lat="46.032817270606756" lon="9.405064322054386">
        <ele>1462.5999999999999</ele>
        <time>2021-02-14T13:00:11Z</time>
      </trkpt>
      <trkpt lat="46.032986585050821" lon="9.404972791671753">
        <ele>1459.9100000000001</ele>
        <time>2021-02-14T13:00:27Z</time>
      </trkpt>
      <trkpt lat="46.033184649422765" lon="9.404880087822676">
        <ele>1457.6900000000001</ele>
        <time>2021-02-14T13:00:45Z</time>
      </trkpt>
      <trkpt lat="46.033354131504893" lon="9.404799453914166">
        <ele>1455.98</ele>
        <time>2021-02-14T13:01:01Z</time>
      </trkpt>
      <trkpt lat="46.033526631072164" lon="9.404732482507825">
        <ele>1454.98</ele>
        <time>2021-02-14T13:01:17Z</time>
      </trkpt>
      <trkpt lat="46.033622855320573" lon="9.404688309878111">
        <ele>1453.51</ele>
        <time>2021-02-14T13:01:26Z</time>
      </trkpt>
      <trkpt lat="46.033731484785676" lon="9.404596025124192">
        <ele>1451.05</ele>
        <time>2021-02-14T13:01:38Z</time>
      </trkpt>
      <trkpt lat="46.033840784803033" lon="9.404521258547902">
        <ele>1448.74</ele>
        <time>2021-02-14T13:01:49Z</time>
      </trkpt>
      <trkpt lat="46.033944971859455" lon="9.404399637132883">
        <ele>1445.6500000000001</ele>
        <time>2021-02-14T13:02:01Z</time>
      </trkpt>
      <trkpt lat="46.033977828919888" lon="9.404358984902501">
        <ele>1444.03</ele>
        <time>2021-02-14T13:02:05Z</time>
      </trkpt>
      <trkpt lat="46.033994341269135" lon="9.404337108135223">
        <ele>1445.6099999999999</ele>
        <time>2021-02-14T13:02:07Z</time>
      </trkpt>
      <trkpt lat="46.034002471715212" lon="9.404323948547244">
        <ele>1444.8099999999999</ele>
        <time>2021-02-14T13:02:08Z</time>
      </trkpt>
      <trkpt lat="46.034118644893169" lon="9.404207607731223">
        <ele>1441.51</ele>
        <time>2021-02-14T13:02:20Z</time>
      </trkpt>
      <trkpt lat="46.034217635169625" lon="9.404150862246752">
        <ele>1439.6300000000001</ele>
        <time>2021-02-14T13:02:30Z</time>
      </trkpt>
      <trkpt lat="46.034334059804678" lon="9.404137199744582">
        <ele>1437.4300000000001</ele>
        <time>2021-02-14T13:02:41Z</time>
      </trkpt>
      <trkpt lat="46.034442856907845" lon="9.404161004349589">
        <ele>1435.6500000000001</ele>
        <time>2021-02-14T13:02:50Z</time>
      </trkpt>
      <trkpt lat="46.034577637910843" lon="9.404166704043746">
        <ele>1433.3</ele>
        <time>2021-02-14T13:03:01Z</time>
      </trkpt>
      <trkpt lat="46.034716106951237" lon="9.404207859188318">
        <ele>1430.9200000000001</ele>
        <time>2021-02-14T13:03:13Z</time>
      </trkpt>
      <trkpt lat="46.034814845770597" lon="9.404225125908852">
        <ele>1429.3</ele>
        <time>2021-02-14T13:03:22Z</time>
      </trkpt>
      <trkpt lat="46.034931354224682" lon="9.404224371537566">
        <ele>1427.3299999999999</ele>
        <time>2021-02-14T13:03:33Z</time>
      </trkpt>
      <trkpt lat="46.035066554322839" lon="9.404242727905512">
        <ele>1424.95</ele>
        <time>2021-02-14T13:03:45Z</time>
      </trkpt>
      <trkpt lat="46.035227905958891" lon="9.40430173650384">
        <ele>1422.48</ele>
        <time>2021-02-14T13:03:59Z</time>
      </trkpt>
      <trkpt lat="46.035336200147867" lon="9.404385052621365">
        <ele>1421.03</ele>
        <time>2021-02-14T13:04:09Z</time>
      </trkpt>
      <trkpt lat="46.03543845936656" lon="9.404535843059421">
        <ele>1419.3499999999999</ele>
        <time>2021-02-14T13:04:22Z</time>
      </trkpt>
      <trkpt lat="46.035551363602281" lon="9.404573896899819">
        <ele>1418.8699999999999</ele>
        <time>2021-02-14T13:04:33Z</time>
      </trkpt>
      <trkpt lat="46.035669380798936" lon="9.404482785612345">
        <ele>1419.9400000000001</ele>
        <time>2021-02-14T13:04:47Z</time>
      </trkpt>
      <trkpt lat="46.035752529278398" lon="9.404439199715853">
        <ele>1419.98</ele>
        <time>2021-02-14T13:04:56Z</time>
      </trkpt>
      <trkpt lat="46.035870295017958" lon="9.404464261606336">
        <ele>1418.78</ele>
        <time>2021-02-14T13:05:08Z</time>
      </trkpt>
      <trkpt lat="46.035984037443995" lon="9.404537687078118">
        <ele>1417.21</ele>
        <time>2021-02-14T13:05:20Z</time>
      </trkpt>
      <trkpt lat="46.03602385148406" lon="9.40456316806376">
        <ele>1416.8099999999999</ele>
        <time>2021-02-14T13:05:24Z</time>
      </trkpt>
      <trkpt lat="46.036155698820949" lon="9.404543470591307">
        <ele>1416.6500000000001</ele>
        <time>2021-02-14T13:05:36Z</time>
      </trkpt>
      <trkpt lat="46.036279164254665" lon="9.40450893715024">
        <ele>1418.5699999999999</ele>
        <time>2021-02-14T13:05:49Z</time>
      </trkpt>
      <trkpt lat="46.036362815648317" lon="9.404510529711843">
        <ele>1418.21</ele>
        <time>2021-02-14T13:05:58Z</time>
      </trkpt>
      <trkpt lat="46.036400282755494" lon="9.404504410922527">
        <ele>1418.05</ele>
        <time>2021-02-14T13:06:02Z</time>
      </trkpt>
      <trkpt lat="46.036487203091383" lon="9.404450682923198">
        <ele>1418.6500000000001</ele>
        <time>2021-02-14T13:06:12Z</time>
      </trkpt>
      <trkpt lat="46.03659750893712" lon="9.404287235811353">
        <ele>1417.78</ele>
        <time>2021-02-14T13:06:26Z</time>
      </trkpt>
      <trkpt lat="46.03670496493578" lon="9.404157986864448">
        <ele>1413.78</ele>
        <time>2021-02-14T13:06:39Z</time>
      </trkpt>
      <trkpt lat="46.036732206121087" lon="9.404138457030058">
        <ele>1414.6600000000001</ele>
        <time>2021-02-14T13:06:42Z</time>
      </trkpt>
      <trkpt lat="46.036934126168489" lon="9.404084142297506">
        <ele>1413.3</ele>
        <time>2021-02-14T13:06:59Z</time>
      </trkpt>
      <trkpt lat="46.037074942141771" lon="9.404059331864119">
        <ele>1413.49</ele>
        <time>2021-02-14T13:07:12Z</time>
      </trkpt>
      <trkpt lat="46.03709782473743" lon="9.404051452875137">
        <ele>1413.6300000000001</ele>
        <time>2021-02-14T13:07:21Z</time>
      </trkpt>
      <trkpt lat="46.037085168063641" lon="9.404044831171632">
        <ele>1413.52</ele>
        <time>2021-02-14T13:07:39Z</time>
      </trkpt>
      <trkpt lat="46.037088437005877" lon="9.404036952182651">
        <ele>1413.6500000000001</ele>
        <time>2021-02-14T13:07:51Z</time>
      </trkpt>
      <trkpt lat="46.037080138921738" lon="9.40404374152422">
        <ele>1413.9100000000001</ele>
        <time>2021-02-14T13:08:03Z</time>
      </trkpt>
      <trkpt lat="46.037091119214892" lon="9.4040481839329">
        <ele>1414.23</ele>
        <time>2021-02-14T13:08:16Z</time>
      </trkpt>
      <trkpt lat="46.037096315994859" lon="9.404065199196339">
        <ele>1414.21</ele>
        <time>2021-02-14T13:08:32Z</time>
      </trkpt>
      <trkpt lat="46.037107296288013" lon="9.404058828949928">
        <ele>1414.3900000000001</ele>
        <time>2021-02-14T13:08:49Z</time>
      </trkpt>
      <trkpt lat="46.037113917991519" lon="9.404045417904854">
        <ele>1414.54</ele>
        <time>2021-02-14T13:09:04Z</time>
      </trkpt>
      <trkpt lat="46.037129675969481" lon="9.404070395976305">
        <ele>1414.99</ele>
        <time>2021-02-14T13:09:22Z</time>
      </trkpt>
      <trkpt lat="46.037179548293352" lon="9.404060589149594">
        <ele>1415.3399999999999</ele>
        <time>2021-02-14T13:09:45Z</time>
      </trkpt>
      <trkpt lat="46.037276107817888" lon="9.404040221124888">
        <ele>1415.3299999999999</ele>
        <time>2021-02-14T13:09:56Z</time>
      </trkpt>
      <trkpt lat="46.037377445027232" lon="9.404022619128227">
        <ele>1415.05</ele>
        <time>2021-02-14T13:10:08Z</time>
      </trkpt>
      <trkpt lat="46.037470987066627" lon="9.403991186991334">
        <ele>1415.01</ele>
        <time>2021-02-14T13:10:20Z</time>
      </trkpt>
      <trkpt lat="46.03758011944592" lon="9.403952127322555">
        <ele>1415.1300000000001</ele>
        <time>2021-02-14T13:10:32Z</time>
      </trkpt>
      <trkpt lat="46.037634685635567" lon="9.403936620801687">
        <ele>1415.02</ele>
        <time>2021-02-14T13:10:37Z</time>
      </trkpt>
      <trkpt lat="46.03773744776845" lon="9.403911558911204">
        <ele>1414.78</ele>
        <time>2021-02-14T13:10:47Z</time>
      </trkpt>
      <trkpt lat="46.03783174417913" lon="9.403881216421723">
        <ele>1414.3800000000001</ele>
        <time>2021-02-14T13:10:57Z</time>
      </trkpt>
      <trkpt lat="46.037925705313683" lon="9.403863195329905">
        <ele>1412.71</ele>
        <time>2021-02-14T13:11:07Z</time>
      </trkpt>
      <trkpt lat="46.038075825199485" lon="9.403821118175983">
        <ele>1410.3199999999999</ele>
        <time>2021-02-14T13:11:22Z</time>
      </trkpt>
      <trkpt lat="46.038225023075938" lon="9.403839223086834">
        <ele>1408.8099999999999</ele>
        <time>2021-02-14T13:11:35Z</time>
      </trkpt>
      <trkpt lat="46.03832334280014" lon="9.403909295797348">
        <ele>1407.3</ele>
        <time>2021-02-14T13:11:45Z</time>
      </trkpt>
      <trkpt lat="46.038340022787452" lon="9.40393335185945">
        <ele>1407.1500000000001</ele>
        <time>2021-02-14T13:11:47Z</time>
      </trkpt>
      <trkpt lat="46.038354858756065" lon="9.403964783996344">
        <ele>1407.0599999999999</ele>
        <time>2021-02-14T13:11:49Z</time>
      </trkpt>
      <trkpt lat="46.038467427715659" lon="9.404109455645084">
        <ele>1405.27</ele>
        <time>2021-02-14T13:12:02Z</time>
      </trkpt>
      <trkpt lat="46.038501961156726" lon="9.404176343232393">
        <ele>1404.0799999999999</ele>
        <time>2021-02-14T13:12:08Z</time>
      </trkpt>
      <trkpt lat="46.038616038858891" lon="9.404224036261439">
        <ele>1402.5799999999999</ele>
        <time>2021-02-14T13:12:18Z</time>
      </trkpt>
      <trkpt lat="46.038653673604131" lon="9.404217163100839">
        <ele>1400.9200000000001</ele>
        <time>2021-02-14T13:12:21Z</time>
      </trkpt>
      <trkpt lat="46.038674209266901" lon="9.404212888330221">
        <ele>1402.72</ele>
        <time>2021-02-14T13:12:23Z</time>
      </trkpt>
      <trkpt lat="46.038823407143354" lon="9.404159830883145">
        <ele>1400.28</ele>
        <time>2021-02-14T13:12:35Z</time>
      </trkpt>
      <trkpt lat="46.038987692445517" lon="9.404126973822713">
        <ele>1398.0899999999999</ele>
        <time>2021-02-14T13:12:48Z</time>
      </trkpt>
      <trkpt lat="46.039106883108616" lon="9.404120184481144">
        <ele>1396.45</ele>
        <time>2021-02-14T13:12:57Z</time>
      </trkpt>
      <trkpt lat="46.03923948481679" lon="9.404074084013701">
        <ele>1395.1800000000001</ele>
        <time>2021-02-14T13:13:08Z</time>
      </trkpt>
      <trkpt lat="46.039352808147669" lon="9.403993869200349">
        <ele>1394.8099999999999</ele>
        <time>2021-02-14T13:13:19Z</time>
      </trkpt>
      <trkpt lat="46.039417264983058" lon="9.403959922492504">
        <ele>1395.6500000000001</ele>
        <time>2021-02-14T13:13:25Z</time>
      </trkpt>
      <trkpt lat="46.039459928870201" lon="9.403943913057447">
        <ele>1393.6800000000001</ele>
        <time>2021-02-14T13:13:29Z</time>
      </trkpt>
      <trkpt lat="46.039593033492565" lon="9.403885910287499">
        <ele>1392.27</ele>
        <time>2021-02-14T13:13:41Z</time>
      </trkpt>
      <trkpt lat="46.039671991020441" lon="9.403854729607701">
        <ele>1391.5999999999999</ele>
        <time>2021-02-14T13:13:48Z</time>
      </trkpt>
      <trkpt lat="46.039905929937959" lon="9.40374031662941">
        <ele>1388.76</ele>
        <time>2021-02-14T13:14:07Z</time>
      </trkpt>
      <trkpt lat="46.040128888562322" lon="9.403726486489177">
        <ele>1386.53</ele>
        <time>2021-02-14T13:14:24Z</time>
      </trkpt>
      <trkpt lat="46.040302058681846" lon="9.403807036578655">
        <ele>1384.0799999999999</ele>
        <time>2021-02-14T13:14:38Z</time>
      </trkpt>
      <trkpt lat="46.040477072820067" lon="9.403729839250445">
        <ele>1384</ele>
        <time>2021-02-14T13:14:54Z</time>
      </trkpt>
      <trkpt lat="46.040625935420394" lon="9.403593381866813">
        <ele>1381.77</ele>
        <time>2021-02-14T13:15:10Z</time>
      </trkpt>
      <trkpt lat="46.040679579600692" lon="9.403524482622743">
        <ele>1380.3900000000001</ele>
        <time>2021-02-14T13:15:16Z</time>
      </trkpt>
      <trkpt lat="46.040836069732904" lon="9.403376206755638">
        <ele>1378.21</ele>
        <time>2021-02-14T13:15:32Z</time>
      </trkpt>
      <trkpt lat="46.041026338934898" lon="9.40327319316566">
        <ele>1375.53</ele>
        <time>2021-02-14T13:15:48Z</time>
      </trkpt>
      <trkpt lat="46.041201017796993" lon="9.403150985017419">
        <ele>1373</ele>
        <time>2021-02-14T13:16:03Z</time>
      </trkpt>
      <trkpt lat="46.041307803243399" lon="9.402992315590382">
        <ele>1370.8499999999999</ele>
        <time>2021-02-14T13:16:15Z</time>
      </trkpt>
      <trkpt lat="46.041472842916846" lon="9.402872119098902">
        <ele>1368.8199999999999</ele>
        <time>2021-02-14T13:16:30Z</time>
      </trkpt>
      <trkpt lat="46.041612066328526" lon="9.402856109663844">
        <ele>1367.5699999999999</ele>
        <time>2021-02-14T13:16:42Z</time>
      </trkpt>
      <trkpt lat="46.041793869808316" lon="9.402817972004414">
        <ele>1364.8699999999999</ele>
        <time>2021-02-14T13:16:58Z</time>
      </trkpt>
      <trkpt lat="46.041969554498792" lon="9.402761561796069">
        <ele>1362.04</ele>
        <time>2021-02-14T13:17:14Z</time>
      </trkpt>
      <trkpt lat="46.042007105425" lon="9.402731554582715">
        <ele>1360.8199999999999</ele>
        <time>2021-02-14T13:17:24Z</time>
      </trkpt>
      <trkpt lat="46.042004590854049" lon="9.40274303779006">
        <ele>1361.45</ele>
        <time>2021-02-14T13:17:35Z</time>
      </trkpt>
      <trkpt lat="46.042008446529508" lon="9.402752090245485">
        <ele>1361.26</ele>
        <time>2021-02-14T13:17:48Z</time>
      </trkpt>
      <trkpt lat="46.042002495378256" lon="9.402745636180043">
        <ele>1361.04</ele>
        <time>2021-02-14T13:18:00Z</time>
      </trkpt>
      <trkpt lat="46.041988162323833" lon="9.4027478992939">
        <ele>1361.0899999999999</ele>
        <time>2021-02-14T13:18:22Z</time>
      </trkpt>
      <trkpt lat="46.041996460407972" lon="9.40275183878839">
        <ele>1361.52</ele>
        <time>2021-02-14T13:18:31Z</time>
      </trkpt>
      <trkpt lat="46.042006853967905" lon="9.402764244005084">
        <ele>1361.53</ele>
        <time>2021-02-14T13:18:46Z</time>
      </trkpt>
      <trkpt lat="46.042001321911812" lon="9.402765249833465">
        <ele>1361.7</ele>
        <time>2021-02-14T13:19:00Z</time>
      </trkpt>
      <trkpt lat="46.042008027434349" lon="9.402768099680543">
        <ele>1361.8199999999999</ele>
        <time>2021-02-14T13:19:17Z</time>
      </trkpt>
      <trkpt lat="46.042008195072412" lon="9.402778074145317">
        <ele>1361.8699999999999</ele>
        <time>2021-02-14T13:19:30Z</time>
      </trkpt>
      <trkpt lat="46.041998891159892" lon="9.402782265096903">
        <ele>1361.71</ele>
        <time>2021-02-14T13:19:45Z</time>
      </trkpt>
      <trkpt lat="46.041996376588941" lon="9.402782432734966">
        <ele>1362.03</ele>
        <time>2021-02-14T13:19:55Z</time>
      </trkpt>
      <trkpt lat="46.042000399902463" lon="9.402800537645817">
        <ele>1361.8900000000001</ele>
        <time>2021-02-14T13:20:14Z</time>
      </trkpt>
      <trkpt lat="46.042004087939858" lon="9.402808919548988">
        <ele>1362</ele>
        <time>2021-02-14T13:20:37Z</time>
      </trkpt>
      <trkpt lat="46.042045913636684" lon="9.402812859043479">
        <ele>1361.8099999999999</ele>
        <time>2021-02-14T13:20:45Z</time>
      </trkpt>
      <trkpt lat="46.04206720367074" lon="9.402812691405416">
        <ele>1361.5</ele>
        <time>2021-02-14T13:20:47Z</time>
      </trkpt>
      <trkpt lat="46.042163008823991" lon="9.402784360572696">
        <ele>1360.96</ele>
        <time>2021-02-14T13:20:55Z</time>
      </trkpt>
      <trkpt lat="46.042204415425658" lon="9.402785114943981">
        <ele>1361.29</ele>
        <time>2021-02-14T13:20:59Z</time>
      </trkpt>
      <trkpt lat="46.042245402932167" lon="9.40284906886518">
        <ele>1361.4300000000001</ele>
        <time>2021-02-14T13:21:06Z</time>
      </trkpt>
      <trkpt lat="46.042380519211292" lon="9.40278947353363">
        <ele>1361.3800000000001</ele>
        <time>2021-02-14T13:21:20Z</time>
      </trkpt>
      <trkpt lat="46.04244195856154" lon="9.402789305895567">
        <ele>1361.6600000000001</ele>
        <time>2021-02-14T13:21:26Z</time>
      </trkpt>
      <trkpt lat="46.042598029598594" lon="9.402801711112261">
        <ele>1361.24</ele>
        <time>2021-02-14T13:21:41Z</time>
      </trkpt>
      <trkpt lat="46.042629545554519" lon="9.402796598151326">
        <ele>1361.3499999999999</ele>
        <time>2021-02-14T13:21:44Z</time>
      </trkpt>
      <trkpt lat="46.042690649628639" lon="9.402908580377698">
        <ele>1361.3599999999999</ele>
        <time>2021-02-14T13:21:55Z</time>
      </trkpt>
      <trkpt lat="46.04267505928874" lon="9.402941688895226">
        <ele>1361.6700000000001</ele>
        <time>2021-02-14T13:22:06Z</time>
      </trkpt>
      <trkpt lat="46.042676316574216" lon="9.402943281456828">
        <ele>1360.3299999999999</ele>
        <time>2021-02-14T13:22:17Z</time>
      </trkpt>
      <trkpt lat="46.042672879993916" lon="9.402947137132287">
        <ele>1360.8299999999999</ele>
        <time>2021-02-14T13:22:31Z</time>
      </trkpt>
      <trkpt lat="46.042669108137488" lon="9.402930121868849">
        <ele>1361.01</ele>
        <time>2021-02-14T13:22:45Z</time>
      </trkpt>
    </trkseg>
  </trk>

</gpx>